<?xml version="1.0" encoding="UTF-8"?>
<gpx version="1.0" creator="GPSBabel - https://www.gpsbabel.org" xmlns="http://www.topografix.com/GPX/1/0">
  <time>2021-11-17T03:48:22.741Z</time>
  <bounds minlat="35.222876750" minlon="-106.483567050" maxlat="35.244635240" maxlon="-106.474587950"/>
  <trk>
    <name>Piedra Lisa South Hike.Pat.2019-05-02</name>
    <trkseg>
      <trkpt lat="35.222884500" lon="-106.483433150">
        <ele>2093.000</ele>
        <time>2019-05-02T14:05:36Z</time>
        <name>WPT</name>
      </trkpt>
      <trkpt lat="35.222910150" lon="-106.483470150">
        <ele>2089.000</ele>
        <time>2019-05-02T14:06:47Z</time>
        <name>WPT.1</name>
      </trkpt>
      <trkpt lat="35.222944330" lon="-106.483490970">
        <ele>2091.000</ele>
        <time>2019-05-02T14:07:06Z</time>
        <name>WPT.2</name>
      </trkpt>
      <trkpt lat="35.222978120" lon="-106.483520840">
        <ele>2090.000</ele>
        <time>2019-05-02T14:07:11Z</time>
        <name>WPT.3</name>
      </trkpt>
      <trkpt lat="35.223014130" lon="-106.483536180">
        <ele>2090.000</ele>
        <time>2019-05-02T14:07:15Z</time>
        <name>WPT.4</name>
      </trkpt>
      <trkpt lat="35.223051020" lon="-106.483567050">
        <ele>2091.000</ele>
        <time>2019-05-02T14:07:20Z</time>
        <name>WPT.5</name>
      </trkpt>
      <trkpt lat="35.223089240" lon="-106.483564610">
        <ele>2090.000</ele>
        <time>2019-05-02T14:07:24Z</time>
        <name>WPT.6</name>
      </trkpt>
      <trkpt lat="35.223125610" lon="-106.483534870">
        <ele>2092.000</ele>
        <time>2019-05-02T14:07:29Z</time>
        <name>WPT.7</name>
      </trkpt>
      <trkpt lat="35.223154280" lon="-106.483492490">
        <ele>2094.000</ele>
        <time>2019-05-02T14:07:34Z</time>
        <name>WPT.8</name>
      </trkpt>
      <trkpt lat="35.223168620" lon="-106.483451880">
        <ele>2094.000</ele>
        <time>2019-05-02T14:07:38Z</time>
        <name>WPT.9</name>
      </trkpt>
      <trkpt lat="35.223184590" lon="-106.483406600">
        <ele>2095.000</ele>
        <time>2019-05-02T14:07:43Z</time>
        <name>WPT.10</name>
      </trkpt>
      <trkpt lat="35.223197520" lon="-106.483359690">
        <ele>2096.000</ele>
        <time>2019-05-02T14:07:47Z</time>
        <name>WPT.11</name>
      </trkpt>
      <trkpt lat="35.223210430" lon="-106.483318190">
        <ele>2097.000</ele>
        <time>2019-05-02T14:07:50Z</time>
        <name>WPT.12</name>
      </trkpt>
      <trkpt lat="35.223214070" lon="-106.483273360">
        <ele>2097.000</ele>
        <time>2019-05-02T14:07:59Z</time>
        <name>WPT.13</name>
      </trkpt>
      <trkpt lat="35.223197880" lon="-106.483230560">
        <ele>2096.000</ele>
        <time>2019-05-02T14:08:06Z</time>
        <name>WPT.14</name>
      </trkpt>
      <trkpt lat="35.223192130" lon="-106.483183810">
        <ele>2097.000</ele>
        <time>2019-05-02T14:08:10Z</time>
        <name>WPT.15</name>
      </trkpt>
      <trkpt lat="35.223215880" lon="-106.483149790">
        <ele>2099.000</ele>
        <time>2019-05-02T14:08:15Z</time>
        <name>WPT.16</name>
      </trkpt>
      <trkpt lat="35.223218920" lon="-106.483102670">
        <ele>2100.000</ele>
        <time>2019-05-02T14:08:20Z</time>
        <name>WPT.17</name>
      </trkpt>
      <trkpt lat="35.223212510" lon="-106.483056670">
        <ele>2101.000</ele>
        <time>2019-05-02T14:08:24Z</time>
        <name>WPT.18</name>
      </trkpt>
      <trkpt lat="35.223206030" lon="-106.483005390">
        <ele>2098.000</ele>
        <time>2019-05-02T14:08:29Z</time>
        <name>WPT.19</name>
      </trkpt>
      <trkpt lat="35.223190260" lon="-106.482954850">
        <ele>2096.000</ele>
        <time>2019-05-02T14:08:34Z</time>
        <name>WPT.20</name>
      </trkpt>
      <trkpt lat="35.223178780" lon="-106.482908000">
        <ele>2099.000</ele>
        <time>2019-05-02T14:08:40Z</time>
        <name>WPT.21</name>
      </trkpt>
      <trkpt lat="35.223146860" lon="-106.482876340">
        <ele>2101.000</ele>
        <time>2019-05-02T14:08:46Z</time>
        <name>WPT.22</name>
      </trkpt>
      <trkpt lat="35.223113760" lon="-106.482857990">
        <ele>2099.000</ele>
        <time>2019-05-02T14:08:48Z</time>
        <name>WPT.23</name>
      </trkpt>
      <trkpt lat="35.223111030" lon="-106.482807970">
        <ele>2101.000</ele>
        <time>2019-05-02T14:08:55Z</time>
        <name>WPT.24</name>
      </trkpt>
      <trkpt lat="35.223083770" lon="-106.482766310">
        <ele>2101.000</ele>
        <time>2019-05-02T14:08:59Z</time>
        <name>WPT.25</name>
      </trkpt>
      <trkpt lat="35.223057850" lon="-106.482721150">
        <ele>2101.000</ele>
        <time>2019-05-02T14:09:04Z</time>
        <name>WPT.26</name>
      </trkpt>
      <trkpt lat="35.223037290" lon="-106.482675840">
        <ele>2103.000</ele>
        <time>2019-05-02T14:09:26Z</time>
        <name>WPT.27</name>
      </trkpt>
      <trkpt lat="35.223010070" lon="-106.482643390">
        <ele>2102.000</ele>
        <time>2019-05-02T14:09:33Z</time>
        <name>WPT.28</name>
      </trkpt>
      <trkpt lat="35.223010070" lon="-106.482598680">
        <ele>2105.000</ele>
        <time>2019-05-02T14:10:19Z</time>
        <name>WPT.29</name>
      </trkpt>
      <trkpt lat="35.223013970" lon="-106.482554830">
        <ele>2105.000</ele>
        <time>2019-05-02T14:10:23Z</time>
        <name>WPT.30</name>
      </trkpt>
      <trkpt lat="35.223015180" lon="-106.482503760">
        <ele>2106.000</ele>
        <time>2019-05-02T14:10:28Z</time>
        <name>WPT.31</name>
      </trkpt>
      <trkpt lat="35.223019150" lon="-106.482451930">
        <ele>2107.000</ele>
        <time>2019-05-02T14:10:32Z</time>
        <name>WPT.32</name>
      </trkpt>
      <trkpt lat="35.223034130" lon="-106.482404490">
        <ele>2109.000</ele>
        <time>2019-05-02T14:10:37Z</time>
        <name>WPT.33</name>
      </trkpt>
      <trkpt lat="35.223056480" lon="-106.482351310">
        <ele>2109.000</ele>
        <time>2019-05-02T14:10:42Z</time>
        <name>WPT.34</name>
      </trkpt>
      <trkpt lat="35.223028610" lon="-106.482315600">
        <ele>2106.000</ele>
        <time>2019-05-02T14:11:23Z</time>
        <name>WPT.35</name>
      </trkpt>
      <trkpt lat="35.223050380" lon="-106.482273450">
        <ele>2104.000</ele>
        <time>2019-05-02T14:11:28Z</time>
        <name>WPT.36</name>
      </trkpt>
      <trkpt lat="35.223075050" lon="-106.482234730">
        <ele>2105.000</ele>
        <time>2019-05-02T14:11:32Z</time>
        <name>WPT.37</name>
      </trkpt>
      <trkpt lat="35.223097260" lon="-106.482185830">
        <ele>2106.000</ele>
        <time>2019-05-02T14:11:36Z</time>
        <name>WPT.38</name>
      </trkpt>
      <trkpt lat="35.223118810" lon="-106.482142950">
        <ele>2105.000</ele>
        <time>2019-05-02T14:11:40Z</time>
        <name>WPT.39</name>
      </trkpt>
      <trkpt lat="35.223149040" lon="-106.482105420">
        <ele>2106.000</ele>
        <time>2019-05-02T14:11:45Z</time>
        <name>WPT.40</name>
      </trkpt>
      <trkpt lat="35.223149020" lon="-106.482055280">
        <ele>2106.000</ele>
        <time>2019-05-02T14:11:50Z</time>
        <name>WPT.41</name>
      </trkpt>
      <trkpt lat="35.223147420" lon="-106.481993510">
        <ele>2106.000</ele>
        <time>2019-05-02T14:11:55Z</time>
        <name>WPT.42</name>
      </trkpt>
      <trkpt lat="35.223144490" lon="-106.481947270">
        <ele>2105.000</ele>
        <time>2019-05-02T14:11:59Z</time>
        <name>WPT.43</name>
      </trkpt>
      <trkpt lat="35.223113940" lon="-106.481919080">
        <ele>2102.000</ele>
        <time>2019-05-02T14:12:03Z</time>
        <name>WPT.44</name>
      </trkpt>
      <trkpt lat="35.223099210" lon="-106.481874390">
        <ele>2104.000</ele>
        <time>2019-05-02T14:12:08Z</time>
        <name>WPT.45</name>
      </trkpt>
      <trkpt lat="35.223113950" lon="-106.481820490">
        <ele>2105.000</ele>
        <time>2019-05-02T14:12:13Z</time>
        <name>WPT.46</name>
      </trkpt>
      <trkpt lat="35.223135160" lon="-106.481780920">
        <ele>2105.000</ele>
        <time>2019-05-02T14:12:16Z</time>
        <name>WPT.47</name>
      </trkpt>
      <trkpt lat="35.223151180" lon="-106.481734870">
        <ele>2107.000</ele>
        <time>2019-05-02T14:12:20Z</time>
        <name>WPT.48</name>
      </trkpt>
      <trkpt lat="35.223167770" lon="-106.481683680">
        <ele>2106.000</ele>
        <time>2019-05-02T14:12:25Z</time>
        <name>WPT.49</name>
      </trkpt>
      <trkpt lat="35.223203500" lon="-106.481706470">
        <ele>2106.000</ele>
        <time>2019-05-02T14:12:31Z</time>
        <name>WPT.50</name>
      </trkpt>
      <trkpt lat="35.223242960" lon="-106.481699420">
        <ele>2109.000</ele>
        <time>2019-05-02T14:12:35Z</time>
        <name>WPT.51</name>
      </trkpt>
      <trkpt lat="35.223273550" lon="-106.481669760">
        <ele>2109.000</ele>
        <time>2019-05-02T14:12:40Z</time>
        <name>WPT.52</name>
      </trkpt>
      <trkpt lat="35.223313970" lon="-106.481692250">
        <ele>2109.000</ele>
        <time>2019-05-02T14:12:45Z</time>
        <name>WPT.53</name>
      </trkpt>
      <trkpt lat="35.223351190" lon="-106.481704970">
        <ele>2108.000</ele>
        <time>2019-05-02T14:12:48Z</time>
        <name>WPT.54</name>
      </trkpt>
      <trkpt lat="35.223391860" lon="-106.481716420">
        <ele>2108.000</ele>
        <time>2019-05-02T14:12:52Z</time>
        <name>WPT.55</name>
      </trkpt>
      <trkpt lat="35.223429200" lon="-106.481737560">
        <ele>2109.000</ele>
        <time>2019-05-02T14:12:56Z</time>
        <name>WPT.56</name>
      </trkpt>
      <trkpt lat="35.223470220" lon="-106.481726140">
        <ele>2108.000</ele>
        <time>2019-05-02T14:13:00Z</time>
        <name>WPT.57</name>
      </trkpt>
      <trkpt lat="35.223504170" lon="-106.481701870">
        <ele>2108.000</ele>
        <time>2019-05-02T14:13:03Z</time>
        <name>WPT.58</name>
      </trkpt>
      <trkpt lat="35.223540570" lon="-106.481703100">
        <ele>2111.000</ele>
        <time>2019-05-02T14:13:08Z</time>
        <name>WPT.59</name>
      </trkpt>
      <trkpt lat="35.223577660" lon="-106.481715460">
        <ele>2113.000</ele>
        <time>2019-05-02T14:13:12Z</time>
        <name>WPT.60</name>
      </trkpt>
      <trkpt lat="35.223621040" lon="-106.481702960">
        <ele>2113.000</ele>
        <time>2019-05-02T14:13:16Z</time>
        <name>WPT.61</name>
      </trkpt>
      <trkpt lat="35.223660150" lon="-106.481687610">
        <ele>2113.000</ele>
        <time>2019-05-02T14:13:20Z</time>
        <name>WPT.62</name>
      </trkpt>
      <trkpt lat="35.223695660" lon="-106.481677600">
        <ele>2113.000</ele>
        <time>2019-05-02T14:13:34Z</time>
        <name>WPT.63</name>
      </trkpt>
      <trkpt lat="35.223732640" lon="-106.481660010">
        <ele>2111.000</ele>
        <time>2019-05-02T14:13:40Z</time>
        <name>WPT.64</name>
      </trkpt>
      <trkpt lat="35.223767080" lon="-106.481635590">
        <ele>2112.000</ele>
        <time>2019-05-02T14:13:45Z</time>
        <name>WPT.65</name>
      </trkpt>
      <trkpt lat="35.223791190" lon="-106.481591080">
        <ele>2112.000</ele>
        <time>2019-05-02T14:13:51Z</time>
        <name>WPT.66</name>
      </trkpt>
      <trkpt lat="35.223808410" lon="-106.481547610">
        <ele>2111.000</ele>
        <time>2019-05-02T14:13:55Z</time>
        <name>WPT.67</name>
      </trkpt>
      <trkpt lat="35.223829720" lon="-106.481506310">
        <ele>2111.000</ele>
        <time>2019-05-02T14:14:00Z</time>
        <name>WPT.68</name>
      </trkpt>
      <trkpt lat="35.223870600" lon="-106.481516840">
        <ele>2112.000</ele>
        <time>2019-05-02T14:14:05Z</time>
        <name>WPT.69</name>
      </trkpt>
      <trkpt lat="35.223897290" lon="-106.481547310">
        <ele>2113.000</ele>
        <time>2019-05-02T14:14:11Z</time>
        <name>WPT.70</name>
      </trkpt>
      <trkpt lat="35.223922660" lon="-106.481584060">
        <ele>2113.000</ele>
        <time>2019-05-02T14:14:15Z</time>
        <name>WPT.71</name>
      </trkpt>
      <trkpt lat="35.223958490" lon="-106.481607770">
        <ele>2113.000</ele>
        <time>2019-05-02T14:14:20Z</time>
        <name>WPT.72</name>
      </trkpt>
      <trkpt lat="35.223994320" lon="-106.481636610">
        <ele>2113.000</ele>
        <time>2019-05-02T14:14:25Z</time>
        <name>WPT.73</name>
      </trkpt>
      <trkpt lat="35.224034620" lon="-106.481630880">
        <ele>2112.000</ele>
        <time>2019-05-02T14:14:29Z</time>
        <name>WPT.74</name>
      </trkpt>
      <trkpt lat="35.224072390" lon="-106.481634680">
        <ele>2113.000</ele>
        <time>2019-05-02T14:14:34Z</time>
        <name>WPT.75</name>
      </trkpt>
      <trkpt lat="35.224114240" lon="-106.481634440">
        <ele>2111.000</ele>
        <time>2019-05-02T14:14:39Z</time>
        <name>WPT.76</name>
      </trkpt>
      <trkpt lat="35.224152380" lon="-106.481614010">
        <ele>2111.000</ele>
        <time>2019-05-02T14:14:43Z</time>
        <name>WPT.77</name>
      </trkpt>
      <trkpt lat="35.224191090" lon="-106.481608980">
        <ele>2112.000</ele>
        <time>2019-05-02T14:14:48Z</time>
        <name>WPT.78</name>
      </trkpt>
      <trkpt lat="35.224231080" lon="-106.481597290">
        <ele>2113.000</ele>
        <time>2019-05-02T14:14:52Z</time>
        <name>WPT.79</name>
      </trkpt>
      <trkpt lat="35.224273770" lon="-106.481594540">
        <ele>2112.000</ele>
        <time>2019-05-02T14:15:00Z</time>
        <name>WPT.80</name>
      </trkpt>
      <trkpt lat="35.224310850" lon="-106.481605940">
        <ele>2113.000</ele>
        <time>2019-05-02T14:15:06Z</time>
        <name>WPT.81</name>
      </trkpt>
      <trkpt lat="35.224351780" lon="-106.481623160">
        <ele>2112.000</ele>
        <time>2019-05-02T14:15:11Z</time>
        <name>WPT.82</name>
      </trkpt>
      <trkpt lat="35.224394480" lon="-106.481638280">
        <ele>2113.000</ele>
        <time>2019-05-02T14:15:16Z</time>
        <name>WPT.83</name>
      </trkpt>
      <trkpt lat="35.224427180" lon="-106.481657850">
        <ele>2112.000</ele>
        <time>2019-05-02T14:15:21Z</time>
        <name>WPT.84</name>
      </trkpt>
      <trkpt lat="35.224461480" lon="-106.481681330">
        <ele>2113.000</ele>
        <time>2019-05-02T14:15:26Z</time>
        <name>WPT.85</name>
      </trkpt>
      <trkpt lat="35.224497490" lon="-106.481689870">
        <ele>2113.000</ele>
        <time>2019-05-02T14:15:30Z</time>
        <name>WPT.86</name>
      </trkpt>
      <trkpt lat="35.224533090" lon="-106.481701120">
        <ele>2112.000</ele>
        <time>2019-05-02T14:15:47Z</time>
        <name>WPT.87</name>
      </trkpt>
      <trkpt lat="35.224561040" lon="-106.481736860">
        <ele>2112.000</ele>
        <time>2019-05-02T14:15:52Z</time>
        <name>WPT.88</name>
      </trkpt>
      <trkpt lat="35.224589650" lon="-106.481771350">
        <ele>2113.000</ele>
        <time>2019-05-02T14:15:56Z</time>
        <name>WPT.89</name>
      </trkpt>
      <trkpt lat="35.224635650" lon="-106.481776720">
        <ele>2113.000</ele>
        <time>2019-05-02T14:16:00Z</time>
        <name>WPT.90</name>
      </trkpt>
      <trkpt lat="35.224673170" lon="-106.481784350">
        <ele>2113.000</ele>
        <time>2019-05-02T14:16:04Z</time>
        <name>WPT.91</name>
      </trkpt>
      <trkpt lat="35.224709890" lon="-106.481768270">
        <ele>2115.000</ele>
        <time>2019-05-02T14:16:08Z</time>
        <name>WPT.92</name>
      </trkpt>
      <trkpt lat="35.224745670" lon="-106.481797400">
        <ele>2115.000</ele>
        <time>2019-05-02T14:16:12Z</time>
        <name>WPT.93</name>
      </trkpt>
      <trkpt lat="35.224781170" lon="-106.481818350">
        <ele>2114.000</ele>
        <time>2019-05-02T14:16:16Z</time>
        <name>WPT.94</name>
      </trkpt>
      <trkpt lat="35.224822940" lon="-106.481826030">
        <ele>2115.000</ele>
        <time>2019-05-02T14:16:23Z</time>
        <name>WPT.95</name>
      </trkpt>
      <trkpt lat="35.224867070" lon="-106.481824960">
        <ele>2117.000</ele>
        <time>2019-05-02T14:16:29Z</time>
        <name>WPT.96</name>
      </trkpt>
      <trkpt lat="35.224903690" lon="-106.481834950">
        <ele>2121.000</ele>
        <time>2019-05-02T14:16:34Z</time>
        <name>WPT.97</name>
      </trkpt>
      <trkpt lat="35.224940880" lon="-106.481855870">
        <ele>2121.000</ele>
        <time>2019-05-02T14:16:38Z</time>
        <name>WPT.98</name>
      </trkpt>
      <trkpt lat="35.224966860" lon="-106.481890290">
        <ele>2121.000</ele>
        <time>2019-05-02T14:16:42Z</time>
        <name>WPT.99</name>
      </trkpt>
      <trkpt lat="35.225007740" lon="-106.481908900">
        <ele>2120.000</ele>
        <time>2019-05-02T14:16:46Z</time>
        <name>WPT.100</name>
      </trkpt>
      <trkpt lat="35.225047960" lon="-106.481930290">
        <ele>2121.000</ele>
        <time>2019-05-02T14:16:51Z</time>
        <name>WPT.101</name>
      </trkpt>
      <trkpt lat="35.225082170" lon="-106.481953500">
        <ele>2123.000</ele>
        <time>2019-05-02T14:16:56Z</time>
        <name>WPT.102</name>
      </trkpt>
      <trkpt lat="35.225119590" lon="-106.481952370">
        <ele>2124.000</ele>
        <time>2019-05-02T14:17:00Z</time>
        <name>WPT.103</name>
      </trkpt>
      <trkpt lat="35.225162350" lon="-106.481953360">
        <ele>2125.000</ele>
        <time>2019-05-02T14:17:05Z</time>
        <name>WPT.104</name>
      </trkpt>
      <trkpt lat="35.225200230" lon="-106.481942090">
        <ele>2127.000</ele>
        <time>2019-05-02T14:17:09Z</time>
        <name>WPT.105</name>
      </trkpt>
      <trkpt lat="35.225237250" lon="-106.481948580">
        <ele>2128.000</ele>
        <time>2019-05-02T14:17:13Z</time>
        <name>WPT.106</name>
      </trkpt>
      <trkpt lat="35.225278400" lon="-106.481953140">
        <ele>2129.000</ele>
        <time>2019-05-02T14:17:18Z</time>
        <name>WPT.107</name>
      </trkpt>
      <trkpt lat="35.225314770" lon="-106.481951300">
        <ele>2130.000</ele>
        <time>2019-05-02T14:17:22Z</time>
        <name>WPT.108</name>
      </trkpt>
      <trkpt lat="35.225355040" lon="-106.481956750">
        <ele>2128.000</ele>
        <time>2019-05-02T14:17:26Z</time>
        <name>WPT.109</name>
      </trkpt>
      <trkpt lat="35.225391670" lon="-106.481954430">
        <ele>2129.000</ele>
        <time>2019-05-02T14:17:30Z</time>
        <name>WPT.110</name>
      </trkpt>
      <trkpt lat="35.225428300" lon="-106.481962820">
        <ele>2131.000</ele>
        <time>2019-05-02T14:17:35Z</time>
        <name>WPT.111</name>
      </trkpt>
      <trkpt lat="35.225472040" lon="-106.481972410">
        <ele>2130.000</ele>
        <time>2019-05-02T14:17:50Z</time>
        <name>WPT.112</name>
      </trkpt>
      <trkpt lat="35.225507250" lon="-106.481930360">
        <ele>2131.000</ele>
        <time>2019-05-02T14:17:54Z</time>
        <name>WPT.113</name>
      </trkpt>
      <trkpt lat="35.225546840" lon="-106.481925340">
        <ele>2132.000</ele>
        <time>2019-05-02T14:17:58Z</time>
        <name>WPT.114</name>
      </trkpt>
      <trkpt lat="35.225586130" lon="-106.481918090">
        <ele>2132.000</ele>
        <time>2019-05-02T14:18:03Z</time>
        <name>WPT.115</name>
      </trkpt>
      <trkpt lat="35.225617960" lon="-106.481940660">
        <ele>2132.000</ele>
        <time>2019-05-02T14:18:30Z</time>
        <name>WPT.116</name>
      </trkpt>
      <trkpt lat="35.225648210" lon="-106.481901660">
        <ele>2131.000</ele>
        <time>2019-05-02T14:18:35Z</time>
        <name>WPT.117</name>
      </trkpt>
      <trkpt lat="35.225682540" lon="-106.481875550">
        <ele>2133.000</ele>
        <time>2019-05-02T14:18:39Z</time>
        <name>WPT.118</name>
      </trkpt>
      <trkpt lat="35.225716990" lon="-106.481853170">
        <ele>2132.000</ele>
        <time>2019-05-02T14:18:45Z</time>
        <name>WPT.119</name>
      </trkpt>
      <trkpt lat="35.225745400" lon="-106.481804950">
        <ele>2133.000</ele>
        <time>2019-05-02T14:19:56Z</time>
        <name>WPT.120</name>
      </trkpt>
      <trkpt lat="35.225781060" lon="-106.481779170">
        <ele>2132.000</ele>
        <time>2019-05-02T14:19:59Z</time>
        <name>WPT.121</name>
      </trkpt>
      <trkpt lat="35.225818950" lon="-106.481750490">
        <ele>2131.000</ele>
        <time>2019-05-02T14:20:02Z</time>
        <name>WPT.122</name>
      </trkpt>
      <trkpt lat="35.225841250" lon="-106.481715460">
        <ele>2130.000</ele>
        <time>2019-05-02T14:20:06Z</time>
        <name>WPT.123</name>
      </trkpt>
      <trkpt lat="35.225855120" lon="-106.481672710">
        <ele>2130.000</ele>
        <time>2019-05-02T14:20:10Z</time>
        <name>WPT.124</name>
      </trkpt>
      <trkpt lat="35.225890280" lon="-106.481644220">
        <ele>2129.000</ele>
        <time>2019-05-02T14:20:15Z</time>
        <name>WPT.125</name>
      </trkpt>
      <trkpt lat="35.225930900" lon="-106.481642270">
        <ele>2129.000</ele>
        <time>2019-05-02T14:20:20Z</time>
        <name>WPT.126</name>
      </trkpt>
      <trkpt lat="35.225977000" lon="-106.481636750">
        <ele>2129.000</ele>
        <time>2019-05-02T14:20:25Z</time>
        <name>WPT.127</name>
      </trkpt>
      <trkpt lat="35.226022550" lon="-106.481630920">
        <ele>2126.000</ele>
        <time>2019-05-02T14:20:29Z</time>
        <name>WPT.128</name>
      </trkpt>
      <trkpt lat="35.226051160" lon="-106.481594500">
        <ele>2125.000</ele>
        <time>2019-05-02T14:20:32Z</time>
        <name>WPT.129</name>
      </trkpt>
      <trkpt lat="35.226085030" lon="-106.481573460">
        <ele>2126.000</ele>
        <time>2019-05-02T14:20:36Z</time>
        <name>WPT.130</name>
      </trkpt>
      <trkpt lat="35.226116220" lon="-106.481547310">
        <ele>2127.000</ele>
        <time>2019-05-02T14:20:40Z</time>
        <name>WPT.131</name>
      </trkpt>
      <trkpt lat="35.226141870" lon="-106.481513150">
        <ele>2127.000</ele>
        <time>2019-05-02T14:20:44Z</time>
        <name>WPT.132</name>
      </trkpt>
      <trkpt lat="35.226180290" lon="-106.481474960">
        <ele>2128.000</ele>
        <time>2019-05-02T14:20:49Z</time>
        <name>WPT.133</name>
      </trkpt>
      <trkpt lat="35.226188040" lon="-106.481429770">
        <ele>2127.000</ele>
        <time>2019-05-02T14:20:53Z</time>
        <name>WPT.134</name>
      </trkpt>
      <trkpt lat="35.226223390" lon="-106.481405000">
        <ele>2131.000</ele>
        <time>2019-05-02T14:20:58Z</time>
        <name>WPT.135</name>
      </trkpt>
      <trkpt lat="35.226250750" lon="-106.481372960">
        <ele>2130.000</ele>
        <time>2019-05-02T14:21:02Z</time>
        <name>WPT.136</name>
      </trkpt>
      <trkpt lat="35.226272800" lon="-106.481334610">
        <ele>2129.000</ele>
        <time>2019-05-02T14:21:05Z</time>
        <name>WPT.137</name>
      </trkpt>
      <trkpt lat="35.226309010" lon="-106.481325640">
        <ele>2129.000</ele>
        <time>2019-05-02T14:21:09Z</time>
        <name>WPT.138</name>
      </trkpt>
      <trkpt lat="35.226345990" lon="-106.481310100">
        <ele>2128.000</ele>
        <time>2019-05-02T14:21:13Z</time>
        <name>WPT.139</name>
      </trkpt>
      <trkpt lat="35.226368760" lon="-106.481263660">
        <ele>2127.000</ele>
        <time>2019-05-02T14:21:18Z</time>
        <name>WPT.140</name>
      </trkpt>
      <trkpt lat="35.226403720" lon="-106.481246500">
        <ele>2123.000</ele>
        <time>2019-05-02T14:21:24Z</time>
        <name>WPT.141</name>
      </trkpt>
      <trkpt lat="35.226430700" lon="-106.481214290">
        <ele>2125.000</ele>
        <time>2019-05-02T14:21:28Z</time>
        <name>WPT.142</name>
      </trkpt>
      <trkpt lat="35.226466020" lon="-106.481187370">
        <ele>2125.000</ele>
        <time>2019-05-02T14:21:32Z</time>
        <name>WPT.143</name>
      </trkpt>
      <trkpt lat="35.226498610" lon="-106.481164130">
        <ele>2121.000</ele>
        <time>2019-05-02T14:21:34Z</time>
        <name>WPT.144</name>
      </trkpt>
      <trkpt lat="35.226520810" lon="-106.481112650">
        <ele>2125.000</ele>
        <time>2019-05-02T14:21:39Z</time>
        <name>WPT.145</name>
      </trkpt>
      <trkpt lat="35.226552600" lon="-106.481090210">
        <ele>2127.000</ele>
        <time>2019-05-02T14:21:43Z</time>
        <name>WPT.146</name>
      </trkpt>
      <trkpt lat="35.226574980" lon="-106.481052620">
        <ele>2128.000</ele>
        <time>2019-05-02T14:21:49Z</time>
        <name>WPT.147</name>
      </trkpt>
      <trkpt lat="35.226604240" lon="-106.481008600">
        <ele>2129.000</ele>
        <time>2019-05-02T14:21:56Z</time>
        <name>WPT.148</name>
      </trkpt>
      <trkpt lat="35.226632460" lon="-106.480979650">
        <ele>2131.000</ele>
        <time>2019-05-02T14:22:00Z</time>
        <name>WPT.149</name>
      </trkpt>
      <trkpt lat="35.226668180" lon="-106.480961610">
        <ele>2130.000</ele>
        <time>2019-05-02T14:22:05Z</time>
        <name>WPT.150</name>
      </trkpt>
      <trkpt lat="35.226705780" lon="-106.480934620">
        <ele>2128.000</ele>
        <time>2019-05-02T14:22:11Z</time>
        <name>WPT.151</name>
      </trkpt>
      <trkpt lat="35.226734610" lon="-106.480906080">
        <ele>2128.000</ele>
        <time>2019-05-02T14:22:15Z</time>
        <name>WPT.152</name>
      </trkpt>
      <trkpt lat="35.226769760" lon="-106.480876610">
        <ele>2125.000</ele>
        <time>2019-05-02T14:22:19Z</time>
        <name>WPT.153</name>
      </trkpt>
      <trkpt lat="35.226805790" lon="-106.480867190">
        <ele>2124.000</ele>
        <time>2019-05-02T14:22:22Z</time>
        <name>WPT.154</name>
      </trkpt>
      <trkpt lat="35.226836070" lon="-106.480833800">
        <ele>2124.000</ele>
        <time>2019-05-02T14:22:26Z</time>
        <name>WPT.155</name>
      </trkpt>
      <trkpt lat="35.226870740" lon="-106.480798740">
        <ele>2121.000</ele>
        <time>2019-05-02T14:22:31Z</time>
        <name>WPT.156</name>
      </trkpt>
      <trkpt lat="35.226907000" lon="-106.480782710">
        <ele>2125.000</ele>
        <time>2019-05-02T14:22:38Z</time>
        <name>WPT.157</name>
      </trkpt>
      <trkpt lat="35.226946130" lon="-106.480764040">
        <ele>2126.000</ele>
        <time>2019-05-02T14:22:44Z</time>
        <name>WPT.158</name>
      </trkpt>
      <trkpt lat="35.226973620" lon="-106.480732910">
        <ele>2126.000</ele>
        <time>2019-05-02T14:22:49Z</time>
        <name>WPT.159</name>
      </trkpt>
      <trkpt lat="35.227007690" lon="-106.480705660">
        <ele>2124.000</ele>
        <time>2019-05-02T14:22:54Z</time>
        <name>WPT.160</name>
      </trkpt>
      <trkpt lat="35.227031080" lon="-106.480743730">
        <ele>2129.000</ele>
        <time>2019-05-02T14:23:03Z</time>
        <name>WPT.161</name>
      </trkpt>
      <trkpt lat="35.227029960" lon="-106.480787940">
        <ele>2125.000</ele>
        <time>2019-05-02T14:23:13Z</time>
        <name>WPT.162</name>
      </trkpt>
      <trkpt lat="35.227028200" lon="-106.480833180">
        <ele>2122.000</ele>
        <time>2019-05-02T14:23:18Z</time>
        <name>WPT.163</name>
      </trkpt>
      <trkpt lat="35.227045400" lon="-106.480873720">
        <ele>2125.000</ele>
        <time>2019-05-02T14:23:23Z</time>
        <name>WPT.164</name>
      </trkpt>
      <trkpt lat="35.227075250" lon="-106.480905070">
        <ele>2125.000</ele>
        <time>2019-05-02T14:23:29Z</time>
        <name>WPT.165</name>
      </trkpt>
      <trkpt lat="35.227092420" lon="-106.480946190">
        <ele>2126.000</ele>
        <time>2019-05-02T14:23:35Z</time>
        <name>WPT.166</name>
      </trkpt>
      <trkpt lat="35.227106650" lon="-106.480989430">
        <ele>2127.000</ele>
        <time>2019-05-02T14:23:39Z</time>
        <name>WPT.167</name>
      </trkpt>
      <trkpt lat="35.227135540" lon="-106.481020430">
        <ele>2127.000</ele>
        <time>2019-05-02T14:23:43Z</time>
        <name>WPT.168</name>
      </trkpt>
      <trkpt lat="35.227162890" lon="-106.481055700">
        <ele>2127.000</ele>
        <time>2019-05-02T14:23:47Z</time>
        <name>WPT.169</name>
      </trkpt>
      <trkpt lat="35.227194650" lon="-106.481084610">
        <ele>2126.000</ele>
        <time>2019-05-02T14:23:51Z</time>
        <name>WPT.170</name>
      </trkpt>
      <trkpt lat="35.227220940" lon="-106.481125390">
        <ele>2128.000</ele>
        <time>2019-05-02T14:23:56Z</time>
        <name>WPT.171</name>
      </trkpt>
      <trkpt lat="35.227260510" lon="-106.481145830">
        <ele>2130.000</ele>
        <time>2019-05-02T14:24:01Z</time>
        <name>WPT.172</name>
      </trkpt>
      <trkpt lat="35.227300930" lon="-106.481173230">
        <ele>2131.000</ele>
        <time>2019-05-02T14:24:06Z</time>
        <name>WPT.173</name>
      </trkpt>
      <trkpt lat="35.227337600" lon="-106.481175740">
        <ele>2130.000</ele>
        <time>2019-05-02T14:24:10Z</time>
        <name>WPT.174</name>
      </trkpt>
      <trkpt lat="35.227381850" lon="-106.481182520">
        <ele>2131.000</ele>
        <time>2019-05-02T14:24:46Z</time>
        <name>WPT.175</name>
      </trkpt>
      <trkpt lat="35.227423630" lon="-106.481204260">
        <ele>2131.000</ele>
        <time>2019-05-02T14:24:50Z</time>
        <name>WPT.176</name>
      </trkpt>
      <trkpt lat="35.227452580" lon="-106.481230800">
        <ele>2131.000</ele>
        <time>2019-05-02T14:24:54Z</time>
        <name>WPT.177</name>
      </trkpt>
      <trkpt lat="35.227487840" lon="-106.481251020">
        <ele>2132.000</ele>
        <time>2019-05-02T14:24:59Z</time>
        <name>WPT.178</name>
      </trkpt>
      <trkpt lat="35.227525970" lon="-106.481267360">
        <ele>2134.000</ele>
        <time>2019-05-02T14:25:04Z</time>
        <name>WPT.179</name>
      </trkpt>
      <trkpt lat="35.227563260" lon="-106.481290330">
        <ele>2135.000</ele>
        <time>2019-05-02T14:25:09Z</time>
        <name>WPT.180</name>
      </trkpt>
      <trkpt lat="35.227594420" lon="-106.481323630">
        <ele>2136.000</ele>
        <time>2019-05-02T14:25:12Z</time>
        <name>WPT.181</name>
      </trkpt>
      <trkpt lat="35.227619160" lon="-106.481367520">
        <ele>2138.000</ele>
        <time>2019-05-02T14:25:18Z</time>
        <name>WPT.182</name>
      </trkpt>
      <trkpt lat="35.227656790" lon="-106.481382180">
        <ele>2138.000</ele>
        <time>2019-05-02T14:25:22Z</time>
        <name>WPT.183</name>
      </trkpt>
      <trkpt lat="35.227699060" lon="-106.481391710">
        <ele>2139.000</ele>
        <time>2019-05-02T14:25:27Z</time>
        <name>WPT.184</name>
      </trkpt>
      <trkpt lat="35.227735590" lon="-106.481391660">
        <ele>2140.000</ele>
        <time>2019-05-02T14:25:31Z</time>
        <name>WPT.185</name>
      </trkpt>
      <trkpt lat="35.227773680" lon="-106.481402570">
        <ele>2140.000</ele>
        <time>2019-05-02T14:25:35Z</time>
        <name>WPT.186</name>
      </trkpt>
      <trkpt lat="35.227811750" lon="-106.481424250">
        <ele>2140.000</ele>
        <time>2019-05-02T14:25:39Z</time>
        <name>WPT.187</name>
      </trkpt>
      <trkpt lat="35.227848310" lon="-106.481448100">
        <ele>2140.000</ele>
        <time>2019-05-02T14:25:44Z</time>
        <name>WPT.188</name>
      </trkpt>
      <trkpt lat="35.227874470" lon="-106.481417240">
        <ele>2138.000</ele>
        <time>2019-05-02T14:25:55Z</time>
        <name>WPT.189</name>
      </trkpt>
      <trkpt lat="35.227909590" lon="-106.481398610">
        <ele>2136.000</ele>
        <time>2019-05-02T14:26:19Z</time>
        <name>WPT.190</name>
      </trkpt>
      <trkpt lat="35.227950350" lon="-106.481401840">
        <ele>2136.000</ele>
        <time>2019-05-02T14:26:23Z</time>
        <name>WPT.191</name>
      </trkpt>
      <trkpt lat="35.227982980" lon="-106.481426930">
        <ele>2139.000</ele>
        <time>2019-05-02T14:26:27Z</time>
        <name>WPT.192</name>
      </trkpt>
      <trkpt lat="35.228027150" lon="-106.481435390">
        <ele>2140.000</ele>
        <time>2019-05-02T14:26:32Z</time>
        <name>WPT.193</name>
      </trkpt>
      <trkpt lat="35.228075180" lon="-106.481412590">
        <ele>2139.000</ele>
        <time>2019-05-02T14:26:35Z</time>
        <name>WPT.194</name>
      </trkpt>
      <trkpt lat="35.228116120" lon="-106.481406440">
        <ele>2138.000</ele>
        <time>2019-05-02T14:26:39Z</time>
        <name>WPT.195</name>
      </trkpt>
      <trkpt lat="35.228151350" lon="-106.481377080">
        <ele>2137.000</ele>
        <time>2019-05-02T14:26:43Z</time>
        <name>WPT.196</name>
      </trkpt>
      <trkpt lat="35.228182990" lon="-106.481355940">
        <ele>2135.000</ele>
        <time>2019-05-02T14:26:46Z</time>
        <name>WPT.197</name>
      </trkpt>
      <trkpt lat="35.228216900" lon="-106.481332220">
        <ele>2136.000</ele>
        <time>2019-05-02T14:26:50Z</time>
        <name>WPT.198</name>
      </trkpt>
      <trkpt lat="35.228252700" lon="-106.481320950">
        <ele>2135.000</ele>
        <time>2019-05-02T14:26:54Z</time>
        <name>WPT.199</name>
      </trkpt>
      <trkpt lat="35.228289830" lon="-106.481307590">
        <ele>2138.000</ele>
        <time>2019-05-02T14:27:00Z</time>
        <name>WPT.200</name>
      </trkpt>
      <trkpt lat="35.228324010" lon="-106.481286320">
        <ele>2138.000</ele>
        <time>2019-05-02T14:27:03Z</time>
        <name>WPT.201</name>
      </trkpt>
      <trkpt lat="35.228369650" lon="-106.481266610">
        <ele>2139.000</ele>
        <time>2019-05-02T14:27:09Z</time>
        <name>WPT.202</name>
      </trkpt>
      <trkpt lat="35.228403480" lon="-106.481229090">
        <ele>2138.000</ele>
        <time>2019-05-02T14:27:15Z</time>
        <name>WPT.203</name>
      </trkpt>
      <trkpt lat="35.228451650" lon="-106.481235700">
        <ele>2139.000</ele>
        <time>2019-05-02T14:27:18Z</time>
        <name>WPT.204</name>
      </trkpt>
      <trkpt lat="35.228483540" lon="-106.481214390">
        <ele>2137.000</ele>
        <time>2019-05-02T14:27:32Z</time>
        <name>WPT.205</name>
      </trkpt>
      <trkpt lat="35.228519740" lon="-106.481199190">
        <ele>2138.000</ele>
        <time>2019-05-02T14:27:42Z</time>
        <name>WPT.206</name>
      </trkpt>
      <trkpt lat="35.228564840" lon="-106.481181830">
        <ele>2141.000</ele>
        <time>2019-05-02T14:27:48Z</time>
        <name>WPT.207</name>
      </trkpt>
      <trkpt lat="35.228602350" lon="-106.481166930">
        <ele>2142.000</ele>
        <time>2019-05-02T14:27:52Z</time>
        <name>WPT.208</name>
      </trkpt>
      <trkpt lat="35.228644730" lon="-106.481179110">
        <ele>2142.000</ele>
        <time>2019-05-02T14:27:57Z</time>
        <name>WPT.209</name>
      </trkpt>
      <trkpt lat="35.228673370" lon="-106.481215470">
        <ele>2144.000</ele>
        <time>2019-05-02T14:28:02Z</time>
        <name>WPT.210</name>
      </trkpt>
      <trkpt lat="35.228707580" lon="-106.481242360">
        <ele>2147.000</ele>
        <time>2019-05-02T14:28:08Z</time>
        <name>WPT.211</name>
      </trkpt>
      <trkpt lat="35.228751480" lon="-106.481251150">
        <ele>2147.000</ele>
        <time>2019-05-02T14:28:13Z</time>
        <name>WPT.212</name>
      </trkpt>
      <trkpt lat="35.228786220" lon="-106.481271180">
        <ele>2148.000</ele>
        <time>2019-05-02T14:28:18Z</time>
        <name>WPT.213</name>
      </trkpt>
      <trkpt lat="35.228832300" lon="-106.481266880">
        <ele>2149.000</ele>
        <time>2019-05-02T14:28:22Z</time>
        <name>WPT.214</name>
      </trkpt>
      <trkpt lat="35.228866630" lon="-106.481250290">
        <ele>2149.000</ele>
        <time>2019-05-02T14:28:25Z</time>
        <name>WPT.215</name>
      </trkpt>
      <trkpt lat="35.228905820" lon="-106.481234840">
        <ele>2148.000</ele>
        <time>2019-05-02T14:28:28Z</time>
        <name>WPT.216</name>
      </trkpt>
      <trkpt lat="35.228949020" lon="-106.481228690">
        <ele>2149.000</ele>
        <time>2019-05-02T14:28:32Z</time>
        <name>WPT.217</name>
      </trkpt>
      <trkpt lat="35.228986320" lon="-106.481222420">
        <ele>2148.000</ele>
        <time>2019-05-02T14:28:37Z</time>
        <name>WPT.218</name>
      </trkpt>
      <trkpt lat="35.229018010" lon="-106.481198190">
        <ele>2148.000</ele>
        <time>2019-05-02T14:28:40Z</time>
        <name>WPT.219</name>
      </trkpt>
      <trkpt lat="35.229058230" lon="-106.481191370">
        <ele>2150.000</ele>
        <time>2019-05-02T14:28:45Z</time>
        <name>WPT.220</name>
      </trkpt>
      <trkpt lat="35.229094960" lon="-106.481173900">
        <ele>2148.000</ele>
        <time>2019-05-02T14:28:49Z</time>
        <name>WPT.221</name>
      </trkpt>
      <trkpt lat="35.229129720" lon="-106.481160460">
        <ele>2147.000</ele>
        <time>2019-05-02T14:28:52Z</time>
        <name>WPT.222</name>
      </trkpt>
      <trkpt lat="35.229157920" lon="-106.481131020">
        <ele>2147.000</ele>
        <time>2019-05-02T14:28:56Z</time>
        <name>WPT.223</name>
      </trkpt>
      <trkpt lat="35.229198150" lon="-106.481101580">
        <ele>2148.000</ele>
        <time>2019-05-02T14:29:01Z</time>
        <name>WPT.224</name>
      </trkpt>
      <trkpt lat="35.229224450" lon="-106.481065020">
        <ele>2148.000</ele>
        <time>2019-05-02T14:29:06Z</time>
        <name>WPT.225</name>
      </trkpt>
      <trkpt lat="35.229265290" lon="-106.481048930">
        <ele>2148.000</ele>
        <time>2019-05-02T14:29:10Z</time>
        <name>WPT.226</name>
      </trkpt>
      <trkpt lat="35.229303540" lon="-106.481056440">
        <ele>2150.000</ele>
        <time>2019-05-02T14:29:16Z</time>
        <name>WPT.227</name>
      </trkpt>
      <trkpt lat="35.229342970" lon="-106.481048830">
        <ele>2151.000</ele>
        <time>2019-05-02T14:29:20Z</time>
        <name>WPT.228</name>
      </trkpt>
      <trkpt lat="35.229383180" lon="-106.481020070">
        <ele>2152.000</ele>
        <time>2019-05-02T14:29:24Z</time>
        <name>WPT.229</name>
      </trkpt>
      <trkpt lat="35.229418990" lon="-106.480994410">
        <ele>2152.000</ele>
        <time>2019-05-02T14:29:29Z</time>
        <name>WPT.230</name>
      </trkpt>
      <trkpt lat="35.229462450" lon="-106.480956590">
        <ele>2151.000</ele>
        <time>2019-05-02T14:29:34Z</time>
        <name>WPT.231</name>
      </trkpt>
      <trkpt lat="35.229506050" lon="-106.480960650">
        <ele>2154.000</ele>
        <time>2019-05-02T14:29:40Z</time>
        <name>WPT.232</name>
      </trkpt>
      <trkpt lat="35.229543750" lon="-106.480946540">
        <ele>2153.000</ele>
        <time>2019-05-02T14:29:44Z</time>
        <name>WPT.233</name>
      </trkpt>
      <trkpt lat="35.229593250" lon="-106.480941270">
        <ele>2154.000</ele>
        <time>2019-05-02T14:29:49Z</time>
        <name>WPT.234</name>
      </trkpt>
      <trkpt lat="35.229630790" lon="-106.480957380">
        <ele>2154.000</ele>
        <time>2019-05-02T14:29:55Z</time>
        <name>WPT.235</name>
      </trkpt>
      <trkpt lat="35.229661110" lon="-106.480993970">
        <ele>2154.000</ele>
        <time>2019-05-02T14:30:00Z</time>
        <name>WPT.236</name>
      </trkpt>
      <trkpt lat="35.229678670" lon="-106.481038380">
        <ele>2157.000</ele>
        <time>2019-05-02T14:30:04Z</time>
        <name>WPT.237</name>
      </trkpt>
      <trkpt lat="35.229714110" lon="-106.481026910">
        <ele>2151.000</ele>
        <time>2019-05-02T14:30:27Z</time>
        <name>WPT.238</name>
      </trkpt>
      <trkpt lat="35.229723210" lon="-106.481069970">
        <ele>2150.000</ele>
        <time>2019-05-02T14:30:34Z</time>
        <name>WPT.239</name>
      </trkpt>
      <trkpt lat="35.229758130" lon="-106.481091290">
        <ele>2153.000</ele>
        <time>2019-05-02T14:30:39Z</time>
        <name>WPT.240</name>
      </trkpt>
      <trkpt lat="35.229792760" lon="-106.481074640">
        <ele>2151.000</ele>
        <time>2019-05-02T14:31:00Z</time>
        <name>WPT.241</name>
      </trkpt>
      <trkpt lat="35.229814800" lon="-106.481037620">
        <ele>2153.000</ele>
        <time>2019-05-02T14:31:16Z</time>
        <name>WPT.242</name>
      </trkpt>
      <trkpt lat="35.229831900" lon="-106.480989040">
        <ele>2154.000</ele>
        <time>2019-05-02T14:31:25Z</time>
        <name>WPT.243</name>
      </trkpt>
      <trkpt lat="35.229864600" lon="-106.480949460">
        <ele>2155.000</ele>
        <time>2019-05-02T14:31:31Z</time>
        <name>WPT.244</name>
      </trkpt>
      <trkpt lat="35.229881790" lon="-106.480898960">
        <ele>2157.000</ele>
        <time>2019-05-02T14:31:36Z</time>
        <name>WPT.245</name>
      </trkpt>
      <trkpt lat="35.229905270" lon="-106.480859740">
        <ele>2155.000</ele>
        <time>2019-05-02T14:31:40Z</time>
        <name>WPT.246</name>
      </trkpt>
      <trkpt lat="35.229930270" lon="-106.480811580">
        <ele>2153.000</ele>
        <time>2019-05-02T14:31:44Z</time>
        <name>WPT.247</name>
      </trkpt>
      <trkpt lat="35.229960200" lon="-106.480776690">
        <ele>2155.000</ele>
        <time>2019-05-02T14:31:49Z</time>
        <name>WPT.248</name>
      </trkpt>
      <trkpt lat="35.229988840" lon="-106.480748860">
        <ele>2152.000</ele>
        <time>2019-05-02T14:31:52Z</time>
        <name>WPT.249</name>
      </trkpt>
      <trkpt lat="35.230017790" lon="-106.480706890">
        <ele>2152.000</ele>
        <time>2019-05-02T14:31:58Z</time>
        <name>WPT.250</name>
      </trkpt>
      <trkpt lat="35.230057640" lon="-106.480679970">
        <ele>2152.000</ele>
        <time>2019-05-02T14:32:04Z</time>
        <name>WPT.251</name>
      </trkpt>
      <trkpt lat="35.230102090" lon="-106.480665690">
        <ele>2153.000</ele>
        <time>2019-05-02T14:32:09Z</time>
        <name>WPT.252</name>
      </trkpt>
      <trkpt lat="35.230137110" lon="-106.480652480">
        <ele>2154.000</ele>
        <time>2019-05-02T14:32:12Z</time>
        <name>WPT.253</name>
      </trkpt>
      <trkpt lat="35.230167390" lon="-106.480627980">
        <ele>2153.000</ele>
        <time>2019-05-02T14:32:17Z</time>
        <name>WPT.254</name>
      </trkpt>
      <trkpt lat="35.230200080" lon="-106.480599570">
        <ele>2149.000</ele>
        <time>2019-05-02T14:32:21Z</time>
        <name>WPT.255</name>
      </trkpt>
      <trkpt lat="35.230233130" lon="-106.480577980">
        <ele>2149.000</ele>
        <time>2019-05-02T14:32:26Z</time>
        <name>WPT.256</name>
      </trkpt>
      <trkpt lat="35.230271110" lon="-106.480559100">
        <ele>2150.000</ele>
        <time>2019-05-02T14:32:31Z</time>
        <name>WPT.257</name>
      </trkpt>
      <trkpt lat="35.230306460" lon="-106.480545170">
        <ele>2150.000</ele>
        <time>2019-05-02T14:32:35Z</time>
        <name>WPT.258</name>
      </trkpt>
      <trkpt lat="35.230340740" lon="-106.480523160">
        <ele>2147.000</ele>
        <time>2019-05-02T14:32:38Z</time>
        <name>WPT.259</name>
      </trkpt>
      <trkpt lat="35.230376500" lon="-106.480498580">
        <ele>2146.000</ele>
        <time>2019-05-02T14:32:42Z</time>
        <name>WPT.260</name>
      </trkpt>
      <trkpt lat="35.230398080" lon="-106.480462880">
        <ele>2146.000</ele>
        <time>2019-05-02T14:32:46Z</time>
        <name>WPT.261</name>
      </trkpt>
      <trkpt lat="35.230435450" lon="-106.480425280">
        <ele>2148.000</ele>
        <time>2019-05-02T14:32:52Z</time>
        <name>WPT.262</name>
      </trkpt>
      <trkpt lat="35.230453600" lon="-106.480386380">
        <ele>2148.000</ele>
        <time>2019-05-02T14:32:56Z</time>
        <name>WPT.263</name>
      </trkpt>
      <trkpt lat="35.230461950" lon="-106.480336570">
        <ele>2150.000</ele>
        <time>2019-05-02T14:33:01Z</time>
        <name>WPT.264</name>
      </trkpt>
      <trkpt lat="35.230470040" lon="-106.480291270">
        <ele>2149.000</ele>
        <time>2019-05-02T14:33:05Z</time>
        <name>WPT.265</name>
      </trkpt>
      <trkpt lat="35.230477640" lon="-106.480243900">
        <ele>2149.000</ele>
        <time>2019-05-02T14:33:13Z</time>
        <name>WPT.266</name>
      </trkpt>
      <trkpt lat="35.230496240" lon="-106.480193750">
        <ele>2149.000</ele>
        <time>2019-05-02T14:33:21Z</time>
        <name>WPT.267</name>
      </trkpt>
      <trkpt lat="35.230527960" lon="-106.480147350">
        <ele>2147.000</ele>
        <time>2019-05-02T14:33:28Z</time>
        <name>WPT.268</name>
      </trkpt>
      <trkpt lat="35.230539780" lon="-106.480096950">
        <ele>2146.000</ele>
        <time>2019-05-02T14:33:32Z</time>
        <name>WPT.269</name>
      </trkpt>
      <trkpt lat="35.230569240" lon="-106.480071450">
        <ele>2147.000</ele>
        <time>2019-05-02T14:33:35Z</time>
        <name>WPT.270</name>
      </trkpt>
      <trkpt lat="35.230611880" lon="-106.480044900">
        <ele>2148.000</ele>
        <time>2019-05-02T14:33:39Z</time>
        <name>WPT.271</name>
      </trkpt>
      <trkpt lat="35.230616620" lon="-106.479998480">
        <ele>2148.000</ele>
        <time>2019-05-02T14:33:45Z</time>
        <name>WPT.272</name>
      </trkpt>
      <trkpt lat="35.230612500" lon="-106.479942640">
        <ele>2148.000</ele>
        <time>2019-05-02T14:33:50Z</time>
        <name>WPT.273</name>
      </trkpt>
      <trkpt lat="35.230636320" lon="-106.479894370">
        <ele>2147.000</ele>
        <time>2019-05-02T14:33:54Z</time>
        <name>WPT.274</name>
      </trkpt>
      <trkpt lat="35.230641710" lon="-106.479844320">
        <ele>2145.000</ele>
        <time>2019-05-02T14:33:58Z</time>
        <name>WPT.275</name>
      </trkpt>
      <trkpt lat="35.230642180" lon="-106.479790130">
        <ele>2145.000</ele>
        <time>2019-05-02T14:34:03Z</time>
        <name>WPT.276</name>
      </trkpt>
      <trkpt lat="35.230671560" lon="-106.479758380">
        <ele>2145.000</ele>
        <time>2019-05-02T14:34:08Z</time>
        <name>WPT.277</name>
      </trkpt>
      <trkpt lat="35.230706150" lon="-106.479710020">
        <ele>2143.000</ele>
        <time>2019-05-02T14:34:12Z</time>
        <name>WPT.278</name>
      </trkpt>
      <trkpt lat="35.230732470" lon="-106.479671590">
        <ele>2136.000</ele>
        <time>2019-05-02T14:35:04Z</time>
        <name>WPT.279</name>
      </trkpt>
      <trkpt lat="35.230759570" lon="-106.479642420">
        <ele>2135.000</ele>
        <time>2019-05-02T14:35:07Z</time>
        <name>WPT.280</name>
      </trkpt>
      <trkpt lat="35.230803720" lon="-106.479621820">
        <ele>2137.000</ele>
        <time>2019-05-02T14:35:14Z</time>
        <name>WPT.281</name>
      </trkpt>
      <trkpt lat="35.230847230" lon="-106.479593810">
        <ele>2135.000</ele>
        <time>2019-05-02T14:35:17Z</time>
        <name>WPT.282</name>
      </trkpt>
      <trkpt lat="35.230886680" lon="-106.479596180">
        <ele>2139.000</ele>
        <time>2019-05-02T14:35:20Z</time>
        <name>WPT.283</name>
      </trkpt>
      <trkpt lat="35.230921650" lon="-106.479607530">
        <ele>2140.000</ele>
        <time>2019-05-02T14:35:26Z</time>
        <name>WPT.284</name>
      </trkpt>
      <trkpt lat="35.230958190" lon="-106.479596810">
        <ele>2141.000</ele>
        <time>2019-05-02T14:35:37Z</time>
        <name>WPT.285</name>
      </trkpt>
      <trkpt lat="35.230992170" lon="-106.479563570">
        <ele>2142.000</ele>
        <time>2019-05-02T14:35:53Z</time>
        <name>WPT.286</name>
      </trkpt>
      <trkpt lat="35.231030890" lon="-106.479541650">
        <ele>2143.000</ele>
        <time>2019-05-02T14:35:59Z</time>
        <name>WPT.287</name>
      </trkpt>
      <trkpt lat="35.231072130" lon="-106.479515580">
        <ele>2143.000</ele>
        <time>2019-05-02T14:36:04Z</time>
        <name>WPT.288</name>
      </trkpt>
      <trkpt lat="35.231106360" lon="-106.479493220">
        <ele>2143.000</ele>
        <time>2019-05-02T14:36:09Z</time>
        <name>WPT.289</name>
      </trkpt>
      <trkpt lat="35.231140580" lon="-106.479479270">
        <ele>2144.000</ele>
        <time>2019-05-02T14:36:14Z</time>
        <name>WPT.290</name>
      </trkpt>
      <trkpt lat="35.231177680" lon="-106.479464930">
        <ele>2144.000</ele>
        <time>2019-05-02T14:36:19Z</time>
        <name>WPT.291</name>
      </trkpt>
      <trkpt lat="35.231216080" lon="-106.479481480">
        <ele>2144.000</ele>
        <time>2019-05-02T14:36:26Z</time>
        <name>WPT.292</name>
      </trkpt>
      <trkpt lat="35.231260940" lon="-106.479478170">
        <ele>2145.000</ele>
        <time>2019-05-02T14:36:30Z</time>
        <name>WPT.293</name>
      </trkpt>
      <trkpt lat="35.231306350" lon="-106.479481600">
        <ele>2144.000</ele>
        <time>2019-05-02T14:36:34Z</time>
        <name>WPT.294</name>
      </trkpt>
      <trkpt lat="35.231349330" lon="-106.479491490">
        <ele>2149.000</ele>
        <time>2019-05-02T14:36:41Z</time>
        <name>WPT.295</name>
      </trkpt>
      <trkpt lat="35.231381760" lon="-106.479460840">
        <ele>2146.000</ele>
        <time>2019-05-02T14:36:44Z</time>
        <name>WPT.296</name>
      </trkpt>
      <trkpt lat="35.231427370" lon="-106.479453960">
        <ele>2147.000</ele>
        <time>2019-05-02T14:36:50Z</time>
        <name>WPT.297</name>
      </trkpt>
      <trkpt lat="35.231459970" lon="-106.479472830">
        <ele>2151.000</ele>
        <time>2019-05-02T14:36:54Z</time>
        <name>WPT.298</name>
      </trkpt>
      <trkpt lat="35.231489960" lon="-106.479445840">
        <ele>2151.000</ele>
        <time>2019-05-02T14:36:59Z</time>
        <name>WPT.299</name>
      </trkpt>
      <trkpt lat="35.231517220" lon="-106.479402470">
        <ele>2152.000</ele>
        <time>2019-05-02T14:37:04Z</time>
        <name>WPT.300</name>
      </trkpt>
      <trkpt lat="35.231539660" lon="-106.479363400">
        <ele>2152.000</ele>
        <time>2019-05-02T14:37:08Z</time>
        <name>WPT.301</name>
      </trkpt>
      <trkpt lat="35.231572700" lon="-106.479336040">
        <ele>2153.000</ele>
        <time>2019-05-02T14:37:12Z</time>
        <name>WPT.302</name>
      </trkpt>
      <trkpt lat="35.231608370" lon="-106.479312010">
        <ele>2154.000</ele>
        <time>2019-05-02T14:37:17Z</time>
        <name>WPT.303</name>
      </trkpt>
      <trkpt lat="35.231643360" lon="-106.479285820">
        <ele>2155.000</ele>
        <time>2019-05-02T14:37:23Z</time>
        <name>WPT.304</name>
      </trkpt>
      <trkpt lat="35.231668540" lon="-106.479249310">
        <ele>2154.000</ele>
        <time>2019-05-02T14:37:27Z</time>
        <name>WPT.305</name>
      </trkpt>
      <trkpt lat="35.231686810" lon="-106.479211170">
        <ele>2154.000</ele>
        <time>2019-05-02T14:37:32Z</time>
        <name>WPT.306</name>
      </trkpt>
      <trkpt lat="35.231711480" lon="-106.479166380">
        <ele>2155.000</ele>
        <time>2019-05-02T14:37:38Z</time>
        <name>WPT.307</name>
      </trkpt>
      <trkpt lat="35.231741640" lon="-106.479137400">
        <ele>2155.000</ele>
        <time>2019-05-02T14:37:42Z</time>
        <name>WPT.308</name>
      </trkpt>
      <trkpt lat="35.231748420" lon="-106.479090390">
        <ele>2154.000</ele>
        <time>2019-05-02T14:37:48Z</time>
        <name>WPT.309</name>
      </trkpt>
      <trkpt lat="35.231770430" lon="-106.479045110">
        <ele>2156.000</ele>
        <time>2019-05-02T14:37:54Z</time>
        <name>WPT.310</name>
      </trkpt>
      <trkpt lat="35.231801560" lon="-106.479008770">
        <ele>2156.000</ele>
        <time>2019-05-02T14:38:01Z</time>
        <name>WPT.311</name>
      </trkpt>
      <trkpt lat="35.231819020" lon="-106.478970260">
        <ele>2156.000</ele>
        <time>2019-05-02T14:38:11Z</time>
        <name>WPT.312</name>
      </trkpt>
      <trkpt lat="35.231857630" lon="-106.478970680">
        <ele>2157.000</ele>
        <time>2019-05-02T14:38:21Z</time>
        <name>WPT.313</name>
      </trkpt>
      <trkpt lat="35.231879000" lon="-106.478934850">
        <ele>2159.000</ele>
        <time>2019-05-02T14:38:27Z</time>
        <name>WPT.314</name>
      </trkpt>
      <trkpt lat="35.231902910" lon="-106.478893710">
        <ele>2160.000</ele>
        <time>2019-05-02T14:38:33Z</time>
        <name>WPT.315</name>
      </trkpt>
      <trkpt lat="35.231921630" lon="-106.478849890">
        <ele>2159.000</ele>
        <time>2019-05-02T14:39:05Z</time>
        <name>WPT.316</name>
      </trkpt>
      <trkpt lat="35.231961770" lon="-106.478832640">
        <ele>2161.000</ele>
        <time>2019-05-02T14:39:10Z</time>
        <name>WPT.317</name>
      </trkpt>
      <trkpt lat="35.232001080" lon="-106.478823890">
        <ele>2162.000</ele>
        <time>2019-05-02T14:39:16Z</time>
        <name>WPT.318</name>
      </trkpt>
      <trkpt lat="35.232038950" lon="-106.478804930">
        <ele>2163.000</ele>
        <time>2019-05-02T14:39:21Z</time>
        <name>WPT.319</name>
      </trkpt>
      <trkpt lat="35.232072550" lon="-106.478787700">
        <ele>2164.000</ele>
        <time>2019-05-02T14:39:25Z</time>
        <name>WPT.320</name>
      </trkpt>
      <trkpt lat="35.232102830" lon="-106.478752930">
        <ele>2165.000</ele>
        <time>2019-05-02T14:39:30Z</time>
        <name>WPT.321</name>
      </trkpt>
      <trkpt lat="35.232147410" lon="-106.478758510">
        <ele>2170.000</ele>
        <time>2019-05-02T14:39:38Z</time>
        <name>WPT.322</name>
      </trkpt>
      <trkpt lat="35.232186040" lon="-106.478741390">
        <ele>2170.000</ele>
        <time>2019-05-02T14:39:42Z</time>
        <name>WPT.323</name>
      </trkpt>
      <trkpt lat="35.232213660" lon="-106.478709530">
        <ele>2170.000</ele>
        <time>2019-05-02T14:39:46Z</time>
        <name>WPT.324</name>
      </trkpt>
      <trkpt lat="35.232252470" lon="-106.478680150">
        <ele>2171.000</ele>
        <time>2019-05-02T14:39:51Z</time>
        <name>WPT.325</name>
      </trkpt>
      <trkpt lat="35.232281190" lon="-106.478638070">
        <ele>2171.000</ele>
        <time>2019-05-02T14:39:55Z</time>
        <name>WPT.326</name>
      </trkpt>
      <trkpt lat="35.232317850" lon="-106.478618810">
        <ele>2172.000</ele>
        <time>2019-05-02T14:40:00Z</time>
        <name>WPT.327</name>
      </trkpt>
      <trkpt lat="35.232357840" lon="-106.478601420">
        <ele>2171.000</ele>
        <time>2019-05-02T14:40:05Z</time>
        <name>WPT.328</name>
      </trkpt>
      <trkpt lat="35.232384230" lon="-106.478571030">
        <ele>2171.000</ele>
        <time>2019-05-02T14:40:09Z</time>
        <name>WPT.329</name>
      </trkpt>
      <trkpt lat="35.232409310" lon="-106.478537680">
        <ele>2172.000</ele>
        <time>2019-05-02T14:40:13Z</time>
        <name>WPT.330</name>
      </trkpt>
      <trkpt lat="35.232449420" lon="-106.478521900">
        <ele>2172.000</ele>
        <time>2019-05-02T14:40:19Z</time>
        <name>WPT.331</name>
      </trkpt>
      <trkpt lat="35.232484950" lon="-106.478501290">
        <ele>2172.000</ele>
        <time>2019-05-02T14:40:23Z</time>
        <name>WPT.332</name>
      </trkpt>
      <trkpt lat="35.232522350" lon="-106.478496580">
        <ele>2172.000</ele>
        <time>2019-05-02T14:40:27Z</time>
        <name>WPT.333</name>
      </trkpt>
      <trkpt lat="35.232561370" lon="-106.478505540">
        <ele>2173.000</ele>
        <time>2019-05-02T14:40:31Z</time>
        <name>WPT.334</name>
      </trkpt>
      <trkpt lat="35.232600370" lon="-106.478518130">
        <ele>2172.000</ele>
        <time>2019-05-02T14:40:38Z</time>
        <name>WPT.335</name>
      </trkpt>
      <trkpt lat="35.232628720" lon="-106.478548580">
        <ele>2171.000</ele>
        <time>2019-05-02T14:40:43Z</time>
        <name>WPT.336</name>
      </trkpt>
      <trkpt lat="35.232655040" lon="-106.478581800">
        <ele>2175.000</ele>
        <time>2019-05-02T14:40:49Z</time>
        <name>WPT.337</name>
      </trkpt>
      <trkpt lat="35.232691320" lon="-106.478602030">
        <ele>2175.000</ele>
        <time>2019-05-02T14:40:55Z</time>
        <name>WPT.338</name>
      </trkpt>
      <trkpt lat="35.232702050" lon="-106.478647380">
        <ele>2174.000</ele>
        <time>2019-05-02T14:40:59Z</time>
        <name>WPT.339</name>
      </trkpt>
      <trkpt lat="35.232716720" lon="-106.478694470">
        <ele>2174.000</ele>
        <time>2019-05-02T14:41:04Z</time>
        <name>WPT.340</name>
      </trkpt>
      <trkpt lat="35.232730370" lon="-106.478754090">
        <ele>2183.000</ele>
        <time>2019-05-02T14:42:03Z</time>
        <name>WPT.341</name>
      </trkpt>
      <trkpt lat="35.232740810" lon="-106.478797160">
        <ele>2183.000</ele>
        <time>2019-05-02T14:42:09Z</time>
        <name>WPT.342</name>
      </trkpt>
      <trkpt lat="35.232768290" lon="-106.478829600">
        <ele>2182.000</ele>
        <time>2019-05-02T14:42:15Z</time>
        <name>WPT.343</name>
      </trkpt>
      <trkpt lat="35.232787890" lon="-106.478869170">
        <ele>2183.000</ele>
        <time>2019-05-02T14:42:22Z</time>
        <name>WPT.344</name>
      </trkpt>
      <trkpt lat="35.232802690" lon="-106.478910750">
        <ele>2183.000</ele>
        <time>2019-05-02T14:42:26Z</time>
        <name>WPT.345</name>
      </trkpt>
      <trkpt lat="35.232830040" lon="-106.478946530">
        <ele>2183.000</ele>
        <time>2019-05-02T14:42:30Z</time>
        <name>WPT.346</name>
      </trkpt>
      <trkpt lat="35.232856600" lon="-106.478996400">
        <ele>2184.000</ele>
        <time>2019-05-02T14:42:34Z</time>
        <name>WPT.347</name>
      </trkpt>
      <trkpt lat="35.232866910" lon="-106.479040400">
        <ele>2182.000</ele>
        <time>2019-05-02T14:42:39Z</time>
        <name>WPT.348</name>
      </trkpt>
      <trkpt lat="35.232869430" lon="-106.479088830">
        <ele>2183.000</ele>
        <time>2019-05-02T14:42:44Z</time>
        <name>WPT.349</name>
      </trkpt>
      <trkpt lat="35.232870320" lon="-106.479134450">
        <ele>2184.000</ele>
        <time>2019-05-02T14:42:48Z</time>
        <name>WPT.350</name>
      </trkpt>
      <trkpt lat="35.232870820" lon="-106.479184590">
        <ele>2185.000</ele>
        <time>2019-05-02T14:42:53Z</time>
        <name>WPT.351</name>
      </trkpt>
      <trkpt lat="35.232859560" lon="-106.479232410">
        <ele>2185.000</ele>
        <time>2019-05-02T14:42:59Z</time>
        <name>WPT.352</name>
      </trkpt>
      <trkpt lat="35.232846240" lon="-106.479279160">
        <ele>2187.000</ele>
        <time>2019-05-02T14:43:03Z</time>
        <name>WPT.353</name>
      </trkpt>
      <trkpt lat="35.232836400" lon="-106.479325940">
        <ele>2188.000</ele>
        <time>2019-05-02T14:43:07Z</time>
        <name>WPT.354</name>
      </trkpt>
      <trkpt lat="35.232841020" lon="-106.479372880">
        <ele>2190.000</ele>
        <time>2019-05-02T14:43:11Z</time>
        <name>WPT.355</name>
      </trkpt>
      <trkpt lat="35.232847440" lon="-106.479416540">
        <ele>2191.000</ele>
        <time>2019-05-02T14:43:15Z</time>
        <name>WPT.356</name>
      </trkpt>
      <trkpt lat="35.232870100" lon="-106.479451330">
        <ele>2192.000</ele>
        <time>2019-05-02T14:43:20Z</time>
        <name>WPT.357</name>
      </trkpt>
      <trkpt lat="35.232866730" lon="-106.479509900">
        <ele>2194.000</ele>
        <time>2019-05-02T14:43:26Z</time>
        <name>WPT.358</name>
      </trkpt>
      <trkpt lat="35.232891550" lon="-106.479548600">
        <ele>2194.000</ele>
        <time>2019-05-02T14:43:30Z</time>
        <name>WPT.359</name>
      </trkpt>
      <trkpt lat="35.232919650" lon="-106.479576920">
        <ele>2195.000</ele>
        <time>2019-05-02T14:43:35Z</time>
        <name>WPT.360</name>
      </trkpt>
      <trkpt lat="35.232940170" lon="-106.479613380">
        <ele>2195.000</ele>
        <time>2019-05-02T14:43:47Z</time>
        <name>WPT.361</name>
      </trkpt>
      <trkpt lat="35.232967170" lon="-106.479646970">
        <ele>2193.000</ele>
        <time>2019-05-02T14:43:52Z</time>
        <name>WPT.362</name>
      </trkpt>
      <trkpt lat="35.232994430" lon="-106.479680910">
        <ele>2197.000</ele>
        <time>2019-05-02T14:47:44Z</time>
        <name>WPT.363</name>
      </trkpt>
      <trkpt lat="35.233020020" lon="-106.479719150">
        <ele>2196.000</ele>
        <time>2019-05-02T14:47:49Z</time>
        <name>WPT.364</name>
      </trkpt>
      <trkpt lat="35.233031290" lon="-106.479767410">
        <ele>2196.000</ele>
        <time>2019-05-02T14:47:54Z</time>
        <name>WPT.365</name>
      </trkpt>
      <trkpt lat="35.233041860" lon="-106.479819810">
        <ele>2196.000</ele>
        <time>2019-05-02T14:48:00Z</time>
        <name>WPT.366</name>
      </trkpt>
      <trkpt lat="35.233062390" lon="-106.479866540">
        <ele>2197.000</ele>
        <time>2019-05-02T14:48:05Z</time>
        <name>WPT.367</name>
      </trkpt>
      <trkpt lat="35.233085030" lon="-106.479901910">
        <ele>2196.000</ele>
        <time>2019-05-02T14:48:09Z</time>
        <name>WPT.368</name>
      </trkpt>
      <trkpt lat="35.233105360" lon="-106.479951910">
        <ele>2197.000</ele>
        <time>2019-05-02T14:48:14Z</time>
        <name>WPT.369</name>
      </trkpt>
      <trkpt lat="35.233137770" lon="-106.479984520">
        <ele>2198.000</ele>
        <time>2019-05-02T14:48:20Z</time>
        <name>WPT.370</name>
      </trkpt>
      <trkpt lat="35.233165090" lon="-106.480015760">
        <ele>2197.000</ele>
        <time>2019-05-02T14:48:24Z</time>
        <name>WPT.371</name>
      </trkpt>
      <trkpt lat="35.233188880" lon="-106.480051070">
        <ele>2197.000</ele>
        <time>2019-05-02T14:48:28Z</time>
        <name>WPT.372</name>
      </trkpt>
      <trkpt lat="35.233227910" lon="-106.480060740">
        <ele>2195.000</ele>
        <time>2019-05-02T14:48:33Z</time>
        <name>WPT.373</name>
      </trkpt>
      <trkpt lat="35.233261270" lon="-106.480079210">
        <ele>2196.000</ele>
        <time>2019-05-02T14:48:40Z</time>
        <name>WPT.374</name>
      </trkpt>
      <trkpt lat="35.233283540" lon="-106.480123880">
        <ele>2199.000</ele>
        <time>2019-05-02T14:48:44Z</time>
        <name>WPT.375</name>
      </trkpt>
      <trkpt lat="35.233303400" lon="-106.480162890">
        <ele>2201.000</ele>
        <time>2019-05-02T14:48:48Z</time>
        <name>WPT.376</name>
      </trkpt>
      <trkpt lat="35.233329660" lon="-106.480196630">
        <ele>2203.000</ele>
        <time>2019-05-02T14:48:54Z</time>
        <name>WPT.377</name>
      </trkpt>
      <trkpt lat="35.233372350" lon="-106.480219550">
        <ele>2203.000</ele>
        <time>2019-05-02T14:49:00Z</time>
        <name>WPT.378</name>
      </trkpt>
      <trkpt lat="35.233397500" lon="-106.480259450">
        <ele>2204.000</ele>
        <time>2019-05-02T14:49:05Z</time>
        <name>WPT.379</name>
      </trkpt>
      <trkpt lat="35.233414790" lon="-106.480300020">
        <ele>2205.000</ele>
        <time>2019-05-02T14:49:11Z</time>
        <name>WPT.380</name>
      </trkpt>
      <trkpt lat="35.233438480" lon="-106.480335940">
        <ele>2205.000</ele>
        <time>2019-05-02T14:49:27Z</time>
        <name>WPT.381</name>
      </trkpt>
      <trkpt lat="35.233458990" lon="-106.480380250">
        <ele>2207.000</ele>
        <time>2019-05-02T14:50:13Z</time>
        <name>WPT.382</name>
      </trkpt>
      <trkpt lat="35.233499050" lon="-106.480387450">
        <ele>2208.000</ele>
        <time>2019-05-02T14:50:19Z</time>
        <name>WPT.383</name>
      </trkpt>
      <trkpt lat="35.233532150" lon="-106.480407260">
        <ele>2208.000</ele>
        <time>2019-05-02T14:50:33Z</time>
        <name>WPT.384</name>
      </trkpt>
      <trkpt lat="35.233571580" lon="-106.480430290">
        <ele>2208.000</ele>
        <time>2019-05-02T14:50:38Z</time>
        <name>WPT.385</name>
      </trkpt>
      <trkpt lat="35.233604000" lon="-106.480469580">
        <ele>2208.000</ele>
        <time>2019-05-02T14:50:45Z</time>
        <name>WPT.386</name>
      </trkpt>
      <trkpt lat="35.233632650" lon="-106.480509870">
        <ele>2208.000</ele>
        <time>2019-05-02T14:50:50Z</time>
        <name>WPT.387</name>
      </trkpt>
      <trkpt lat="35.233671220" lon="-106.480528820">
        <ele>2209.000</ele>
        <time>2019-05-02T14:50:55Z</time>
        <name>WPT.388</name>
      </trkpt>
      <trkpt lat="35.233705910" lon="-106.480546260">
        <ele>2209.000</ele>
        <time>2019-05-02T14:50:59Z</time>
        <name>WPT.389</name>
      </trkpt>
      <trkpt lat="35.233748090" lon="-106.480552310">
        <ele>2208.000</ele>
        <time>2019-05-02T14:51:02Z</time>
        <name>WPT.390</name>
      </trkpt>
      <trkpt lat="35.233784940" lon="-106.480573940">
        <ele>2209.000</ele>
        <time>2019-05-02T14:51:06Z</time>
        <name>WPT.391</name>
      </trkpt>
      <trkpt lat="35.233822970" lon="-106.480597040">
        <ele>2209.000</ele>
        <time>2019-05-02T14:51:11Z</time>
        <name>WPT.392</name>
      </trkpt>
      <trkpt lat="35.233858140" lon="-106.480614600">
        <ele>2209.000</ele>
        <time>2019-05-02T14:51:15Z</time>
        <name>WPT.393</name>
      </trkpt>
      <trkpt lat="35.233892840" lon="-106.480629550">
        <ele>2211.000</ele>
        <time>2019-05-02T14:51:19Z</time>
        <name>WPT.394</name>
      </trkpt>
      <trkpt lat="35.233929970" lon="-106.480643540">
        <ele>2212.000</ele>
        <time>2019-05-02T14:51:23Z</time>
        <name>WPT.395</name>
      </trkpt>
      <trkpt lat="35.233972360" lon="-106.480635880">
        <ele>2212.000</ele>
        <time>2019-05-02T14:51:26Z</time>
        <name>WPT.396</name>
      </trkpt>
      <trkpt lat="35.233978760" lon="-106.480683030">
        <ele>2214.000</ele>
        <time>2019-05-02T14:51:43Z</time>
        <name>WPT.397</name>
      </trkpt>
      <trkpt lat="35.234018820" lon="-106.480673320">
        <ele>2217.000</ele>
        <time>2019-05-02T14:52:14Z</time>
        <name>WPT.398</name>
      </trkpt>
      <trkpt lat="35.234062410" lon="-106.480674950">
        <ele>2218.000</ele>
        <time>2019-05-02T14:52:18Z</time>
        <name>WPT.399</name>
      </trkpt>
      <trkpt lat="35.234093140" lon="-106.480702240">
        <ele>2220.000</ele>
        <time>2019-05-02T14:52:23Z</time>
        <name>WPT.400</name>
      </trkpt>
      <trkpt lat="35.234135820" lon="-106.480709780">
        <ele>2219.000</ele>
        <time>2019-05-02T14:52:29Z</time>
        <name>WPT.401</name>
      </trkpt>
      <trkpt lat="35.234177100" lon="-106.480720630">
        <ele>2222.000</ele>
        <time>2019-05-02T14:52:36Z</time>
        <name>WPT.402</name>
      </trkpt>
      <trkpt lat="35.234214610" lon="-106.480724810">
        <ele>2223.000</ele>
        <time>2019-05-02T14:52:41Z</time>
        <name>WPT.403</name>
      </trkpt>
      <trkpt lat="35.234249940" lon="-106.480734040">
        <ele>2223.000</ele>
        <time>2019-05-02T14:52:45Z</time>
        <name>WPT.404</name>
      </trkpt>
      <trkpt lat="35.234285590" lon="-106.480758920">
        <ele>2224.000</ele>
        <time>2019-05-02T14:52:50Z</time>
        <name>WPT.405</name>
      </trkpt>
      <trkpt lat="35.234323160" lon="-106.480767340">
        <ele>2225.000</ele>
        <time>2019-05-02T14:52:54Z</time>
        <name>WPT.406</name>
      </trkpt>
      <trkpt lat="35.234355800" lon="-106.480789700">
        <ele>2225.000</ele>
        <time>2019-05-02T14:52:58Z</time>
        <name>WPT.407</name>
      </trkpt>
      <trkpt lat="35.234396050" lon="-106.480783140">
        <ele>2224.000</ele>
        <time>2019-05-02T14:53:02Z</time>
        <name>WPT.408</name>
      </trkpt>
      <trkpt lat="35.234436250" lon="-106.480764630">
        <ele>2222.000</ele>
        <time>2019-05-02T14:53:06Z</time>
        <name>WPT.409</name>
      </trkpt>
      <trkpt lat="35.234472240" lon="-106.480776950">
        <ele>2223.000</ele>
        <time>2019-05-02T14:53:11Z</time>
        <name>WPT.410</name>
      </trkpt>
      <trkpt lat="35.234511830" lon="-106.480769490">
        <ele>2227.000</ele>
        <time>2019-05-02T14:53:18Z</time>
        <name>WPT.411</name>
      </trkpt>
      <trkpt lat="35.234562410" lon="-106.480749600">
        <ele>2227.000</ele>
        <time>2019-05-02T14:53:23Z</time>
        <name>WPT.412</name>
      </trkpt>
      <trkpt lat="35.234597730" lon="-106.480735280">
        <ele>2228.000</ele>
        <time>2019-05-02T14:53:27Z</time>
        <name>WPT.413</name>
      </trkpt>
      <trkpt lat="35.234629640" lon="-106.480710450">
        <ele>2230.000</ele>
        <time>2019-05-02T14:53:33Z</time>
        <name>WPT.414</name>
      </trkpt>
      <trkpt lat="35.234662130" lon="-106.480690900">
        <ele>2231.000</ele>
        <time>2019-05-02T14:53:37Z</time>
        <name>WPT.415</name>
      </trkpt>
      <trkpt lat="35.234705230" lon="-106.480691280">
        <ele>2230.000</ele>
        <time>2019-05-02T14:53:40Z</time>
        <name>WPT.416</name>
      </trkpt>
      <trkpt lat="35.234748320" lon="-106.480681920">
        <ele>2228.000</ele>
        <time>2019-05-02T14:53:43Z</time>
        <name>WPT.417</name>
      </trkpt>
      <trkpt lat="35.234786280" lon="-106.480660920">
        <ele>2229.000</ele>
        <time>2019-05-02T14:53:49Z</time>
        <name>WPT.418</name>
      </trkpt>
      <trkpt lat="35.234830710" lon="-106.480650280">
        <ele>2229.000</ele>
        <time>2019-05-02T14:53:54Z</time>
        <name>WPT.419</name>
      </trkpt>
      <trkpt lat="35.234865180" lon="-106.480627060">
        <ele>2228.000</ele>
        <time>2019-05-02T14:53:58Z</time>
        <name>WPT.420</name>
      </trkpt>
      <trkpt lat="35.234888790" lon="-106.480591330">
        <ele>2226.000</ele>
        <time>2019-05-02T14:54:00Z</time>
        <name>WPT.421</name>
      </trkpt>
      <trkpt lat="35.234920930" lon="-106.480567800">
        <ele>2230.000</ele>
        <time>2019-05-02T14:54:05Z</time>
        <name>WPT.422</name>
      </trkpt>
      <trkpt lat="35.234957410" lon="-106.480574570">
        <ele>2228.000</ele>
        <time>2019-05-02T14:54:10Z</time>
        <name>WPT.423</name>
      </trkpt>
      <trkpt lat="35.234989600" lon="-106.480596550">
        <ele>2229.000</ele>
        <time>2019-05-02T14:54:21Z</time>
        <name>WPT.424</name>
      </trkpt>
      <trkpt lat="35.235030560" lon="-106.480603640">
        <ele>2231.000</ele>
        <time>2019-05-02T14:54:29Z</time>
        <name>WPT.425</name>
      </trkpt>
      <trkpt lat="35.235070220" lon="-106.480603480">
        <ele>2233.000</ele>
        <time>2019-05-02T14:54:33Z</time>
        <name>WPT.426</name>
      </trkpt>
      <trkpt lat="35.235106060" lon="-106.480589050">
        <ele>2233.000</ele>
        <time>2019-05-02T14:54:36Z</time>
        <name>WPT.427</name>
      </trkpt>
      <trkpt lat="35.235138280" lon="-106.480611370">
        <ele>2239.000</ele>
        <time>2019-05-02T14:54:42Z</time>
        <name>WPT.428</name>
      </trkpt>
      <trkpt lat="35.235184800" lon="-106.480599900">
        <ele>2237.000</ele>
        <time>2019-05-02T14:54:45Z</time>
        <name>WPT.429</name>
      </trkpt>
      <trkpt lat="35.235219940" lon="-106.480624220">
        <ele>2239.000</ele>
        <time>2019-05-02T14:54:51Z</time>
        <name>WPT.430</name>
      </trkpt>
      <trkpt lat="35.235254520" lon="-106.480608960">
        <ele>2237.000</ele>
        <time>2019-05-02T14:54:54Z</time>
        <name>WPT.431</name>
      </trkpt>
      <trkpt lat="35.235295860" lon="-106.480612360">
        <ele>2241.000</ele>
        <time>2019-05-02T14:55:01Z</time>
        <name>WPT.432</name>
      </trkpt>
      <trkpt lat="35.235339180" lon="-106.480609130">
        <ele>2242.000</ele>
        <time>2019-05-02T14:55:06Z</time>
        <name>WPT.433</name>
      </trkpt>
      <trkpt lat="35.235388330" lon="-106.480622810">
        <ele>2244.000</ele>
        <time>2019-05-02T14:55:11Z</time>
        <name>WPT.434</name>
      </trkpt>
      <trkpt lat="35.235426880" lon="-106.480623540">
        <ele>2242.000</ele>
        <time>2019-05-02T14:55:17Z</time>
        <name>WPT.435</name>
      </trkpt>
      <trkpt lat="35.235469440" lon="-106.480625790">
        <ele>2243.000</ele>
        <time>2019-05-02T14:55:23Z</time>
        <name>WPT.436</name>
      </trkpt>
      <trkpt lat="35.235499270" lon="-106.480589150">
        <ele>2238.000</ele>
        <time>2019-05-02T14:55:27Z</time>
        <name>WPT.437</name>
      </trkpt>
      <trkpt lat="35.235536470" lon="-106.480566020">
        <ele>2236.000</ele>
        <time>2019-05-02T14:55:49Z</time>
        <name>WPT.438</name>
      </trkpt>
      <trkpt lat="35.235573800" lon="-106.480535060">
        <ele>2238.000</ele>
        <time>2019-05-02T14:56:36Z</time>
        <name>WPT.439</name>
      </trkpt>
      <trkpt lat="35.235593050" lon="-106.480497410">
        <ele>2238.000</ele>
        <time>2019-05-02T14:56:41Z</time>
        <name>WPT.440</name>
      </trkpt>
      <trkpt lat="35.235629730" lon="-106.480471230">
        <ele>2240.000</ele>
        <time>2019-05-02T14:56:46Z</time>
        <name>WPT.441</name>
      </trkpt>
      <trkpt lat="35.235660500" lon="-106.480442060">
        <ele>2241.000</ele>
        <time>2019-05-02T14:56:51Z</time>
        <name>WPT.442</name>
      </trkpt>
      <trkpt lat="35.235679050" lon="-106.480403510">
        <ele>2242.000</ele>
        <time>2019-05-02T14:56:57Z</time>
        <name>WPT.443</name>
      </trkpt>
      <trkpt lat="35.235718770" lon="-106.480371400">
        <ele>2245.000</ele>
        <time>2019-05-02T14:57:04Z</time>
        <name>WPT.444</name>
      </trkpt>
      <trkpt lat="35.235759270" lon="-106.480362200">
        <ele>2243.000</ele>
        <time>2019-05-02T14:57:07Z</time>
        <name>WPT.445</name>
      </trkpt>
      <trkpt lat="35.235774220" lon="-106.480322120">
        <ele>2239.000</ele>
        <time>2019-05-02T14:57:21Z</time>
        <name>WPT.446</name>
      </trkpt>
      <trkpt lat="35.235782750" lon="-106.480274400">
        <ele>2243.000</ele>
        <time>2019-05-02T14:59:34Z</time>
        <name>WPT.447</name>
      </trkpt>
      <trkpt lat="35.235828800" lon="-106.480259540">
        <ele>2242.000</ele>
        <time>2019-05-02T14:59:39Z</time>
        <name>WPT.448</name>
      </trkpt>
      <trkpt lat="35.235861190" lon="-106.480236310">
        <ele>2245.000</ele>
        <time>2019-05-02T14:59:45Z</time>
        <name>WPT.449</name>
      </trkpt>
      <trkpt lat="35.235896430" lon="-106.480210450">
        <ele>2247.000</ele>
        <time>2019-05-02T14:59:50Z</time>
        <name>WPT.450</name>
      </trkpt>
      <trkpt lat="35.235933770" lon="-106.480200970">
        <ele>2248.000</ele>
        <time>2019-05-02T14:59:56Z</time>
        <name>WPT.451</name>
      </trkpt>
      <trkpt lat="35.235970770" lon="-106.480194590">
        <ele>2249.000</ele>
        <time>2019-05-02T14:59:59Z</time>
        <name>WPT.452</name>
      </trkpt>
      <trkpt lat="35.236004150" lon="-106.480173680">
        <ele>2249.000</ele>
        <time>2019-05-02T15:00:03Z</time>
        <name>WPT.453</name>
      </trkpt>
      <trkpt lat="35.236038340" lon="-106.480144130">
        <ele>2247.000</ele>
        <time>2019-05-02T15:00:07Z</time>
        <name>WPT.454</name>
      </trkpt>
      <trkpt lat="35.236073260" lon="-106.480108800">
        <ele>2253.000</ele>
        <time>2019-05-02T15:00:15Z</time>
        <name>WPT.455</name>
      </trkpt>
      <trkpt lat="35.236109870" lon="-106.480089880">
        <ele>2255.000</ele>
        <time>2019-05-02T15:00:21Z</time>
        <name>WPT.456</name>
      </trkpt>
      <trkpt lat="35.236154720" lon="-106.480073680">
        <ele>2257.000</ele>
        <time>2019-05-02T15:00:28Z</time>
        <name>WPT.457</name>
      </trkpt>
      <trkpt lat="35.236194670" lon="-106.480048940">
        <ele>2257.000</ele>
        <time>2019-05-02T15:00:32Z</time>
        <name>WPT.458</name>
      </trkpt>
      <trkpt lat="35.236217510" lon="-106.480011760">
        <ele>2257.000</ele>
        <time>2019-05-02T15:00:35Z</time>
        <name>WPT.459</name>
      </trkpt>
      <trkpt lat="35.236252360" lon="-106.479986940">
        <ele>2259.000</ele>
        <time>2019-05-02T15:00:41Z</time>
        <name>WPT.460</name>
      </trkpt>
      <trkpt lat="35.236287190" lon="-106.479967530">
        <ele>2259.000</ele>
        <time>2019-05-02T15:00:45Z</time>
        <name>WPT.461</name>
      </trkpt>
      <trkpt lat="35.236319770" lon="-106.479938630">
        <ele>2259.000</ele>
        <time>2019-05-02T15:00:51Z</time>
        <name>WPT.462</name>
      </trkpt>
      <trkpt lat="35.236339610" lon="-106.479901220">
        <ele>2259.000</ele>
        <time>2019-05-02T15:01:03Z</time>
        <name>WPT.463</name>
      </trkpt>
      <trkpt lat="35.236347250" lon="-106.479854610">
        <ele>2262.000</ele>
        <time>2019-05-02T15:01:25Z</time>
        <name>WPT.464</name>
      </trkpt>
      <trkpt lat="35.236374830" lon="-106.479825590">
        <ele>2264.000</ele>
        <time>2019-05-02T15:01:31Z</time>
        <name>WPT.465</name>
      </trkpt>
      <trkpt lat="35.236388450" lon="-106.479780860">
        <ele>2266.000</ele>
        <time>2019-05-02T15:01:36Z</time>
        <name>WPT.466</name>
      </trkpt>
      <trkpt lat="35.236393610" lon="-106.479730400">
        <ele>2267.000</ele>
        <time>2019-05-02T15:01:42Z</time>
        <name>WPT.467</name>
      </trkpt>
      <trkpt lat="35.236435820" lon="-106.479715340">
        <ele>2266.000</ele>
        <time>2019-05-02T15:01:47Z</time>
        <name>WPT.468</name>
      </trkpt>
      <trkpt lat="35.236459220" lon="-106.479680190">
        <ele>2267.000</ele>
        <time>2019-05-02T15:01:59Z</time>
        <name>WPT.469</name>
      </trkpt>
      <trkpt lat="35.236500890" lon="-106.479672920">
        <ele>2269.000</ele>
        <time>2019-05-02T15:02:05Z</time>
        <name>WPT.470</name>
      </trkpt>
      <trkpt lat="35.236540330" lon="-106.479680660">
        <ele>2271.000</ele>
        <time>2019-05-02T15:02:14Z</time>
        <name>WPT.471</name>
      </trkpt>
      <trkpt lat="35.236581730" lon="-106.479652140">
        <ele>2270.000</ele>
        <time>2019-05-02T15:02:17Z</time>
        <name>WPT.472</name>
      </trkpt>
      <trkpt lat="35.236619590" lon="-106.479611590">
        <ele>2269.000</ele>
        <time>2019-05-02T15:02:21Z</time>
        <name>WPT.473</name>
      </trkpt>
      <trkpt lat="35.236656170" lon="-106.479591780">
        <ele>2270.000</ele>
        <time>2019-05-02T15:02:26Z</time>
        <name>WPT.474</name>
      </trkpt>
      <trkpt lat="35.236688930" lon="-106.479565480">
        <ele>2270.000</ele>
        <time>2019-05-02T15:02:30Z</time>
        <name>WPT.475</name>
      </trkpt>
      <trkpt lat="35.236718000" lon="-106.479532640">
        <ele>2270.000</ele>
        <time>2019-05-02T15:02:35Z</time>
        <name>WPT.476</name>
      </trkpt>
      <trkpt lat="35.236747730" lon="-106.479496810">
        <ele>2271.000</ele>
        <time>2019-05-02T15:02:40Z</time>
        <name>WPT.477</name>
      </trkpt>
      <trkpt lat="35.236781960" lon="-106.479475010">
        <ele>2271.000</ele>
        <time>2019-05-02T15:02:44Z</time>
        <name>WPT.478</name>
      </trkpt>
      <trkpt lat="35.236813650" lon="-106.479442300">
        <ele>2272.000</ele>
        <time>2019-05-02T15:02:49Z</time>
        <name>WPT.479</name>
      </trkpt>
      <trkpt lat="35.236851040" lon="-106.479416880">
        <ele>2272.000</ele>
        <time>2019-05-02T15:02:54Z</time>
        <name>WPT.480</name>
      </trkpt>
      <trkpt lat="35.236880710" lon="-106.479384090">
        <ele>2273.000</ele>
        <time>2019-05-02T15:02:59Z</time>
        <name>WPT.481</name>
      </trkpt>
      <trkpt lat="35.236915570" lon="-106.479363670">
        <ele>2274.000</ele>
        <time>2019-05-02T15:03:03Z</time>
        <name>WPT.482</name>
      </trkpt>
      <trkpt lat="35.236954330" lon="-106.479335460">
        <ele>2274.000</ele>
        <time>2019-05-02T15:03:09Z</time>
        <name>WPT.483</name>
      </trkpt>
      <trkpt lat="35.236973480" lon="-106.479292320">
        <ele>2273.000</ele>
        <time>2019-05-02T15:03:14Z</time>
        <name>WPT.484</name>
      </trkpt>
      <trkpt lat="35.236996860" lon="-106.479250310">
        <ele>2274.000</ele>
        <time>2019-05-02T15:03:19Z</time>
        <name>WPT.485</name>
      </trkpt>
      <trkpt lat="35.237024500" lon="-106.479211220">
        <ele>2276.000</ele>
        <time>2019-05-02T15:03:24Z</time>
        <name>WPT.486</name>
      </trkpt>
      <trkpt lat="35.237053390" lon="-106.479178340">
        <ele>2279.000</ele>
        <time>2019-05-02T15:03:32Z</time>
        <name>WPT.487</name>
      </trkpt>
      <trkpt lat="35.237078300" lon="-106.479137540">
        <ele>2279.000</ele>
        <time>2019-05-02T15:03:37Z</time>
        <name>WPT.488</name>
      </trkpt>
      <trkpt lat="35.237106810" lon="-106.479110190">
        <ele>2280.000</ele>
        <time>2019-05-02T15:03:43Z</time>
        <name>WPT.489</name>
      </trkpt>
      <trkpt lat="35.237129160" lon="-106.479062950">
        <ele>2280.000</ele>
        <time>2019-05-02T15:03:47Z</time>
        <name>WPT.490</name>
      </trkpt>
      <trkpt lat="35.237157950" lon="-106.479034940">
        <ele>2281.000</ele>
        <time>2019-05-02T15:03:52Z</time>
        <name>WPT.491</name>
      </trkpt>
      <trkpt lat="35.237158380" lon="-106.478987620">
        <ele>2282.000</ele>
        <time>2019-05-02T15:03:56Z</time>
        <name>WPT.492</name>
      </trkpt>
      <trkpt lat="35.237185110" lon="-106.478952630">
        <ele>2283.000</ele>
        <time>2019-05-02T15:04:00Z</time>
        <name>WPT.493</name>
      </trkpt>
      <trkpt lat="35.237204200" lon="-106.478907120">
        <ele>2284.000</ele>
        <time>2019-05-02T15:04:04Z</time>
        <name>WPT.494</name>
      </trkpt>
      <trkpt lat="35.237221340" lon="-106.478861900">
        <ele>2286.000</ele>
        <time>2019-05-02T15:04:08Z</time>
        <name>WPT.495</name>
      </trkpt>
      <trkpt lat="35.237187200" lon="-106.478843510">
        <ele>2284.000</ele>
        <time>2019-05-02T15:05:14Z</time>
        <name>WPT.496</name>
      </trkpt>
      <trkpt lat="35.237227330" lon="-106.478825180">
        <ele>2282.000</ele>
        <time>2019-05-02T15:05:54Z</time>
        <name>WPT.497</name>
      </trkpt>
      <trkpt lat="35.237259780" lon="-106.478803010">
        <ele>2282.000</ele>
        <time>2019-05-02T15:05:59Z</time>
        <name>WPT.498</name>
      </trkpt>
      <trkpt lat="35.237284620" lon="-106.478768980">
        <ele>2283.000</ele>
        <time>2019-05-02T15:06:03Z</time>
        <name>WPT.499</name>
      </trkpt>
      <trkpt lat="35.237309070" lon="-106.478729860">
        <ele>2284.000</ele>
        <time>2019-05-02T15:06:08Z</time>
        <name>WPT.500</name>
      </trkpt>
      <trkpt lat="35.237331370" lon="-106.478689960">
        <ele>2284.000</ele>
        <time>2019-05-02T15:06:13Z</time>
        <name>WPT.501</name>
      </trkpt>
      <trkpt lat="35.237370000" lon="-106.478679090">
        <ele>2284.000</ele>
        <time>2019-05-02T15:06:17Z</time>
        <name>WPT.502</name>
      </trkpt>
      <trkpt lat="35.237414320" lon="-106.478666470">
        <ele>2285.000</ele>
        <time>2019-05-02T15:06:23Z</time>
        <name>WPT.503</name>
      </trkpt>
      <trkpt lat="35.237459380" lon="-106.478660880">
        <ele>2285.000</ele>
        <time>2019-05-02T15:06:28Z</time>
        <name>WPT.504</name>
      </trkpt>
      <trkpt lat="35.237487960" lon="-106.478622530">
        <ele>2287.000</ele>
        <time>2019-05-02T15:06:33Z</time>
        <name>WPT.505</name>
      </trkpt>
      <trkpt lat="35.237516880" lon="-106.478596210">
        <ele>2289.000</ele>
        <time>2019-05-02T15:06:38Z</time>
        <name>WPT.506</name>
      </trkpt>
      <trkpt lat="35.237551900" lon="-106.478569100">
        <ele>2292.000</ele>
        <time>2019-05-02T15:06:43Z</time>
        <name>WPT.507</name>
      </trkpt>
      <trkpt lat="35.237588990" lon="-106.478557600">
        <ele>2293.000</ele>
        <time>2019-05-02T15:06:47Z</time>
        <name>WPT.508</name>
      </trkpt>
      <trkpt lat="35.237601640" lon="-106.478509180">
        <ele>2293.000</ele>
        <time>2019-05-02T15:06:52Z</time>
        <name>WPT.509</name>
      </trkpt>
      <trkpt lat="35.237622280" lon="-106.478467310">
        <ele>2293.000</ele>
        <time>2019-05-02T15:06:57Z</time>
        <name>WPT.510</name>
      </trkpt>
      <trkpt lat="35.237634450" lon="-106.478425750">
        <ele>2294.000</ele>
        <time>2019-05-02T15:07:04Z</time>
        <name>WPT.511</name>
      </trkpt>
      <trkpt lat="35.237658710" lon="-106.478386180">
        <ele>2296.000</ele>
        <time>2019-05-02T15:08:58Z</time>
        <name>WPT.512</name>
      </trkpt>
      <trkpt lat="35.237663240" lon="-106.478341740">
        <ele>2298.000</ele>
        <time>2019-05-02T15:09:38Z</time>
        <name>WPT.513</name>
      </trkpt>
      <trkpt lat="35.237702430" lon="-106.478353060">
        <ele>2298.000</ele>
        <time>2019-05-02T15:10:46Z</time>
        <name>WPT.514</name>
      </trkpt>
      <trkpt lat="35.237730450" lon="-106.478322190">
        <ele>2300.000</ele>
        <time>2019-05-02T15:10:54Z</time>
        <name>WPT.515</name>
      </trkpt>
      <trkpt lat="35.237770730" lon="-106.478313170">
        <ele>2301.000</ele>
        <time>2019-05-02T15:10:59Z</time>
        <name>WPT.516</name>
      </trkpt>
      <trkpt lat="35.237803840" lon="-106.478287700">
        <ele>2302.000</ele>
        <time>2019-05-02T15:11:05Z</time>
        <name>WPT.517</name>
      </trkpt>
      <trkpt lat="35.237833920" lon="-106.478262070">
        <ele>2301.000</ele>
        <time>2019-05-02T15:11:10Z</time>
        <name>WPT.518</name>
      </trkpt>
      <trkpt lat="35.237875090" lon="-106.478241560">
        <ele>2302.000</ele>
        <time>2019-05-02T15:11:15Z</time>
        <name>WPT.519</name>
      </trkpt>
      <trkpt lat="35.237917560" lon="-106.478232700">
        <ele>2304.000</ele>
        <time>2019-05-02T15:11:21Z</time>
        <name>WPT.520</name>
      </trkpt>
      <trkpt lat="35.237958220" lon="-106.478226100">
        <ele>2304.000</ele>
        <time>2019-05-02T15:11:54Z</time>
        <name>WPT.521</name>
      </trkpt>
      <trkpt lat="35.237995930" lon="-106.478209080">
        <ele>2305.000</ele>
        <time>2019-05-02T15:11:59Z</time>
        <name>WPT.522</name>
      </trkpt>
      <trkpt lat="35.238026550" lon="-106.478182270">
        <ele>2305.000</ele>
        <time>2019-05-02T15:12:02Z</time>
        <name>WPT.523</name>
      </trkpt>
      <trkpt lat="35.238064090" lon="-106.478159610">
        <ele>2305.000</ele>
        <time>2019-05-02T15:12:05Z</time>
        <name>WPT.524</name>
      </trkpt>
      <trkpt lat="35.238093790" lon="-106.478129570">
        <ele>2305.000</ele>
        <time>2019-05-02T15:12:09Z</time>
        <name>WPT.525</name>
      </trkpt>
      <trkpt lat="35.238122580" lon="-106.478092990">
        <ele>2304.000</ele>
        <time>2019-05-02T15:12:13Z</time>
        <name>WPT.526</name>
      </trkpt>
      <trkpt lat="35.238160220" lon="-106.478071710">
        <ele>2305.000</ele>
        <time>2019-05-02T15:12:17Z</time>
        <name>WPT.527</name>
      </trkpt>
      <trkpt lat="35.238188780" lon="-106.478043020">
        <ele>2307.000</ele>
        <time>2019-05-02T15:12:20Z</time>
        <name>WPT.528</name>
      </trkpt>
      <trkpt lat="35.238206770" lon="-106.477994220">
        <ele>2307.000</ele>
        <time>2019-05-02T15:12:24Z</time>
        <name>WPT.529</name>
      </trkpt>
      <trkpt lat="35.238226030" lon="-106.477947750">
        <ele>2306.000</ele>
        <time>2019-05-02T15:12:28Z</time>
        <name>WPT.530</name>
      </trkpt>
      <trkpt lat="35.238254940" lon="-106.477913920">
        <ele>2306.000</ele>
        <time>2019-05-02T15:12:33Z</time>
        <name>WPT.531</name>
      </trkpt>
      <trkpt lat="35.238274880" lon="-106.477870750">
        <ele>2306.000</ele>
        <time>2019-05-02T15:12:38Z</time>
        <name>WPT.532</name>
      </trkpt>
      <trkpt lat="35.238291510" lon="-106.477827750">
        <ele>2308.000</ele>
        <time>2019-05-02T15:12:43Z</time>
        <name>WPT.533</name>
      </trkpt>
      <trkpt lat="35.238322360" lon="-106.477789760">
        <ele>2307.000</ele>
        <time>2019-05-02T15:12:55Z</time>
        <name>WPT.534</name>
      </trkpt>
      <trkpt lat="35.238339080" lon="-106.477745650">
        <ele>2309.000</ele>
        <time>2019-05-02T15:13:00Z</time>
        <name>WPT.535</name>
      </trkpt>
      <trkpt lat="35.238347350" lon="-106.477700140">
        <ele>2309.000</ele>
        <time>2019-05-02T15:13:04Z</time>
        <name>WPT.536</name>
      </trkpt>
      <trkpt lat="35.238374870" lon="-106.477662080">
        <ele>2309.000</ele>
        <time>2019-05-02T15:13:09Z</time>
        <name>WPT.537</name>
      </trkpt>
      <trkpt lat="35.238389260" lon="-106.477615710">
        <ele>2312.000</ele>
        <time>2019-05-02T15:13:17Z</time>
        <name>WPT.538</name>
      </trkpt>
      <trkpt lat="35.238419020" lon="-106.477585960">
        <ele>2313.000</ele>
        <time>2019-05-02T15:13:20Z</time>
        <name>WPT.539</name>
      </trkpt>
      <trkpt lat="35.238439470" lon="-106.477547750">
        <ele>2314.000</ele>
        <time>2019-05-02T15:13:24Z</time>
        <name>WPT.540</name>
      </trkpt>
      <trkpt lat="35.238460220" lon="-106.477510600">
        <ele>2316.000</ele>
        <time>2019-05-02T15:13:30Z</time>
        <name>WPT.541</name>
      </trkpt>
      <trkpt lat="35.238490510" lon="-106.477471930">
        <ele>2317.000</ele>
        <time>2019-05-02T15:13:35Z</time>
        <name>WPT.542</name>
      </trkpt>
      <trkpt lat="35.238515130" lon="-106.477432380">
        <ele>2316.000</ele>
        <time>2019-05-02T15:13:39Z</time>
        <name>WPT.543</name>
      </trkpt>
      <trkpt lat="35.238530620" lon="-106.477388800">
        <ele>2317.000</ele>
        <time>2019-05-02T15:13:45Z</time>
        <name>WPT.544</name>
      </trkpt>
      <trkpt lat="35.238565210" lon="-106.477333170">
        <ele>2315.000</ele>
        <time>2019-05-02T15:13:50Z</time>
        <name>WPT.545</name>
      </trkpt>
      <trkpt lat="35.238590800" lon="-106.477300910">
        <ele>2315.000</ele>
        <time>2019-05-02T15:13:54Z</time>
        <name>WPT.546</name>
      </trkpt>
      <trkpt lat="35.238622460" lon="-106.477263530">
        <ele>2315.000</ele>
        <time>2019-05-02T15:13:59Z</time>
        <name>WPT.547</name>
      </trkpt>
      <trkpt lat="35.238658220" lon="-106.477244340">
        <ele>2317.000</ele>
        <time>2019-05-02T15:14:07Z</time>
        <name>WPT.548</name>
      </trkpt>
      <trkpt lat="35.238697550" lon="-106.477263190">
        <ele>2318.000</ele>
        <time>2019-05-02T15:14:11Z</time>
        <name>WPT.549</name>
      </trkpt>
      <trkpt lat="35.238733020" lon="-106.477293960">
        <ele>2320.000</ele>
        <time>2019-05-02T15:14:16Z</time>
        <name>WPT.550</name>
      </trkpt>
      <trkpt lat="35.238769890" lon="-106.477305290">
        <ele>2320.000</ele>
        <time>2019-05-02T15:14:54Z</time>
        <name>WPT.551</name>
      </trkpt>
      <trkpt lat="35.238810360" lon="-106.477294840">
        <ele>2319.000</ele>
        <time>2019-05-02T15:16:53Z</time>
        <name>WPT.552</name>
      </trkpt>
      <trkpt lat="35.238853130" lon="-106.477293570">
        <ele>2319.000</ele>
        <time>2019-05-02T15:16:58Z</time>
        <name>WPT.553</name>
      </trkpt>
      <trkpt lat="35.238891320" lon="-106.477299270">
        <ele>2319.000</ele>
        <time>2019-05-02T15:17:02Z</time>
        <name>WPT.554</name>
      </trkpt>
      <trkpt lat="35.238929010" lon="-106.477301020">
        <ele>2320.000</ele>
        <time>2019-05-02T15:17:06Z</time>
        <name>WPT.555</name>
      </trkpt>
      <trkpt lat="35.238965620" lon="-106.477315100">
        <ele>2322.000</ele>
        <time>2019-05-02T15:17:12Z</time>
        <name>WPT.556</name>
      </trkpt>
      <trkpt lat="35.239006030" lon="-106.477329210">
        <ele>2324.000</ele>
        <time>2019-05-02T15:17:25Z</time>
        <name>WPT.557</name>
      </trkpt>
      <trkpt lat="35.239043650" lon="-106.477336410">
        <ele>2325.000</ele>
        <time>2019-05-02T15:17:29Z</time>
        <name>WPT.558</name>
      </trkpt>
      <trkpt lat="35.239080840" lon="-106.477338650">
        <ele>2325.000</ele>
        <time>2019-05-02T15:17:33Z</time>
        <name>WPT.559</name>
      </trkpt>
      <trkpt lat="35.239117400" lon="-106.477320920">
        <ele>2325.000</ele>
        <time>2019-05-02T15:17:36Z</time>
        <name>WPT.560</name>
      </trkpt>
      <trkpt lat="35.239162050" lon="-106.477306860">
        <ele>2324.000</ele>
        <time>2019-05-02T15:17:42Z</time>
        <name>WPT.561</name>
      </trkpt>
      <trkpt lat="35.239207910" lon="-106.477294840">
        <ele>2324.000</ele>
        <time>2019-05-02T15:17:45Z</time>
        <name>WPT.562</name>
      </trkpt>
      <trkpt lat="35.239249570" lon="-106.477301640">
        <ele>2327.000</ele>
        <time>2019-05-02T15:17:51Z</time>
        <name>WPT.563</name>
      </trkpt>
      <trkpt lat="35.239301180" lon="-106.477290120">
        <ele>2327.000</ele>
        <time>2019-05-02T15:17:54Z</time>
        <name>WPT.564</name>
      </trkpt>
      <trkpt lat="35.239337840" lon="-106.477287670">
        <ele>2328.000</ele>
        <time>2019-05-02T15:17:59Z</time>
        <name>WPT.565</name>
      </trkpt>
      <trkpt lat="35.239380910" lon="-106.477273370">
        <ele>2329.000</ele>
        <time>2019-05-02T15:18:04Z</time>
        <name>WPT.566</name>
      </trkpt>
      <trkpt lat="35.239417450" lon="-106.477269150">
        <ele>2330.000</ele>
        <time>2019-05-02T15:18:09Z</time>
        <name>WPT.567</name>
      </trkpt>
      <trkpt lat="35.239459660" lon="-106.477254420">
        <ele>2330.000</ele>
        <time>2019-05-02T15:18:13Z</time>
        <name>WPT.568</name>
      </trkpt>
      <trkpt lat="35.239475530" lon="-106.477213950">
        <ele>2332.000</ele>
        <time>2019-05-02T15:18:23Z</time>
        <name>WPT.569</name>
      </trkpt>
      <trkpt lat="35.239506310" lon="-106.477182390">
        <ele>2335.000</ele>
        <time>2019-05-02T15:18:48Z</time>
        <name>WPT.570</name>
      </trkpt>
      <trkpt lat="35.239536210" lon="-106.477147020">
        <ele>2336.000</ele>
        <time>2019-05-02T15:18:54Z</time>
        <name>WPT.571</name>
      </trkpt>
      <trkpt lat="35.239542320" lon="-106.477095420">
        <ele>2336.000</ele>
        <time>2019-05-02T15:18:59Z</time>
        <name>WPT.572</name>
      </trkpt>
      <trkpt lat="35.239530510" lon="-106.477044670">
        <ele>2335.000</ele>
        <time>2019-05-02T15:19:03Z</time>
        <name>WPT.573</name>
      </trkpt>
      <trkpt lat="35.239542130" lon="-106.477002720">
        <ele>2335.000</ele>
        <time>2019-05-02T15:19:10Z</time>
        <name>WPT.574</name>
      </trkpt>
      <trkpt lat="35.239554680" lon="-106.476959820">
        <ele>2335.000</ele>
        <time>2019-05-02T15:19:29Z</time>
        <name>WPT.575</name>
      </trkpt>
      <trkpt lat="35.239560840" lon="-106.476915180">
        <ele>2337.000</ele>
        <time>2019-05-02T15:19:36Z</time>
        <name>WPT.576</name>
      </trkpt>
      <trkpt lat="35.239552090" lon="-106.476871740">
        <ele>2339.000</ele>
        <time>2019-05-02T15:19:43Z</time>
        <name>WPT.577</name>
      </trkpt>
      <trkpt lat="35.239523680" lon="-106.476827350">
        <ele>2338.000</ele>
        <time>2019-05-02T15:19:48Z</time>
        <name>WPT.578</name>
      </trkpt>
      <trkpt lat="35.239488630" lon="-106.476801070">
        <ele>2337.000</ele>
        <time>2019-05-02T15:19:53Z</time>
        <name>WPT.579</name>
      </trkpt>
      <trkpt lat="35.239473230" lon="-106.476754620">
        <ele>2338.000</ele>
        <time>2019-05-02T15:19:59Z</time>
        <name>WPT.580</name>
      </trkpt>
      <trkpt lat="35.239442430" lon="-106.476727230">
        <ele>2337.000</ele>
        <time>2019-05-02T15:20:52Z</time>
        <name>WPT.581</name>
      </trkpt>
      <trkpt lat="35.239418860" lon="-106.476688040">
        <ele>2339.000</ele>
        <time>2019-05-02T15:20:59Z</time>
        <name>WPT.582</name>
      </trkpt>
      <trkpt lat="35.239413840" lon="-106.476638050">
        <ele>2341.000</ele>
        <time>2019-05-02T15:21:04Z</time>
        <name>WPT.583</name>
      </trkpt>
      <trkpt lat="35.239430130" lon="-106.476595130">
        <ele>2342.000</ele>
        <time>2019-05-02T15:22:06Z</time>
        <name>WPT.584</name>
      </trkpt>
      <trkpt lat="35.239455890" lon="-106.476551600">
        <ele>2342.000</ele>
        <time>2019-05-02T15:22:10Z</time>
        <name>WPT.585</name>
      </trkpt>
      <trkpt lat="35.239469050" lon="-106.476506290">
        <ele>2345.000</ele>
        <time>2019-05-02T15:22:19Z</time>
        <name>WPT.586</name>
      </trkpt>
      <trkpt lat="35.239493950" lon="-106.476458800">
        <ele>2345.000</ele>
        <time>2019-05-02T15:22:24Z</time>
        <name>WPT.587</name>
      </trkpt>
      <trkpt lat="35.239528120" lon="-106.476435480">
        <ele>2347.000</ele>
        <time>2019-05-02T15:22:29Z</time>
        <name>WPT.588</name>
      </trkpt>
      <trkpt lat="35.239561640" lon="-106.476413490">
        <ele>2350.000</ele>
        <time>2019-05-02T15:22:36Z</time>
        <name>WPT.589</name>
      </trkpt>
      <trkpt lat="35.239601300" lon="-106.476413760">
        <ele>2352.000</ele>
        <time>2019-05-02T15:22:44Z</time>
        <name>WPT.590</name>
      </trkpt>
      <trkpt lat="35.239633910" lon="-106.476388630">
        <ele>2349.000</ele>
        <time>2019-05-02T15:22:59Z</time>
        <name>WPT.591</name>
      </trkpt>
      <trkpt lat="35.239678030" lon="-106.476387970">
        <ele>2349.000</ele>
        <time>2019-05-02T15:23:04Z</time>
        <name>WPT.592</name>
      </trkpt>
      <trkpt lat="35.239722130" lon="-106.476386440">
        <ele>2350.000</ele>
        <time>2019-05-02T15:23:08Z</time>
        <name>WPT.593</name>
      </trkpt>
      <trkpt lat="35.239757390" lon="-106.476374720">
        <ele>2351.000</ele>
        <time>2019-05-02T15:23:12Z</time>
        <name>WPT.594</name>
      </trkpt>
      <trkpt lat="35.239802090" lon="-106.476363320">
        <ele>2352.000</ele>
        <time>2019-05-02T15:23:17Z</time>
        <name>WPT.595</name>
      </trkpt>
      <trkpt lat="35.239833110" lon="-106.476388290">
        <ele>2353.000</ele>
        <time>2019-05-02T15:23:23Z</time>
        <name>WPT.596</name>
      </trkpt>
      <trkpt lat="35.239871550" lon="-106.476404980">
        <ele>2354.000</ele>
        <time>2019-05-02T15:23:28Z</time>
        <name>WPT.597</name>
      </trkpt>
      <trkpt lat="35.239907880" lon="-106.476408840">
        <ele>2356.000</ele>
        <time>2019-05-02T15:23:32Z</time>
        <name>WPT.598</name>
      </trkpt>
      <trkpt lat="35.239944710" lon="-106.476415800">
        <ele>2356.000</ele>
        <time>2019-05-02T15:23:40Z</time>
        <name>WPT.599</name>
      </trkpt>
      <trkpt lat="35.239986050" lon="-106.476402980">
        <ele>2353.000</ele>
        <time>2019-05-02T15:24:07Z</time>
        <name>WPT.600</name>
      </trkpt>
      <trkpt lat="35.240014190" lon="-106.476368200">
        <ele>2351.000</ele>
        <time>2019-05-02T15:24:10Z</time>
        <name>WPT.601</name>
      </trkpt>
      <trkpt lat="35.240047640" lon="-106.476397620">
        <ele>2355.000</ele>
        <time>2019-05-02T15:24:25Z</time>
        <name>WPT.602</name>
      </trkpt>
      <trkpt lat="35.240079740" lon="-106.476418780">
        <ele>2355.000</ele>
        <time>2019-05-02T15:24:29Z</time>
        <name>WPT.603</name>
      </trkpt>
      <trkpt lat="35.240120680" lon="-106.476428280">
        <ele>2357.000</ele>
        <time>2019-05-02T15:24:33Z</time>
        <name>WPT.604</name>
      </trkpt>
      <trkpt lat="35.240156980" lon="-106.476428000">
        <ele>2359.000</ele>
        <time>2019-05-02T15:24:38Z</time>
        <name>WPT.605</name>
      </trkpt>
      <trkpt lat="35.240197830" lon="-106.476429350">
        <ele>2359.000</ele>
        <time>2019-05-02T15:24:57Z</time>
        <name>WPT.606</name>
      </trkpt>
      <trkpt lat="35.240228320" lon="-106.476400470">
        <ele>2358.000</ele>
        <time>2019-05-02T15:25:00Z</time>
        <name>WPT.607</name>
      </trkpt>
      <trkpt lat="35.240245240" lon="-106.476353810">
        <ele>2360.000</ele>
        <time>2019-05-02T15:25:06Z</time>
        <name>WPT.608</name>
      </trkpt>
      <trkpt lat="35.240277710" lon="-106.476316840">
        <ele>2360.000</ele>
        <time>2019-05-02T15:25:11Z</time>
        <name>WPT.609</name>
      </trkpt>
      <trkpt lat="35.240308300" lon="-106.476286330">
        <ele>2361.000</ele>
        <time>2019-05-02T15:25:16Z</time>
        <name>WPT.610</name>
      </trkpt>
      <trkpt lat="35.240336820" lon="-106.476247040">
        <ele>2361.000</ele>
        <time>2019-05-02T15:25:21Z</time>
        <name>WPT.611</name>
      </trkpt>
      <trkpt lat="35.240373090" lon="-106.476232340">
        <ele>2362.000</ele>
        <time>2019-05-02T15:25:24Z</time>
        <name>WPT.612</name>
      </trkpt>
      <trkpt lat="35.240407660" lon="-106.476214830">
        <ele>2364.000</ele>
        <time>2019-05-02T15:25:28Z</time>
        <name>WPT.613</name>
      </trkpt>
      <trkpt lat="35.240440900" lon="-106.476193720">
        <ele>2364.000</ele>
        <time>2019-05-02T15:25:35Z</time>
        <name>WPT.614</name>
      </trkpt>
      <trkpt lat="35.240476120" lon="-106.476173720">
        <ele>2366.000</ele>
        <time>2019-05-02T15:25:39Z</time>
        <name>WPT.615</name>
      </trkpt>
      <trkpt lat="35.240513600" lon="-106.476140830">
        <ele>2366.000</ele>
        <time>2019-05-02T15:25:44Z</time>
        <name>WPT.616</name>
      </trkpt>
      <trkpt lat="35.240551880" lon="-106.476121640">
        <ele>2367.000</ele>
        <time>2019-05-02T15:25:49Z</time>
        <name>WPT.617</name>
      </trkpt>
      <trkpt lat="35.240579020" lon="-106.476088390">
        <ele>2369.000</ele>
        <time>2019-05-02T15:25:55Z</time>
        <name>WPT.618</name>
      </trkpt>
      <trkpt lat="35.240603540" lon="-106.476050660">
        <ele>2370.000</ele>
        <time>2019-05-02T15:26:00Z</time>
        <name>WPT.619</name>
      </trkpt>
      <trkpt lat="35.240600460" lon="-106.476001900">
        <ele>2370.000</ele>
        <time>2019-05-02T15:26:05Z</time>
        <name>WPT.620</name>
      </trkpt>
      <trkpt lat="35.240623710" lon="-106.475967970">
        <ele>2367.000</ele>
        <time>2019-05-02T15:28:12Z</time>
        <name>WPT.621</name>
      </trkpt>
      <trkpt lat="35.240657820" lon="-106.475949140">
        <ele>2370.000</ele>
        <time>2019-05-02T15:28:18Z</time>
        <name>WPT.622</name>
      </trkpt>
      <trkpt lat="35.240701680" lon="-106.475930180">
        <ele>2371.000</ele>
        <time>2019-05-02T15:28:24Z</time>
        <name>WPT.623</name>
      </trkpt>
      <trkpt lat="35.240744870" lon="-106.475916460">
        <ele>2372.000</ele>
        <time>2019-05-02T15:28:28Z</time>
        <name>WPT.624</name>
      </trkpt>
      <trkpt lat="35.240753810" lon="-106.475860140">
        <ele>2371.000</ele>
        <time>2019-05-02T15:28:32Z</time>
        <name>WPT.625</name>
      </trkpt>
      <trkpt lat="35.240764680" lon="-106.475811570">
        <ele>2371.000</ele>
        <time>2019-05-02T15:28:36Z</time>
        <name>WPT.626</name>
      </trkpt>
      <trkpt lat="35.240765450" lon="-106.475765550">
        <ele>2374.000</ele>
        <time>2019-05-02T15:28:42Z</time>
        <name>WPT.627</name>
      </trkpt>
      <trkpt lat="35.240771270" lon="-106.475716240">
        <ele>2376.000</ele>
        <time>2019-05-02T15:28:48Z</time>
        <name>WPT.628</name>
      </trkpt>
      <trkpt lat="35.240755110" lon="-106.475676600">
        <ele>2377.000</ele>
        <time>2019-05-02T15:28:52Z</time>
        <name>WPT.629</name>
      </trkpt>
      <trkpt lat="35.240729300" lon="-106.475636610">
        <ele>2376.000</ele>
        <time>2019-05-02T15:28:56Z</time>
        <name>WPT.630</name>
      </trkpt>
      <trkpt lat="35.240712400" lon="-106.475592970">
        <ele>2376.000</ele>
        <time>2019-05-02T15:29:01Z</time>
        <name>WPT.631</name>
      </trkpt>
      <trkpt lat="35.240693670" lon="-106.475550540">
        <ele>2376.000</ele>
        <time>2019-05-02T15:29:06Z</time>
        <name>WPT.632</name>
      </trkpt>
      <trkpt lat="35.240682180" lon="-106.475505780">
        <ele>2378.000</ele>
        <time>2019-05-02T15:29:11Z</time>
        <name>WPT.633</name>
      </trkpt>
      <trkpt lat="35.240665970" lon="-106.475462380">
        <ele>2380.000</ele>
        <time>2019-05-02T15:29:15Z</time>
        <name>WPT.634</name>
      </trkpt>
      <trkpt lat="35.240654730" lon="-106.475416930">
        <ele>2377.000</ele>
        <time>2019-05-02T15:29:20Z</time>
        <name>WPT.635</name>
      </trkpt>
      <trkpt lat="35.240648570" lon="-106.475368740">
        <ele>2378.000</ele>
        <time>2019-05-02T15:29:24Z</time>
        <name>WPT.636</name>
      </trkpt>
      <trkpt lat="35.240637900" lon="-106.475324590">
        <ele>2378.000</ele>
        <time>2019-05-02T15:29:28Z</time>
        <name>WPT.637</name>
      </trkpt>
      <trkpt lat="35.240660560" lon="-106.475287860">
        <ele>2380.000</ele>
        <time>2019-05-02T15:29:33Z</time>
        <name>WPT.638</name>
      </trkpt>
      <trkpt lat="35.240686800" lon="-106.475244510">
        <ele>2381.000</ele>
        <time>2019-05-02T15:30:13Z</time>
        <name>WPT.639</name>
      </trkpt>
      <trkpt lat="35.240727330" lon="-106.475223080">
        <ele>2382.000</ele>
        <time>2019-05-02T15:30:19Z</time>
        <name>WPT.640</name>
      </trkpt>
      <trkpt lat="35.240764450" lon="-106.475219780">
        <ele>2384.000</ele>
        <time>2019-05-02T15:30:23Z</time>
        <name>WPT.641</name>
      </trkpt>
      <trkpt lat="35.240806280" lon="-106.475210800">
        <ele>2385.000</ele>
        <time>2019-05-02T15:30:28Z</time>
        <name>WPT.642</name>
      </trkpt>
      <trkpt lat="35.240844520" lon="-106.475207640">
        <ele>2387.000</ele>
        <time>2019-05-02T15:30:32Z</time>
        <name>WPT.643</name>
      </trkpt>
      <trkpt lat="35.240882480" lon="-106.475202990">
        <ele>2388.000</ele>
        <time>2019-05-02T15:30:36Z</time>
        <name>WPT.644</name>
      </trkpt>
      <trkpt lat="35.240921180" lon="-106.475196750">
        <ele>2389.000</ele>
        <time>2019-05-02T15:30:41Z</time>
        <name>WPT.645</name>
      </trkpt>
      <trkpt lat="35.240953410" lon="-106.475168010">
        <ele>2390.000</ele>
        <time>2019-05-02T15:30:45Z</time>
        <name>WPT.646</name>
      </trkpt>
      <trkpt lat="35.240987360" lon="-106.475136110">
        <ele>2390.000</ele>
        <time>2019-05-02T15:30:51Z</time>
        <name>WPT.647</name>
      </trkpt>
      <trkpt lat="35.241025640" lon="-106.475119320">
        <ele>2391.000</ele>
        <time>2019-05-02T15:30:55Z</time>
        <name>WPT.648</name>
      </trkpt>
      <trkpt lat="35.241064020" lon="-106.475099270">
        <ele>2393.000</ele>
        <time>2019-05-02T15:31:01Z</time>
        <name>WPT.649</name>
      </trkpt>
      <trkpt lat="35.241104810" lon="-106.475084170">
        <ele>2393.000</ele>
        <time>2019-05-02T15:31:06Z</time>
        <name>WPT.650</name>
      </trkpt>
      <trkpt lat="35.241139670" lon="-106.475064090">
        <ele>2394.000</ele>
        <time>2019-05-02T15:31:10Z</time>
        <name>WPT.651</name>
      </trkpt>
      <trkpt lat="35.241179240" lon="-106.475026090">
        <ele>2393.000</ele>
        <time>2019-05-02T15:31:14Z</time>
        <name>WPT.652</name>
      </trkpt>
      <trkpt lat="35.241208710" lon="-106.474998310">
        <ele>2394.000</ele>
        <time>2019-05-02T15:31:19Z</time>
        <name>WPT.653</name>
      </trkpt>
      <trkpt lat="35.241242900" lon="-106.474975580">
        <ele>2396.000</ele>
        <time>2019-05-02T15:31:23Z</time>
        <name>WPT.654</name>
      </trkpt>
      <trkpt lat="35.241274400" lon="-106.474946670">
        <ele>2396.000</ele>
        <time>2019-05-02T15:31:27Z</time>
        <name>WPT.655</name>
      </trkpt>
      <trkpt lat="35.241307650" lon="-106.474918430">
        <ele>2395.000</ele>
        <time>2019-05-02T15:32:53Z</time>
        <name>WPT.656</name>
      </trkpt>
      <trkpt lat="35.241343460" lon="-106.474903880">
        <ele>2396.000</ele>
        <time>2019-05-02T15:32:57Z</time>
        <name>WPT.657</name>
      </trkpt>
      <trkpt lat="35.241381050" lon="-106.474890900">
        <ele>2398.000</ele>
        <time>2019-05-02T15:33:01Z</time>
        <name>WPT.658</name>
      </trkpt>
      <trkpt lat="35.241420190" lon="-106.474862810">
        <ele>2398.000</ele>
        <time>2019-05-02T15:33:05Z</time>
        <name>WPT.659</name>
      </trkpt>
      <trkpt lat="35.241453590" lon="-106.474846240">
        <ele>2397.000</ele>
        <time>2019-05-02T15:33:08Z</time>
        <name>WPT.660</name>
      </trkpt>
      <trkpt lat="35.241490810" lon="-106.474813570">
        <ele>2398.000</ele>
        <time>2019-05-02T15:33:12Z</time>
        <name>WPT.661</name>
      </trkpt>
      <trkpt lat="35.241516550" lon="-106.474771640">
        <ele>2398.000</ele>
        <time>2019-05-02T15:33:16Z</time>
        <name>WPT.662</name>
      </trkpt>
      <trkpt lat="35.241549760" lon="-106.474753490">
        <ele>2399.000</ele>
        <time>2019-05-02T15:33:20Z</time>
        <name>WPT.663</name>
      </trkpt>
      <trkpt lat="35.241588590" lon="-106.474751450">
        <ele>2399.000</ele>
        <time>2019-05-02T15:33:25Z</time>
        <name>WPT.664</name>
      </trkpt>
      <trkpt lat="35.241622980" lon="-106.474735350">
        <ele>2401.000</ele>
        <time>2019-05-02T15:33:31Z</time>
        <name>WPT.665</name>
      </trkpt>
      <trkpt lat="35.241666550" lon="-106.474708320">
        <ele>2401.000</ele>
        <time>2019-05-02T15:33:37Z</time>
        <name>WPT.666</name>
      </trkpt>
      <trkpt lat="35.241703680" lon="-106.474683940">
        <ele>2402.000</ele>
        <time>2019-05-02T15:33:42Z</time>
        <name>WPT.667</name>
      </trkpt>
      <trkpt lat="35.241747900" lon="-106.474697680">
        <ele>2403.000</ele>
        <time>2019-05-02T15:33:49Z</time>
        <name>WPT.668</name>
      </trkpt>
      <trkpt lat="35.241780680" lon="-106.474671820">
        <ele>2402.000</ele>
        <time>2019-05-02T15:33:53Z</time>
        <name>WPT.669</name>
      </trkpt>
      <trkpt lat="35.241814990" lon="-106.474657040">
        <ele>2402.000</ele>
        <time>2019-05-02T15:33:57Z</time>
        <name>WPT.670</name>
      </trkpt>
      <trkpt lat="35.241847370" lon="-106.474690090">
        <ele>2403.000</ele>
        <time>2019-05-02T15:34:02Z</time>
        <name>WPT.671</name>
      </trkpt>
      <trkpt lat="35.241884650" lon="-106.474709270">
        <ele>2402.000</ele>
        <time>2019-05-02T15:34:07Z</time>
        <name>WPT.672</name>
      </trkpt>
      <trkpt lat="35.241924090" lon="-106.474720480">
        <ele>2402.000</ele>
        <time>2019-05-02T15:34:12Z</time>
        <name>WPT.673</name>
      </trkpt>
      <trkpt lat="35.241966870" lon="-106.474739170">
        <ele>2404.000</ele>
        <time>2019-05-02T15:34:20Z</time>
        <name>WPT.674</name>
      </trkpt>
      <trkpt lat="35.242012410" lon="-106.474731420">
        <ele>2403.000</ele>
        <time>2019-05-02T15:34:25Z</time>
        <name>WPT.675</name>
      </trkpt>
      <trkpt lat="35.242053090" lon="-106.474722610">
        <ele>2402.000</ele>
        <time>2019-05-02T15:34:29Z</time>
        <name>WPT.676</name>
      </trkpt>
      <trkpt lat="35.242093840" lon="-106.474723370">
        <ele>2401.000</ele>
        <time>2019-05-02T15:34:35Z</time>
        <name>WPT.677</name>
      </trkpt>
      <trkpt lat="35.242115880" lon="-106.474758190">
        <ele>2402.000</ele>
        <time>2019-05-02T15:34:40Z</time>
        <name>WPT.678</name>
      </trkpt>
      <trkpt lat="35.242152430" lon="-106.474778740">
        <ele>2401.000</ele>
        <time>2019-05-02T15:34:44Z</time>
        <name>WPT.679</name>
      </trkpt>
      <trkpt lat="35.242186590" lon="-106.474805680">
        <ele>2402.000</ele>
        <time>2019-05-02T15:34:49Z</time>
        <name>WPT.680</name>
      </trkpt>
      <trkpt lat="35.242211960" lon="-106.474838640">
        <ele>2403.000</ele>
        <time>2019-05-02T15:34:54Z</time>
        <name>WPT.681</name>
      </trkpt>
      <trkpt lat="35.242246600" lon="-106.474858180">
        <ele>2403.000</ele>
        <time>2019-05-02T15:37:18Z</time>
        <name>WPT.682</name>
      </trkpt>
      <trkpt lat="35.242283630" lon="-106.474885470">
        <ele>2406.000</ele>
        <time>2019-05-02T15:37:23Z</time>
        <name>WPT.683</name>
      </trkpt>
      <trkpt lat="35.242319140" lon="-106.474905090">
        <ele>2408.000</ele>
        <time>2019-05-02T15:37:28Z</time>
        <name>WPT.684</name>
      </trkpt>
      <trkpt lat="35.242342540" lon="-106.474942530">
        <ele>2410.000</ele>
        <time>2019-05-02T15:37:35Z</time>
        <name>WPT.685</name>
      </trkpt>
      <trkpt lat="35.242363230" lon="-106.474982590">
        <ele>2409.000</ele>
        <time>2019-05-02T15:37:41Z</time>
        <name>WPT.686</name>
      </trkpt>
      <trkpt lat="35.242359310" lon="-106.475049290">
        <ele>2413.000</ele>
        <time>2019-05-02T15:37:52Z</time>
        <name>WPT.687</name>
      </trkpt>
      <trkpt lat="35.242376130" lon="-106.475090770">
        <ele>2414.000</ele>
        <time>2019-05-02T15:37:56Z</time>
        <name>WPT.688</name>
      </trkpt>
      <trkpt lat="35.242395920" lon="-106.475136260">
        <ele>2415.000</ele>
        <time>2019-05-02T15:38:00Z</time>
        <name>WPT.689</name>
      </trkpt>
      <trkpt lat="35.242434850" lon="-106.475144640">
        <ele>2417.000</ele>
        <time>2019-05-02T15:38:05Z</time>
        <name>WPT.690</name>
      </trkpt>
      <trkpt lat="35.242469060" lon="-106.475161600">
        <ele>2418.000</ele>
        <time>2019-05-02T15:38:10Z</time>
        <name>WPT.691</name>
      </trkpt>
      <trkpt lat="35.242497900" lon="-106.475192040">
        <ele>2420.000</ele>
        <time>2019-05-02T15:38:16Z</time>
        <name>WPT.692</name>
      </trkpt>
      <trkpt lat="35.242525560" lon="-106.475222880">
        <ele>2419.000</ele>
        <time>2019-05-02T15:38:22Z</time>
        <name>WPT.693</name>
      </trkpt>
      <trkpt lat="35.242559070" lon="-106.475244380">
        <ele>2418.000</ele>
        <time>2019-05-02T15:38:27Z</time>
        <name>WPT.694</name>
      </trkpt>
      <trkpt lat="35.242599390" lon="-106.475237710">
        <ele>2417.000</ele>
        <time>2019-05-02T15:38:32Z</time>
        <name>WPT.695</name>
      </trkpt>
      <trkpt lat="35.242630720" lon="-106.475212160">
        <ele>2417.000</ele>
        <time>2019-05-02T15:39:10Z</time>
        <name>WPT.696</name>
      </trkpt>
      <trkpt lat="35.242642980" lon="-106.475168830">
        <ele>2417.000</ele>
        <time>2019-05-02T15:39:17Z</time>
        <name>WPT.697</name>
      </trkpt>
      <trkpt lat="35.242651520" lon="-106.475118700">
        <ele>2420.000</ele>
        <time>2019-05-02T15:39:23Z</time>
        <name>WPT.698</name>
      </trkpt>
      <trkpt lat="35.242655230" lon="-106.475070470">
        <ele>2423.000</ele>
        <time>2019-05-02T15:39:30Z</time>
        <name>WPT.699</name>
      </trkpt>
      <trkpt lat="35.242644060" lon="-106.475018340">
        <ele>2423.000</ele>
        <time>2019-05-02T15:39:36Z</time>
        <name>WPT.700</name>
      </trkpt>
      <trkpt lat="35.242642440" lon="-106.474972370">
        <ele>2426.000</ele>
        <time>2019-05-02T15:39:44Z</time>
        <name>WPT.701</name>
      </trkpt>
      <trkpt lat="35.242660380" lon="-106.475010970">
        <ele>2424.000</ele>
        <time>2019-05-02T15:40:01Z</time>
        <name>WPT.702</name>
      </trkpt>
      <trkpt lat="35.242663330" lon="-106.475056890">
        <ele>2428.000</ele>
        <time>2019-05-02T15:40:16Z</time>
        <name>WPT.703</name>
      </trkpt>
      <trkpt lat="35.242687500" lon="-106.475010290">
        <ele>2422.000</ele>
        <time>2019-05-02T15:40:24Z</time>
        <name>WPT.704</name>
      </trkpt>
      <trkpt lat="35.242708640" lon="-106.475051880">
        <ele>2423.000</ele>
        <time>2019-05-02T15:41:02Z</time>
        <name>WPT.705</name>
      </trkpt>
      <trkpt lat="35.242718840" lon="-106.475100480">
        <ele>2424.000</ele>
        <time>2019-05-02T15:41:12Z</time>
        <name>WPT.706</name>
      </trkpt>
      <trkpt lat="35.242744740" lon="-106.475137050">
        <ele>2425.000</ele>
        <time>2019-05-02T15:41:17Z</time>
        <name>WPT.707</name>
      </trkpt>
      <trkpt lat="35.242757870" lon="-106.475186900">
        <ele>2427.000</ele>
        <time>2019-05-02T15:41:21Z</time>
        <name>WPT.708</name>
      </trkpt>
      <trkpt lat="35.242775290" lon="-106.475229510">
        <ele>2430.000</ele>
        <time>2019-05-02T15:41:26Z</time>
        <name>WPT.709</name>
      </trkpt>
      <trkpt lat="35.242801410" lon="-106.475265260">
        <ele>2431.000</ele>
        <time>2019-05-02T15:41:30Z</time>
        <name>WPT.710</name>
      </trkpt>
      <trkpt lat="35.242837180" lon="-106.475297060">
        <ele>2432.000</ele>
        <time>2019-05-02T15:41:34Z</time>
        <name>WPT.711</name>
      </trkpt>
      <trkpt lat="35.242875470" lon="-106.475311190">
        <ele>2433.000</ele>
        <time>2019-05-02T15:41:39Z</time>
        <name>WPT.712</name>
      </trkpt>
      <trkpt lat="35.242909810" lon="-106.475326830">
        <ele>2433.000</ele>
        <time>2019-05-02T15:41:45Z</time>
        <name>WPT.713</name>
      </trkpt>
      <trkpt lat="35.242946600" lon="-106.475328390">
        <ele>2435.000</ele>
        <time>2019-05-02T15:41:50Z</time>
        <name>WPT.714</name>
      </trkpt>
      <trkpt lat="35.242991270" lon="-106.475326860">
        <ele>2434.000</ele>
        <time>2019-05-02T15:41:55Z</time>
        <name>WPT.715</name>
      </trkpt>
      <trkpt lat="35.243027710" lon="-106.475354790">
        <ele>2435.000</ele>
        <time>2019-05-02T15:41:59Z</time>
        <name>WPT.716</name>
      </trkpt>
      <trkpt lat="35.243067620" lon="-106.475350170">
        <ele>2435.000</ele>
        <time>2019-05-02T15:42:39Z</time>
        <name>WPT.717</name>
      </trkpt>
      <trkpt lat="35.243102820" lon="-106.475324100">
        <ele>2428.000</ele>
        <time>2019-05-02T15:44:29Z</time>
        <name>WPT.718</name>
      </trkpt>
      <trkpt lat="35.243127910" lon="-106.475359680">
        <ele>2430.000</ele>
        <time>2019-05-02T15:44:34Z</time>
        <name>WPT.719</name>
      </trkpt>
      <trkpt lat="35.243166820" lon="-106.475374660">
        <ele>2429.000</ele>
        <time>2019-05-02T15:44:37Z</time>
        <name>WPT.720</name>
      </trkpt>
      <trkpt lat="35.243188570" lon="-106.475410590">
        <ele>2431.000</ele>
        <time>2019-05-02T15:44:40Z</time>
        <name>WPT.721</name>
      </trkpt>
      <trkpt lat="35.243221060" lon="-106.475444580">
        <ele>2432.000</ele>
        <time>2019-05-02T15:44:44Z</time>
        <name>WPT.722</name>
      </trkpt>
      <trkpt lat="35.243254790" lon="-106.475471050">
        <ele>2433.000</ele>
        <time>2019-05-02T15:44:48Z</time>
        <name>WPT.723</name>
      </trkpt>
      <trkpt lat="35.243290490" lon="-106.475494970">
        <ele>2433.000</ele>
        <time>2019-05-02T15:44:52Z</time>
        <name>WPT.724</name>
      </trkpt>
      <trkpt lat="35.243320900" lon="-106.475521220">
        <ele>2436.000</ele>
        <time>2019-05-02T15:44:57Z</time>
        <name>WPT.725</name>
      </trkpt>
      <trkpt lat="35.243365010" lon="-106.475527160">
        <ele>2435.000</ele>
        <time>2019-05-02T15:45:01Z</time>
        <name>WPT.726</name>
      </trkpt>
      <trkpt lat="35.243401550" lon="-106.475534250">
        <ele>2433.000</ele>
        <time>2019-05-02T15:45:04Z</time>
        <name>WPT.727</name>
      </trkpt>
      <trkpt lat="35.243425440" lon="-106.475572290">
        <ele>2433.000</ele>
        <time>2019-05-02T15:45:07Z</time>
        <name>WPT.728</name>
      </trkpt>
      <trkpt lat="35.243458920" lon="-106.475596240">
        <ele>2435.000</ele>
        <time>2019-05-02T15:45:14Z</time>
        <name>WPT.729</name>
      </trkpt>
      <trkpt lat="35.243483310" lon="-106.475558180">
        <ele>2433.000</ele>
        <time>2019-05-02T15:45:25Z</time>
        <name>WPT.730</name>
      </trkpt>
      <trkpt lat="35.243520380" lon="-106.475545270">
        <ele>2432.000</ele>
        <time>2019-05-02T15:46:06Z</time>
        <name>WPT.731</name>
      </trkpt>
      <trkpt lat="35.243556400" lon="-106.475556740">
        <ele>2432.000</ele>
        <time>2019-05-02T15:46:25Z</time>
        <name>WPT.732</name>
      </trkpt>
      <trkpt lat="35.243592240" lon="-106.475547110">
        <ele>2431.000</ele>
        <time>2019-05-02T15:46:28Z</time>
        <name>WPT.733</name>
      </trkpt>
      <trkpt lat="35.243632600" lon="-106.475541050">
        <ele>2433.000</ele>
        <time>2019-05-02T15:46:34Z</time>
        <name>WPT.734</name>
      </trkpt>
      <trkpt lat="35.243670760" lon="-106.475530730">
        <ele>2435.000</ele>
        <time>2019-05-02T15:46:39Z</time>
        <name>WPT.735</name>
      </trkpt>
      <trkpt lat="35.243708660" lon="-106.475524470">
        <ele>2436.000</ele>
        <time>2019-05-02T15:46:43Z</time>
        <name>WPT.736</name>
      </trkpt>
      <trkpt lat="35.243743880" lon="-106.475511550">
        <ele>2436.000</ele>
        <time>2019-05-02T15:46:46Z</time>
        <name>WPT.737</name>
      </trkpt>
      <trkpt lat="35.243781410" lon="-106.475534030">
        <ele>2439.000</ele>
        <time>2019-05-02T15:46:52Z</time>
        <name>WPT.738</name>
      </trkpt>
      <trkpt lat="35.243820740" lon="-106.475526080">
        <ele>2441.000</ele>
        <time>2019-05-02T15:46:59Z</time>
        <name>WPT.739</name>
      </trkpt>
      <trkpt lat="35.243859830" lon="-106.475528810">
        <ele>2441.000</ele>
        <time>2019-05-02T15:47:03Z</time>
        <name>WPT.740</name>
      </trkpt>
      <trkpt lat="35.243900350" lon="-106.475518630">
        <ele>2439.000</ele>
        <time>2019-05-02T15:47:07Z</time>
        <name>WPT.741</name>
      </trkpt>
      <trkpt lat="35.243943800" lon="-106.475526710">
        <ele>2440.000</ele>
        <time>2019-05-02T15:47:13Z</time>
        <name>WPT.742</name>
      </trkpt>
      <trkpt lat="35.243980580" lon="-106.475515890">
        <ele>2440.000</ele>
        <time>2019-05-02T15:47:17Z</time>
        <name>WPT.743</name>
      </trkpt>
      <trkpt lat="35.244017740" lon="-106.475535420">
        <ele>2442.000</ele>
        <time>2019-05-02T15:47:22Z</time>
        <name>WPT.744</name>
      </trkpt>
      <trkpt lat="35.244064090" lon="-106.475542360">
        <ele>2444.000</ele>
        <time>2019-05-02T15:47:28Z</time>
        <name>WPT.745</name>
      </trkpt>
      <trkpt lat="35.244106150" lon="-106.475554790">
        <ele>2445.000</ele>
        <time>2019-05-02T15:47:34Z</time>
        <name>WPT.746</name>
      </trkpt>
      <trkpt lat="35.244148940" lon="-106.475558800">
        <ele>2448.000</ele>
        <time>2019-05-02T15:47:40Z</time>
        <name>WPT.747</name>
      </trkpt>
      <trkpt lat="35.244186320" lon="-106.475567450">
        <ele>2449.000</ele>
        <time>2019-05-02T15:48:02Z</time>
        <name>WPT.748</name>
      </trkpt>
      <trkpt lat="35.244210530" lon="-106.475533810">
        <ele>2449.000</ele>
        <time>2019-05-02T15:48:24Z</time>
        <name>WPT.749</name>
      </trkpt>
      <trkpt lat="35.244247950" lon="-106.475537800">
        <ele>2452.000</ele>
        <time>2019-05-02T15:49:24Z</time>
        <name>WPT.750</name>
      </trkpt>
      <trkpt lat="35.244239770" lon="-106.475585050">
        <ele>2455.000</ele>
        <time>2019-05-02T15:49:28Z</time>
        <name>WPT.751</name>
      </trkpt>
      <trkpt lat="35.244269380" lon="-106.475612090">
        <ele>2455.000</ele>
        <time>2019-05-02T15:49:48Z</time>
        <name>WPT.752</name>
      </trkpt>
      <trkpt lat="35.244291800" lon="-106.475647700">
        <ele>2458.000</ele>
        <time>2019-05-02T15:49:53Z</time>
        <name>WPT.753</name>
      </trkpt>
      <trkpt lat="35.244319150" lon="-106.475677390">
        <ele>2458.000</ele>
        <time>2019-05-02T15:50:00Z</time>
        <name>WPT.754</name>
      </trkpt>
      <trkpt lat="35.244366210" lon="-106.475676350">
        <ele>2453.000</ele>
        <time>2019-05-02T15:52:00Z</time>
        <name>WPT.755</name>
      </trkpt>
      <trkpt lat="35.244392160" lon="-106.475707980">
        <ele>2452.000</ele>
        <time>2019-05-02T15:52:06Z</time>
        <name>WPT.756</name>
      </trkpt>
      <trkpt lat="35.244420910" lon="-106.475748430">
        <ele>2452.000</ele>
        <time>2019-05-02T15:52:13Z</time>
        <name>WPT.757</name>
      </trkpt>
      <trkpt lat="35.244457540" lon="-106.475767020">
        <ele>2452.000</ele>
        <time>2019-05-02T15:52:26Z</time>
        <name>WPT.758</name>
      </trkpt>
      <trkpt lat="35.244461640" lon="-106.475812550">
        <ele>2454.000</ele>
        <time>2019-05-02T15:52:40Z</time>
        <name>WPT.759</name>
      </trkpt>
      <trkpt lat="35.244497860" lon="-106.475852550">
        <ele>2457.000</ele>
        <time>2019-05-02T15:52:43Z</time>
        <name>WPT.760</name>
      </trkpt>
      <trkpt lat="35.244520170" lon="-106.475816720">
        <ele>2456.000</ele>
        <time>2019-05-02T15:52:50Z</time>
        <name>WPT.761</name>
      </trkpt>
      <trkpt lat="35.244513560" lon="-106.475772060">
        <ele>2459.000</ele>
        <time>2019-05-02T15:52:57Z</time>
        <name>WPT.762</name>
      </trkpt>
      <trkpt lat="35.244539290" lon="-106.475737320">
        <ele>2459.000</ele>
        <time>2019-05-02T15:53:05Z</time>
        <name>WPT.763</name>
      </trkpt>
      <trkpt lat="35.244551500" lon="-106.475681110">
        <ele>2462.000</ele>
        <time>2019-05-02T15:53:16Z</time>
        <name>WPT.764</name>
      </trkpt>
      <trkpt lat="35.244534570" lon="-106.475638430">
        <ele>2461.000</ele>
        <time>2019-05-02T15:53:20Z</time>
        <name>WPT.765</name>
      </trkpt>
      <trkpt lat="35.244537430" lon="-106.475579510">
        <ele>2459.000</ele>
        <time>2019-05-02T15:53:25Z</time>
        <name>WPT.766</name>
      </trkpt>
      <trkpt lat="35.244559160" lon="-106.475535690">
        <ele>2457.000</ele>
        <time>2019-05-02T15:53:29Z</time>
        <name>WPT.767</name>
      </trkpt>
      <trkpt lat="35.244574100" lon="-106.475494170">
        <ele>2459.000</ele>
        <time>2019-05-02T15:53:34Z</time>
        <name>WPT.768</name>
      </trkpt>
      <trkpt lat="35.244577630" lon="-106.475445600">
        <ele>2461.000</ele>
        <time>2019-05-02T15:53:42Z</time>
        <name>WPT.769</name>
      </trkpt>
      <trkpt lat="35.244586620" lon="-106.475400030">
        <ele>2462.000</ele>
        <time>2019-05-02T15:53:46Z</time>
        <name>WPT.770</name>
      </trkpt>
      <trkpt lat="35.244593370" lon="-106.475354310">
        <ele>2463.000</ele>
        <time>2019-05-02T15:53:50Z</time>
        <name>WPT.771</name>
      </trkpt>
      <trkpt lat="35.244604040" lon="-106.475302560">
        <ele>2464.000</ele>
        <time>2019-05-02T15:53:56Z</time>
        <name>WPT.772</name>
      </trkpt>
      <trkpt lat="35.244635240" lon="-106.475269300">
        <ele>2466.000</ele>
        <time>2019-05-02T15:54:01Z</time>
        <name>WPT.773</name>
      </trkpt>
      <trkpt lat="35.244605860" lon="-106.475241880">
        <ele>2463.000</ele>
        <time>2019-05-02T15:54:16Z</time>
        <name>WPT.774</name>
      </trkpt>
      <trkpt lat="35.244575000" lon="-106.475204720">
        <ele>2463.000</ele>
        <time>2019-05-02T15:54:24Z</time>
        <name>WPT.775</name>
      </trkpt>
      <trkpt lat="35.244553590" lon="-106.475164840">
        <ele>2462.000</ele>
        <time>2019-05-02T15:54:31Z</time>
        <name>WPT.776</name>
      </trkpt>
      <trkpt lat="35.244522220" lon="-106.475137180">
        <ele>2461.000</ele>
        <time>2019-05-02T15:54:36Z</time>
        <name>WPT.777</name>
      </trkpt>
      <trkpt lat="35.244498150" lon="-106.475092890">
        <ele>2460.000</ele>
        <time>2019-05-02T15:54:41Z</time>
        <name>WPT.778</name>
      </trkpt>
      <trkpt lat="35.244465350" lon="-106.475073230">
        <ele>2461.000</ele>
        <time>2019-05-02T15:55:06Z</time>
        <name>WPT.779</name>
      </trkpt>
      <trkpt lat="35.244430590" lon="-106.475040740">
        <ele>2461.000</ele>
        <time>2019-05-02T15:55:13Z</time>
        <name>WPT.780</name>
      </trkpt>
      <trkpt lat="35.244401880" lon="-106.475010720">
        <ele>2462.000</ele>
        <time>2019-05-02T15:55:18Z</time>
        <name>WPT.781</name>
      </trkpt>
      <trkpt lat="35.244392930" lon="-106.474966300">
        <ele>2465.000</ele>
        <time>2019-05-02T15:58:58Z</time>
        <name>WPT.782</name>
      </trkpt>
      <trkpt lat="35.244399570" lon="-106.475010460">
        <ele>2468.000</ele>
        <time>2019-05-02T16:10:50Z</time>
        <name>WPT.783</name>
      </trkpt>
      <trkpt lat="35.244433590" lon="-106.474994750">
        <ele>2467.000</ele>
        <time>2019-05-02T16:12:21Z</time>
        <name>WPT.784</name>
      </trkpt>
      <trkpt lat="35.244395470" lon="-106.474990500">
        <ele>2464.000</ele>
        <time>2019-05-02T16:13:08Z</time>
        <name>WPT.785</name>
      </trkpt>
      <trkpt lat="35.244374390" lon="-106.474946700">
        <ele>2468.000</ele>
        <time>2019-05-02T16:23:57Z</time>
        <name>WPT.786</name>
      </trkpt>
      <trkpt lat="35.244403270" lon="-106.474973750">
        <ele>2466.000</ele>
        <time>2019-05-02T16:46:35Z</time>
        <name>WPT.787</name>
      </trkpt>
      <trkpt lat="35.244433820" lon="-106.474997130">
        <ele>2467.000</ele>
        <time>2019-05-02T16:48:26Z</time>
        <name>WPT.788</name>
      </trkpt>
      <trkpt lat="35.244398760" lon="-106.474986310">
        <ele>2468.000</ele>
        <time>2019-05-02T16:51:44Z</time>
        <name>WPT.789</name>
      </trkpt>
      <trkpt lat="35.244429830" lon="-106.475015030">
        <ele>2467.000</ele>
        <time>2019-05-02T16:53:10Z</time>
        <name>WPT.790</name>
      </trkpt>
      <trkpt lat="35.244456760" lon="-106.475051620">
        <ele>2466.000</ele>
        <time>2019-05-02T16:53:17Z</time>
        <name>WPT.791</name>
      </trkpt>
      <trkpt lat="35.244482500" lon="-106.475095980">
        <ele>2466.000</ele>
        <time>2019-05-02T16:53:24Z</time>
        <name>WPT.792</name>
      </trkpt>
      <trkpt lat="35.244497120" lon="-106.475144350">
        <ele>2464.000</ele>
        <time>2019-05-02T16:53:30Z</time>
        <name>WPT.793</name>
      </trkpt>
      <trkpt lat="35.244525340" lon="-106.475186030">
        <ele>2463.000</ele>
        <time>2019-05-02T16:53:34Z</time>
        <name>WPT.794</name>
      </trkpt>
      <trkpt lat="35.244559630" lon="-106.475207160">
        <ele>2462.000</ele>
        <time>2019-05-02T16:53:47Z</time>
        <name>WPT.795</name>
      </trkpt>
      <trkpt lat="35.244581700" lon="-106.475246970">
        <ele>2462.000</ele>
        <time>2019-05-02T16:54:03Z</time>
        <name>WPT.796</name>
      </trkpt>
      <trkpt lat="35.244572430" lon="-106.475290740">
        <ele>2462.000</ele>
        <time>2019-05-02T16:54:19Z</time>
        <name>WPT.797</name>
      </trkpt>
      <trkpt lat="35.244563900" lon="-106.475338540">
        <ele>2462.000</ele>
        <time>2019-05-02T16:54:28Z</time>
        <name>WPT.798</name>
      </trkpt>
      <trkpt lat="35.244543150" lon="-106.475375290">
        <ele>2462.000</ele>
        <time>2019-05-02T16:54:36Z</time>
        <name>WPT.799</name>
      </trkpt>
      <trkpt lat="35.244524340" lon="-106.475415730">
        <ele>2461.000</ele>
        <time>2019-05-02T16:54:42Z</time>
        <name>WPT.800</name>
      </trkpt>
      <trkpt lat="35.244515620" lon="-106.475458810">
        <ele>2460.000</ele>
        <time>2019-05-02T16:54:47Z</time>
        <name>WPT.801</name>
      </trkpt>
      <trkpt lat="35.244505820" lon="-106.475507580">
        <ele>2460.000</ele>
        <time>2019-05-02T16:54:53Z</time>
        <name>WPT.802</name>
      </trkpt>
      <trkpt lat="35.244500660" lon="-106.475559280">
        <ele>2459.000</ele>
        <time>2019-05-02T16:54:58Z</time>
        <name>WPT.803</name>
      </trkpt>
      <trkpt lat="35.244509210" lon="-106.475609860">
        <ele>2459.000</ele>
        <time>2019-05-02T16:55:02Z</time>
        <name>WPT.804</name>
      </trkpt>
      <trkpt lat="35.244509660" lon="-106.475655500">
        <ele>2459.000</ele>
        <time>2019-05-02T16:55:06Z</time>
        <name>WPT.805</name>
      </trkpt>
      <trkpt lat="35.244497030" lon="-106.475698970">
        <ele>2460.000</ele>
        <time>2019-05-02T16:55:10Z</time>
        <name>WPT.806</name>
      </trkpt>
      <trkpt lat="35.244481290" lon="-106.475742220">
        <ele>2462.000</ele>
        <time>2019-05-02T16:55:14Z</time>
        <name>WPT.807</name>
      </trkpt>
      <trkpt lat="35.244482700" lon="-106.475786890">
        <ele>2462.000</ele>
        <time>2019-05-02T16:55:20Z</time>
        <name>WPT.808</name>
      </trkpt>
      <trkpt lat="35.244484160" lon="-106.475831860">
        <ele>2461.000</ele>
        <time>2019-05-02T16:55:25Z</time>
        <name>WPT.809</name>
      </trkpt>
      <trkpt lat="35.244471540" lon="-106.475784320">
        <ele>2458.000</ele>
        <time>2019-05-02T16:55:43Z</time>
        <name>WPT.810</name>
      </trkpt>
      <trkpt lat="35.244445970" lon="-106.475741670">
        <ele>2454.000</ele>
        <time>2019-05-02T16:56:01Z</time>
        <name>WPT.811</name>
      </trkpt>
      <trkpt lat="35.244418360" lon="-106.475710070">
        <ele>2454.000</ele>
        <time>2019-05-02T16:56:12Z</time>
        <name>WPT.812</name>
      </trkpt>
      <trkpt lat="35.244390430" lon="-106.475671650">
        <ele>2453.000</ele>
        <time>2019-05-02T16:56:23Z</time>
        <name>WPT.813</name>
      </trkpt>
      <trkpt lat="35.244367750" lon="-106.475628470">
        <ele>2450.000</ele>
        <time>2019-05-02T16:56:29Z</time>
        <name>WPT.814</name>
      </trkpt>
      <trkpt lat="35.244327310" lon="-106.475604870">
        <ele>2448.000</ele>
        <time>2019-05-02T16:56:35Z</time>
        <name>WPT.815</name>
      </trkpt>
      <trkpt lat="35.244306670" lon="-106.475562250">
        <ele>2448.000</ele>
        <time>2019-05-02T16:56:43Z</time>
        <name>WPT.816</name>
      </trkpt>
      <trkpt lat="35.244279030" lon="-106.475530460">
        <ele>2444.000</ele>
        <time>2019-05-02T16:56:55Z</time>
        <name>WPT.817</name>
      </trkpt>
      <trkpt lat="35.244249090" lon="-106.475505050">
        <ele>2446.000</ele>
        <time>2019-05-02T16:57:07Z</time>
        <name>WPT.818</name>
      </trkpt>
      <trkpt lat="35.244210940" lon="-106.475495300">
        <ele>2445.000</ele>
        <time>2019-05-02T16:57:12Z</time>
        <name>WPT.819</name>
      </trkpt>
      <trkpt lat="35.244174170" lon="-106.475509200">
        <ele>2441.000</ele>
        <time>2019-05-02T16:57:25Z</time>
        <name>WPT.820</name>
      </trkpt>
      <trkpt lat="35.244138110" lon="-106.475508510">
        <ele>2442.000</ele>
        <time>2019-05-02T16:57:31Z</time>
        <name>WPT.821</name>
      </trkpt>
      <trkpt lat="35.244099220" lon="-106.475502500">
        <ele>2444.000</ele>
        <time>2019-05-02T16:57:38Z</time>
        <name>WPT.822</name>
      </trkpt>
      <trkpt lat="35.244063310" lon="-106.475507170">
        <ele>2443.000</ele>
        <time>2019-05-02T16:57:41Z</time>
        <name>WPT.823</name>
      </trkpt>
      <trkpt lat="35.244024080" lon="-106.475494350">
        <ele>2445.000</ele>
        <time>2019-05-02T16:57:45Z</time>
        <name>WPT.824</name>
      </trkpt>
      <trkpt lat="35.243989440" lon="-106.475474660">
        <ele>2444.000</ele>
        <time>2019-05-02T16:57:52Z</time>
        <name>WPT.825</name>
      </trkpt>
      <trkpt lat="35.243949620" lon="-106.475479050">
        <ele>2438.000</ele>
        <time>2019-05-02T16:57:58Z</time>
        <name>WPT.826</name>
      </trkpt>
      <trkpt lat="35.243912610" lon="-106.475457560">
        <ele>2438.000</ele>
        <time>2019-05-02T16:58:03Z</time>
        <name>WPT.827</name>
      </trkpt>
      <trkpt lat="35.243870720" lon="-106.475451040">
        <ele>2436.000</ele>
        <time>2019-05-02T16:58:09Z</time>
        <name>WPT.828</name>
      </trkpt>
      <trkpt lat="35.243834120" lon="-106.475450400">
        <ele>2437.000</ele>
        <time>2019-05-02T16:58:23Z</time>
        <name>WPT.829</name>
      </trkpt>
      <trkpt lat="35.243793600" lon="-106.475457320">
        <ele>2438.000</ele>
        <time>2019-05-02T16:58:34Z</time>
        <name>WPT.830</name>
      </trkpt>
      <trkpt lat="35.243757740" lon="-106.475477050">
        <ele>2437.000</ele>
        <time>2019-05-02T16:58:39Z</time>
        <name>WPT.831</name>
      </trkpt>
      <trkpt lat="35.243713520" lon="-106.475476300">
        <ele>2437.000</ele>
        <time>2019-05-02T16:58:45Z</time>
        <name>WPT.832</name>
      </trkpt>
      <trkpt lat="35.243678050" lon="-106.475484300">
        <ele>2432.000</ele>
        <time>2019-05-02T16:58:54Z</time>
        <name>WPT.833</name>
      </trkpt>
      <trkpt lat="35.243642060" lon="-106.475479840">
        <ele>2431.000</ele>
        <time>2019-05-02T16:58:59Z</time>
        <name>WPT.834</name>
      </trkpt>
      <trkpt lat="35.243603590" lon="-106.475492080">
        <ele>2433.000</ele>
        <time>2019-05-02T16:59:05Z</time>
        <name>WPT.835</name>
      </trkpt>
      <trkpt lat="35.243562360" lon="-106.475491800">
        <ele>2435.000</ele>
        <time>2019-05-02T16:59:13Z</time>
        <name>WPT.836</name>
      </trkpt>
      <trkpt lat="35.243524620" lon="-106.475503530">
        <ele>2435.000</ele>
        <time>2019-05-02T16:59:22Z</time>
        <name>WPT.837</name>
      </trkpt>
      <trkpt lat="35.243487510" lon="-106.475495100">
        <ele>2433.000</ele>
        <time>2019-05-02T16:59:32Z</time>
        <name>WPT.838</name>
      </trkpt>
      <trkpt lat="35.243449980" lon="-106.475474240">
        <ele>2433.000</ele>
        <time>2019-05-02T16:59:38Z</time>
        <name>WPT.839</name>
      </trkpt>
      <trkpt lat="35.243411000" lon="-106.475468640">
        <ele>2432.000</ele>
        <time>2019-05-02T16:59:42Z</time>
        <name>WPT.840</name>
      </trkpt>
      <trkpt lat="35.243369690" lon="-106.475450850">
        <ele>2430.000</ele>
        <time>2019-05-02T16:59:48Z</time>
        <name>WPT.841</name>
      </trkpt>
      <trkpt lat="35.243331780" lon="-106.475443350">
        <ele>2429.000</ele>
        <time>2019-05-02T17:00:04Z</time>
        <name>WPT.842</name>
      </trkpt>
      <trkpt lat="35.243306160" lon="-106.475412020">
        <ele>2428.000</ele>
        <time>2019-05-02T17:00:14Z</time>
        <name>WPT.843</name>
      </trkpt>
      <trkpt lat="35.243276670" lon="-106.475386510">
        <ele>2427.000</ele>
        <time>2019-05-02T17:00:18Z</time>
        <name>WPT.844</name>
      </trkpt>
      <trkpt lat="35.243243740" lon="-106.475362840">
        <ele>2425.000</ele>
        <time>2019-05-02T17:00:24Z</time>
        <name>WPT.845</name>
      </trkpt>
      <trkpt lat="35.243211510" lon="-106.475342270">
        <ele>2425.000</ele>
        <time>2019-05-02T17:00:29Z</time>
        <name>WPT.846</name>
      </trkpt>
      <trkpt lat="35.243170840" lon="-106.475329620">
        <ele>2427.000</ele>
        <time>2019-05-02T17:00:34Z</time>
        <name>WPT.847</name>
      </trkpt>
      <trkpt lat="35.243140140" lon="-106.475299260">
        <ele>2428.000</ele>
        <time>2019-05-02T17:00:39Z</time>
        <name>WPT.848</name>
      </trkpt>
      <trkpt lat="35.243102710" lon="-106.475279530">
        <ele>2428.000</ele>
        <time>2019-05-02T17:00:44Z</time>
        <name>WPT.849</name>
      </trkpt>
      <trkpt lat="35.243085470" lon="-106.475238420">
        <ele>2427.000</ele>
        <time>2019-05-02T17:01:11Z</time>
        <name>WPT.850</name>
      </trkpt>
      <trkpt lat="35.243042720" lon="-106.475223530">
        <ele>2424.000</ele>
        <time>2019-05-02T17:01:20Z</time>
        <name>WPT.851</name>
      </trkpt>
      <trkpt lat="35.243006570" lon="-106.475227100">
        <ele>2427.000</ele>
        <time>2019-05-02T17:01:23Z</time>
        <name>WPT.852</name>
      </trkpt>
      <trkpt lat="35.242965640" lon="-106.475229850">
        <ele>2425.000</ele>
        <time>2019-05-02T17:01:31Z</time>
        <name>WPT.853</name>
      </trkpt>
      <trkpt lat="35.242929070" lon="-106.475224700">
        <ele>2426.000</ele>
        <time>2019-05-02T17:01:36Z</time>
        <name>WPT.854</name>
      </trkpt>
      <trkpt lat="35.242889640" lon="-106.475207220">
        <ele>2429.000</ele>
        <time>2019-05-02T17:01:42Z</time>
        <name>WPT.855</name>
      </trkpt>
      <trkpt lat="35.242854580" lon="-106.475196830">
        <ele>2427.000</ele>
        <time>2019-05-02T17:01:49Z</time>
        <name>WPT.856</name>
      </trkpt>
      <trkpt lat="35.242817800" lon="-106.475184630">
        <ele>2425.000</ele>
        <time>2019-05-02T17:02:12Z</time>
        <name>WPT.857</name>
      </trkpt>
      <trkpt lat="35.242789190" lon="-106.475150750">
        <ele>2424.000</ele>
        <time>2019-05-02T17:02:20Z</time>
        <name>WPT.858</name>
      </trkpt>
      <trkpt lat="35.242769450" lon="-106.475112020">
        <ele>2424.000</ele>
        <time>2019-05-02T17:02:25Z</time>
        <name>WPT.859</name>
      </trkpt>
      <trkpt lat="35.242738080" lon="-106.475077410">
        <ele>2421.000</ele>
        <time>2019-05-02T17:02:31Z</time>
        <name>WPT.860</name>
      </trkpt>
      <trkpt lat="35.242711210" lon="-106.475041720">
        <ele>2422.000</ele>
        <time>2019-05-02T17:02:37Z</time>
        <name>WPT.861</name>
      </trkpt>
      <trkpt lat="35.242711640" lon="-106.474997140">
        <ele>2420.000</ele>
        <time>2019-05-02T17:02:53Z</time>
        <name>WPT.862</name>
      </trkpt>
      <trkpt lat="35.242675250" lon="-106.474963160">
        <ele>2413.000</ele>
        <time>2019-05-02T17:03:05Z</time>
        <name>WPT.863</name>
      </trkpt>
      <trkpt lat="35.242641440" lon="-106.474937510">
        <ele>2413.000</ele>
        <time>2019-05-02T17:03:12Z</time>
        <name>WPT.864</name>
      </trkpt>
      <trkpt lat="35.242609870" lon="-106.474964360">
        <ele>2416.000</ele>
        <time>2019-05-02T17:03:36Z</time>
        <name>WPT.865</name>
      </trkpt>
      <trkpt lat="35.242609790" lon="-106.475014550">
        <ele>2418.000</ele>
        <time>2019-05-02T17:03:45Z</time>
        <name>WPT.866</name>
      </trkpt>
      <trkpt lat="35.242623130" lon="-106.475056090">
        <ele>2416.000</ele>
        <time>2019-05-02T17:03:50Z</time>
        <name>WPT.867</name>
      </trkpt>
      <trkpt lat="35.242624120" lon="-106.475100430">
        <ele>2416.000</ele>
        <time>2019-05-02T17:03:57Z</time>
        <name>WPT.868</name>
      </trkpt>
      <trkpt lat="35.242611130" lon="-106.475143190">
        <ele>2419.000</ele>
        <time>2019-05-02T17:04:05Z</time>
        <name>WPT.869</name>
      </trkpt>
      <trkpt lat="35.242610640" lon="-106.475188810">
        <ele>2419.000</ele>
        <time>2019-05-02T17:04:13Z</time>
        <name>WPT.870</name>
      </trkpt>
      <trkpt lat="35.242575250" lon="-106.475179190">
        <ele>2415.000</ele>
        <time>2019-05-02T17:04:29Z</time>
        <name>WPT.871</name>
      </trkpt>
      <trkpt lat="35.242540430" lon="-106.475160140">
        <ele>2412.000</ele>
        <time>2019-05-02T17:04:38Z</time>
        <name>WPT.872</name>
      </trkpt>
      <trkpt lat="35.242513620" lon="-106.475128160">
        <ele>2412.000</ele>
        <time>2019-05-02T17:04:43Z</time>
        <name>WPT.873</name>
      </trkpt>
      <trkpt lat="35.242485950" lon="-106.475099160">
        <ele>2409.000</ele>
        <time>2019-05-02T17:04:56Z</time>
        <name>WPT.874</name>
      </trkpt>
      <trkpt lat="35.242461790" lon="-106.475060740">
        <ele>2411.000</ele>
        <time>2019-05-02T17:05:10Z</time>
        <name>WPT.875</name>
      </trkpt>
      <trkpt lat="35.242440370" lon="-106.475025160">
        <ele>2408.000</ele>
        <time>2019-05-02T17:05:15Z</time>
        <name>WPT.876</name>
      </trkpt>
      <trkpt lat="35.242400380" lon="-106.474995900">
        <ele>2410.000</ele>
        <time>2019-05-02T17:05:35Z</time>
        <name>WPT.877</name>
      </trkpt>
      <trkpt lat="35.242382400" lon="-106.474946960">
        <ele>2411.000</ele>
        <time>2019-05-02T17:05:38Z</time>
        <name>WPT.878</name>
      </trkpt>
      <trkpt lat="35.242353090" lon="-106.474902920">
        <ele>2408.000</ele>
        <time>2019-05-02T17:05:46Z</time>
        <name>WPT.879</name>
      </trkpt>
      <trkpt lat="35.242317810" lon="-106.474877580">
        <ele>2407.000</ele>
        <time>2019-05-02T17:05:52Z</time>
        <name>WPT.880</name>
      </trkpt>
      <trkpt lat="35.242284080" lon="-106.474854070">
        <ele>2405.000</ele>
        <time>2019-05-02T17:05:57Z</time>
        <name>WPT.881</name>
      </trkpt>
      <trkpt lat="35.242249480" lon="-106.474834540">
        <ele>2403.000</ele>
        <time>2019-05-02T17:06:08Z</time>
        <name>WPT.882</name>
      </trkpt>
      <trkpt lat="35.242215230" lon="-106.474810940">
        <ele>2402.000</ele>
        <time>2019-05-02T17:06:12Z</time>
        <name>WPT.883</name>
      </trkpt>
      <trkpt lat="35.242183040" lon="-106.474786930">
        <ele>2404.000</ele>
        <time>2019-05-02T17:06:17Z</time>
        <name>WPT.884</name>
      </trkpt>
      <trkpt lat="35.242150020" lon="-106.474752480">
        <ele>2401.000</ele>
        <time>2019-05-02T17:06:24Z</time>
        <name>WPT.885</name>
      </trkpt>
      <trkpt lat="35.242116570" lon="-106.474723760">
        <ele>2400.000</ele>
        <time>2019-05-02T17:06:31Z</time>
        <name>WPT.886</name>
      </trkpt>
      <trkpt lat="35.242082300" lon="-106.474697180">
        <ele>2402.000</ele>
        <time>2019-05-02T17:06:40Z</time>
        <name>WPT.887</name>
      </trkpt>
      <trkpt lat="35.242043860" lon="-106.474699200">
        <ele>2401.000</ele>
        <time>2019-05-02T17:06:43Z</time>
        <name>WPT.888</name>
      </trkpt>
      <trkpt lat="35.242005670" lon="-106.474685060">
        <ele>2400.000</ele>
        <time>2019-05-02T17:06:48Z</time>
        <name>WPT.889</name>
      </trkpt>
      <trkpt lat="35.241970760" lon="-106.474657490">
        <ele>2401.000</ele>
        <time>2019-05-02T17:07:06Z</time>
        <name>WPT.890</name>
      </trkpt>
      <trkpt lat="35.241939800" lon="-106.474633390">
        <ele>2398.000</ele>
        <time>2019-05-02T17:07:14Z</time>
        <name>WPT.891</name>
      </trkpt>
      <trkpt lat="35.241911730" lon="-106.474600540">
        <ele>2399.000</ele>
        <time>2019-05-02T17:07:18Z</time>
        <name>WPT.892</name>
      </trkpt>
      <trkpt lat="35.241862740" lon="-106.474587950">
        <ele>2397.000</ele>
        <time>2019-05-02T17:07:22Z</time>
        <name>WPT.893</name>
      </trkpt>
      <trkpt lat="35.241818280" lon="-106.474594850">
        <ele>2395.000</ele>
        <time>2019-05-02T17:07:25Z</time>
        <name>WPT.894</name>
      </trkpt>
      <trkpt lat="35.241777690" lon="-106.474589350">
        <ele>2396.000</ele>
        <time>2019-05-02T17:07:29Z</time>
        <name>WPT.895</name>
      </trkpt>
      <trkpt lat="35.241736730" lon="-106.474603010">
        <ele>2394.000</ele>
        <time>2019-05-02T17:07:37Z</time>
        <name>WPT.896</name>
      </trkpt>
      <trkpt lat="35.241693720" lon="-106.474597860">
        <ele>2391.000</ele>
        <time>2019-05-02T17:07:42Z</time>
        <name>WPT.897</name>
      </trkpt>
      <trkpt lat="35.241654530" lon="-106.474610800">
        <ele>2390.000</ele>
        <time>2019-05-02T17:07:46Z</time>
        <name>WPT.898</name>
      </trkpt>
      <trkpt lat="35.241615160" lon="-106.474634000">
        <ele>2391.000</ele>
        <time>2019-05-02T17:07:53Z</time>
        <name>WPT.899</name>
      </trkpt>
      <trkpt lat="35.241582090" lon="-106.474653130">
        <ele>2391.000</ele>
        <time>2019-05-02T17:07:57Z</time>
        <name>WPT.900</name>
      </trkpt>
      <trkpt lat="35.241546690" lon="-106.474631970">
        <ele>2392.000</ele>
        <time>2019-05-02T17:08:03Z</time>
        <name>WPT.901</name>
      </trkpt>
      <trkpt lat="35.241509030" lon="-106.474653000">
        <ele>2394.000</ele>
        <time>2019-05-02T17:08:08Z</time>
        <name>WPT.902</name>
      </trkpt>
      <trkpt lat="35.241470480" lon="-106.474680260">
        <ele>2396.000</ele>
        <time>2019-05-02T17:08:12Z</time>
        <name>WPT.903</name>
      </trkpt>
      <trkpt lat="35.241446890" lon="-106.474715340">
        <ele>2393.000</ele>
        <time>2019-05-02T17:08:16Z</time>
        <name>WPT.904</name>
      </trkpt>
      <trkpt lat="35.241398270" lon="-106.474728430">
        <ele>2392.000</ele>
        <time>2019-05-02T17:08:20Z</time>
        <name>WPT.905</name>
      </trkpt>
      <trkpt lat="35.241367320" lon="-106.474759750">
        <ele>2389.000</ele>
        <time>2019-05-02T17:08:24Z</time>
        <name>WPT.906</name>
      </trkpt>
      <trkpt lat="35.241337040" lon="-106.474785530">
        <ele>2389.000</ele>
        <time>2019-05-02T17:08:28Z</time>
        <name>WPT.907</name>
      </trkpt>
      <trkpt lat="35.241297850" lon="-106.474805040">
        <ele>2388.000</ele>
        <time>2019-05-02T17:08:33Z</time>
        <name>WPT.908</name>
      </trkpt>
      <trkpt lat="35.241265730" lon="-106.474837500">
        <ele>2388.000</ele>
        <time>2019-05-02T17:08:37Z</time>
        <name>WPT.909</name>
      </trkpt>
      <trkpt lat="35.241232150" lon="-106.474856860">
        <ele>2391.000</ele>
        <time>2019-05-02T17:08:42Z</time>
        <name>WPT.910</name>
      </trkpt>
      <trkpt lat="35.241191420" lon="-106.474872390">
        <ele>2392.000</ele>
        <time>2019-05-02T17:08:48Z</time>
        <name>WPT.911</name>
      </trkpt>
      <trkpt lat="35.241156940" lon="-106.474903580">
        <ele>2390.000</ele>
        <time>2019-05-02T17:08:53Z</time>
        <name>WPT.912</name>
      </trkpt>
      <trkpt lat="35.241126620" lon="-106.474940580">
        <ele>2389.000</ele>
        <time>2019-05-02T17:09:00Z</time>
        <name>WPT.913</name>
      </trkpt>
      <trkpt lat="35.241094390" lon="-106.474968760">
        <ele>2389.000</ele>
        <time>2019-05-02T17:09:05Z</time>
        <name>WPT.914</name>
      </trkpt>
      <trkpt lat="35.241067030" lon="-106.474998480">
        <ele>2386.000</ele>
        <time>2019-05-02T17:09:10Z</time>
        <name>WPT.915</name>
      </trkpt>
      <trkpt lat="35.241030150" lon="-106.475020510">
        <ele>2384.000</ele>
        <time>2019-05-02T17:09:14Z</time>
        <name>WPT.916</name>
      </trkpt>
      <trkpt lat="35.240992790" lon="-106.475049460">
        <ele>2383.000</ele>
        <time>2019-05-02T17:09:20Z</time>
        <name>WPT.917</name>
      </trkpt>
      <trkpt lat="35.240956550" lon="-106.475072780">
        <ele>2381.000</ele>
        <time>2019-05-02T17:09:25Z</time>
        <name>WPT.918</name>
      </trkpt>
      <trkpt lat="35.240929330" lon="-106.475105730">
        <ele>2382.000</ele>
        <time>2019-05-02T17:09:32Z</time>
        <name>WPT.919</name>
      </trkpt>
      <trkpt lat="35.240894980" lon="-106.475121100">
        <ele>2382.000</ele>
        <time>2019-05-02T17:09:36Z</time>
        <name>WPT.920</name>
      </trkpt>
      <trkpt lat="35.240854140" lon="-106.475126960">
        <ele>2381.000</ele>
        <time>2019-05-02T17:09:41Z</time>
        <name>WPT.921</name>
      </trkpt>
      <trkpt lat="35.240818090" lon="-106.475133290">
        <ele>2379.000</ele>
        <time>2019-05-02T17:09:46Z</time>
        <name>WPT.922</name>
      </trkpt>
      <trkpt lat="35.240777200" lon="-106.475147510">
        <ele>2376.000</ele>
        <time>2019-05-02T17:09:52Z</time>
        <name>WPT.923</name>
      </trkpt>
      <trkpt lat="35.240741570" lon="-106.475178230">
        <ele>2375.000</ele>
        <time>2019-05-02T17:09:56Z</time>
        <name>WPT.924</name>
      </trkpt>
      <trkpt lat="35.240703060" lon="-106.475189700">
        <ele>2376.000</ele>
        <time>2019-05-02T17:10:00Z</time>
        <name>WPT.925</name>
      </trkpt>
      <trkpt lat="35.240667390" lon="-106.475212790">
        <ele>2377.000</ele>
        <time>2019-05-02T17:10:05Z</time>
        <name>WPT.926</name>
      </trkpt>
      <trkpt lat="35.240629680" lon="-106.475227260">
        <ele>2379.000</ele>
        <time>2019-05-02T17:10:09Z</time>
        <name>WPT.927</name>
      </trkpt>
      <trkpt lat="35.240624120" lon="-106.475272760">
        <ele>2379.000</ele>
        <time>2019-05-02T17:10:35Z</time>
        <name>WPT.928</name>
      </trkpt>
      <trkpt lat="35.240619980" lon="-106.475318670">
        <ele>2379.000</ele>
        <time>2019-05-02T17:10:39Z</time>
        <name>WPT.929</name>
      </trkpt>
      <trkpt lat="35.240623990" lon="-106.475368350">
        <ele>2378.000</ele>
        <time>2019-05-02T17:10:44Z</time>
        <name>WPT.930</name>
      </trkpt>
      <trkpt lat="35.240626270" lon="-106.475417720">
        <ele>2379.000</ele>
        <time>2019-05-02T17:10:48Z</time>
        <name>WPT.931</name>
      </trkpt>
      <trkpt lat="35.240643230" lon="-106.475467270">
        <ele>2377.000</ele>
        <time>2019-05-02T17:10:53Z</time>
        <name>WPT.932</name>
      </trkpt>
      <trkpt lat="35.240666460" lon="-106.475503000">
        <ele>2375.000</ele>
        <time>2019-05-02T17:10:57Z</time>
        <name>WPT.933</name>
      </trkpt>
      <trkpt lat="35.240688660" lon="-106.475550110">
        <ele>2374.000</ele>
        <time>2019-05-02T17:11:02Z</time>
        <name>WPT.934</name>
      </trkpt>
      <trkpt lat="35.240712890" lon="-106.475587720">
        <ele>2373.000</ele>
        <time>2019-05-02T17:11:06Z</time>
        <name>WPT.935</name>
      </trkpt>
      <trkpt lat="35.240726240" lon="-106.475635990">
        <ele>2371.000</ele>
        <time>2019-05-02T17:11:11Z</time>
        <name>WPT.936</name>
      </trkpt>
      <trkpt lat="35.240715600" lon="-106.475684240">
        <ele>2370.000</ele>
        <time>2019-05-02T17:11:16Z</time>
        <name>WPT.937</name>
      </trkpt>
      <trkpt lat="35.240709340" lon="-106.475733520">
        <ele>2369.000</ele>
        <time>2019-05-02T17:11:23Z</time>
        <name>WPT.938</name>
      </trkpt>
      <trkpt lat="35.240716240" lon="-106.475783480">
        <ele>2367.000</ele>
        <time>2019-05-02T17:11:28Z</time>
        <name>WPT.939</name>
      </trkpt>
      <trkpt lat="35.240702970" lon="-106.475826370">
        <ele>2367.000</ele>
        <time>2019-05-02T17:11:33Z</time>
        <name>WPT.940</name>
      </trkpt>
      <trkpt lat="35.240678950" lon="-106.475862800">
        <ele>2366.000</ele>
        <time>2019-05-02T17:11:43Z</time>
        <name>WPT.941</name>
      </trkpt>
      <trkpt lat="35.240643020" lon="-106.475886510">
        <ele>2365.000</ele>
        <time>2019-05-02T17:11:48Z</time>
        <name>WPT.942</name>
      </trkpt>
      <trkpt lat="35.240609790" lon="-106.475909300">
        <ele>2365.000</ele>
        <time>2019-05-02T17:11:53Z</time>
        <name>WPT.943</name>
      </trkpt>
      <trkpt lat="35.240588850" lon="-106.475949820">
        <ele>2362.000</ele>
        <time>2019-05-02T17:11:59Z</time>
        <name>WPT.944</name>
      </trkpt>
      <trkpt lat="35.240552180" lon="-106.475964270">
        <ele>2360.000</ele>
        <time>2019-05-02T17:12:05Z</time>
        <name>WPT.945</name>
      </trkpt>
      <trkpt lat="35.240527150" lon="-106.476000840">
        <ele>2358.000</ele>
        <time>2019-05-02T17:12:10Z</time>
        <name>WPT.946</name>
      </trkpt>
      <trkpt lat="35.240491800" lon="-106.476038450">
        <ele>2358.000</ele>
        <time>2019-05-02T17:12:14Z</time>
        <name>WPT.947</name>
      </trkpt>
      <trkpt lat="35.240463260" lon="-106.476073200">
        <ele>2357.000</ele>
        <time>2019-05-02T17:12:19Z</time>
        <name>WPT.948</name>
      </trkpt>
      <trkpt lat="35.240431240" lon="-106.476094150">
        <ele>2357.000</ele>
        <time>2019-05-02T17:12:24Z</time>
        <name>WPT.949</name>
      </trkpt>
      <trkpt lat="35.240401950" lon="-106.476119940">
        <ele>2357.000</ele>
        <time>2019-05-02T17:12:29Z</time>
        <name>WPT.950</name>
      </trkpt>
      <trkpt lat="35.240370780" lon="-106.476158180">
        <ele>2359.000</ele>
        <time>2019-05-02T17:12:33Z</time>
        <name>WPT.951</name>
      </trkpt>
      <trkpt lat="35.240338340" lon="-106.476192190">
        <ele>2358.000</ele>
        <time>2019-05-02T17:12:38Z</time>
        <name>WPT.952</name>
      </trkpt>
      <trkpt lat="35.240309080" lon="-106.476232380">
        <ele>2355.000</ele>
        <time>2019-05-02T17:12:43Z</time>
        <name>WPT.953</name>
      </trkpt>
      <trkpt lat="35.240276150" lon="-106.476258130">
        <ele>2354.000</ele>
        <time>2019-05-02T17:12:48Z</time>
        <name>WPT.954</name>
      </trkpt>
      <trkpt lat="35.240242680" lon="-106.476292760">
        <ele>2354.000</ele>
        <time>2019-05-02T17:12:53Z</time>
        <name>WPT.955</name>
      </trkpt>
      <trkpt lat="35.240207070" lon="-106.476326240">
        <ele>2355.000</ele>
        <time>2019-05-02T17:12:58Z</time>
        <name>WPT.956</name>
      </trkpt>
      <trkpt lat="35.240171200" lon="-106.476349240">
        <ele>2355.000</ele>
        <time>2019-05-02T17:13:04Z</time>
        <name>WPT.957</name>
      </trkpt>
      <trkpt lat="35.240130330" lon="-106.476360420">
        <ele>2354.000</ele>
        <time>2019-05-02T17:13:09Z</time>
        <name>WPT.958</name>
      </trkpt>
      <trkpt lat="35.240090700" lon="-106.476381520">
        <ele>2354.000</ele>
        <time>2019-05-02T17:13:14Z</time>
        <name>WPT.959</name>
      </trkpt>
      <trkpt lat="35.240055310" lon="-106.476369050">
        <ele>2352.000</ele>
        <time>2019-05-02T17:13:22Z</time>
        <name>WPT.960</name>
      </trkpt>
      <trkpt lat="35.240018230" lon="-106.476361370">
        <ele>2348.000</ele>
        <time>2019-05-02T17:13:30Z</time>
        <name>WPT.961</name>
      </trkpt>
      <trkpt lat="35.239977960" lon="-106.476360610">
        <ele>2347.000</ele>
        <time>2019-05-02T17:13:35Z</time>
        <name>WPT.962</name>
      </trkpt>
      <trkpt lat="35.239937810" lon="-106.476351850">
        <ele>2351.000</ele>
        <time>2019-05-02T17:13:39Z</time>
        <name>WPT.963</name>
      </trkpt>
      <trkpt lat="35.239902240" lon="-106.476333750">
        <ele>2349.000</ele>
        <time>2019-05-02T17:13:44Z</time>
        <name>WPT.964</name>
      </trkpt>
      <trkpt lat="35.239858910" lon="-106.476326260">
        <ele>2345.000</ele>
        <time>2019-05-02T17:13:49Z</time>
        <name>WPT.965</name>
      </trkpt>
      <trkpt lat="35.239816920" lon="-106.476321580">
        <ele>2343.000</ele>
        <time>2019-05-02T17:13:55Z</time>
        <name>WPT.966</name>
      </trkpt>
      <trkpt lat="35.239769600" lon="-106.476313930">
        <ele>2341.000</ele>
        <time>2019-05-02T17:14:01Z</time>
        <name>WPT.967</name>
      </trkpt>
      <trkpt lat="35.239743540" lon="-106.476346470">
        <ele>2343.000</ele>
        <time>2019-05-02T17:14:13Z</time>
        <name>WPT.968</name>
      </trkpt>
      <trkpt lat="35.239708630" lon="-106.476358470">
        <ele>2341.000</ele>
        <time>2019-05-02T17:14:37Z</time>
        <name>WPT.969</name>
      </trkpt>
      <trkpt lat="35.239671440" lon="-106.476362750">
        <ele>2340.000</ele>
        <time>2019-05-02T17:14:42Z</time>
        <name>WPT.970</name>
      </trkpt>
      <trkpt lat="35.239635550" lon="-106.476346390">
        <ele>2340.000</ele>
        <time>2019-05-02T17:14:48Z</time>
        <name>WPT.971</name>
      </trkpt>
      <trkpt lat="35.239595760" lon="-106.476343080">
        <ele>2341.000</ele>
        <time>2019-05-02T17:14:52Z</time>
        <name>WPT.972</name>
      </trkpt>
      <trkpt lat="35.239560570" lon="-106.476364200">
        <ele>2338.000</ele>
        <time>2019-05-02T17:14:58Z</time>
        <name>WPT.973</name>
      </trkpt>
      <trkpt lat="35.239527620" lon="-106.476395480">
        <ele>2336.000</ele>
        <time>2019-05-02T17:15:05Z</time>
        <name>WPT.974</name>
      </trkpt>
      <trkpt lat="35.239496850" lon="-106.476427840">
        <ele>2336.000</ele>
        <time>2019-05-02T17:15:11Z</time>
        <name>WPT.975</name>
      </trkpt>
      <trkpt lat="35.239473640" lon="-106.476463830">
        <ele>2334.000</ele>
        <time>2019-05-02T17:15:17Z</time>
        <name>WPT.976</name>
      </trkpt>
      <trkpt lat="35.239453990" lon="-106.476510480">
        <ele>2333.000</ele>
        <time>2019-05-02T17:15:22Z</time>
        <name>WPT.977</name>
      </trkpt>
      <trkpt lat="35.239435710" lon="-106.476549100">
        <ele>2333.000</ele>
        <time>2019-05-02T17:15:26Z</time>
        <name>WPT.978</name>
      </trkpt>
      <trkpt lat="35.239411020" lon="-106.476583410">
        <ele>2334.000</ele>
        <time>2019-05-02T17:15:29Z</time>
        <name>WPT.979</name>
      </trkpt>
      <trkpt lat="35.239394320" lon="-106.476629330">
        <ele>2337.000</ele>
        <time>2019-05-02T17:15:59Z</time>
        <name>WPT.980</name>
      </trkpt>
      <trkpt lat="35.239398840" lon="-106.476676840">
        <ele>2335.000</ele>
        <time>2019-05-02T17:16:04Z</time>
        <name>WPT.981</name>
      </trkpt>
      <trkpt lat="35.239419460" lon="-106.476724890">
        <ele>2335.000</ele>
        <time>2019-05-02T17:16:09Z</time>
        <name>WPT.982</name>
      </trkpt>
      <trkpt lat="35.239444960" lon="-106.476765950">
        <ele>2335.000</ele>
        <time>2019-05-02T17:16:16Z</time>
        <name>WPT.983</name>
      </trkpt>
      <trkpt lat="35.239465430" lon="-106.476808300">
        <ele>2336.000</ele>
        <time>2019-05-02T17:16:21Z</time>
        <name>WPT.984</name>
      </trkpt>
      <trkpt lat="35.239488020" lon="-106.476844970">
        <ele>2333.000</ele>
        <time>2019-05-02T17:16:25Z</time>
        <name>WPT.985</name>
      </trkpt>
      <trkpt lat="35.239496360" lon="-106.476896940">
        <ele>2331.000</ele>
        <time>2019-05-02T17:16:31Z</time>
        <name>WPT.986</name>
      </trkpt>
      <trkpt lat="35.239520740" lon="-106.476930300">
        <ele>2332.000</ele>
        <time>2019-05-02T17:16:35Z</time>
        <name>WPT.987</name>
      </trkpt>
      <trkpt lat="35.239502350" lon="-106.476976530">
        <ele>2331.000</ele>
        <time>2019-05-02T17:16:40Z</time>
        <name>WPT.988</name>
      </trkpt>
      <trkpt lat="35.239503050" lon="-106.477021410">
        <ele>2332.000</ele>
        <time>2019-05-02T17:16:44Z</time>
        <name>WPT.989</name>
      </trkpt>
      <trkpt lat="35.239492590" lon="-106.477070480">
        <ele>2331.000</ele>
        <time>2019-05-02T17:16:51Z</time>
        <name>WPT.990</name>
      </trkpt>
      <trkpt lat="35.239484890" lon="-106.477123360">
        <ele>2329.000</ele>
        <time>2019-05-02T17:16:56Z</time>
        <name>WPT.991</name>
      </trkpt>
      <trkpt lat="35.239456590" lon="-106.477158120">
        <ele>2328.000</ele>
        <time>2019-05-02T17:17:04Z</time>
        <name>WPT.992</name>
      </trkpt>
      <trkpt lat="35.239418610" lon="-106.477184560">
        <ele>2328.000</ele>
        <time>2019-05-02T17:17:08Z</time>
        <name>WPT.993</name>
      </trkpt>
      <trkpt lat="35.239381660" lon="-106.477210950">
        <ele>2327.000</ele>
        <time>2019-05-02T17:17:13Z</time>
        <name>WPT.994</name>
      </trkpt>
      <trkpt lat="35.239339960" lon="-106.477231160">
        <ele>2323.000</ele>
        <time>2019-05-02T17:17:19Z</time>
        <name>WPT.995</name>
      </trkpt>
      <trkpt lat="35.239293710" lon="-106.477240020">
        <ele>2322.000</ele>
        <time>2019-05-02T17:17:25Z</time>
        <name>WPT.996</name>
      </trkpt>
      <trkpt lat="35.239250760" lon="-106.477239740">
        <ele>2324.000</ele>
        <time>2019-05-02T17:17:30Z</time>
        <name>WPT.997</name>
      </trkpt>
      <trkpt lat="35.239214210" lon="-106.477243090">
        <ele>2324.000</ele>
        <time>2019-05-02T17:17:34Z</time>
        <name>WPT.998</name>
      </trkpt>
      <trkpt lat="35.239175410" lon="-106.477256070">
        <ele>2323.000</ele>
        <time>2019-05-02T17:17:39Z</time>
        <name>WPT.999</name>
      </trkpt>
      <trkpt lat="35.239142790" lon="-106.477275760">
        <ele>2322.000</ele>
        <time>2019-05-02T17:17:44Z</time>
        <name>WPT.1000</name>
      </trkpt>
      <trkpt lat="35.239100730" lon="-106.477280780">
        <ele>2319.000</ele>
        <time>2019-05-02T17:17:49Z</time>
        <name>WPT.1001</name>
      </trkpt>
      <trkpt lat="35.239063190" lon="-106.477270250">
        <ele>2318.000</ele>
        <time>2019-05-02T17:17:54Z</time>
        <name>WPT.1002</name>
      </trkpt>
      <trkpt lat="35.239028350" lon="-106.477290170">
        <ele>2315.000</ele>
        <time>2019-05-02T17:17:59Z</time>
        <name>WPT.1003</name>
      </trkpt>
      <trkpt lat="35.238989650" lon="-106.477294700">
        <ele>2313.000</ele>
        <time>2019-05-02T17:18:04Z</time>
        <name>WPT.1004</name>
      </trkpt>
      <trkpt lat="35.238953340" lon="-106.477289530">
        <ele>2314.000</ele>
        <time>2019-05-02T17:18:09Z</time>
        <name>WPT.1005</name>
      </trkpt>
      <trkpt lat="35.238908500" lon="-106.477296210">
        <ele>2314.000</ele>
        <time>2019-05-02T17:18:14Z</time>
        <name>WPT.1006</name>
      </trkpt>
      <trkpt lat="35.238869850" lon="-106.477301500">
        <ele>2312.000</ele>
        <time>2019-05-02T17:18:19Z</time>
        <name>WPT.1007</name>
      </trkpt>
      <trkpt lat="35.238831780" lon="-106.477289210">
        <ele>2314.000</ele>
        <time>2019-05-02T17:18:23Z</time>
        <name>WPT.1008</name>
      </trkpt>
      <trkpt lat="35.238793010" lon="-106.477287070">
        <ele>2312.000</ele>
        <time>2019-05-02T17:18:28Z</time>
        <name>WPT.1009</name>
      </trkpt>
      <trkpt lat="35.238753590" lon="-106.477281700">
        <ele>2309.000</ele>
        <time>2019-05-02T17:18:35Z</time>
        <name>WPT.1010</name>
      </trkpt>
      <trkpt lat="35.238724280" lon="-106.477253060">
        <ele>2309.000</ele>
        <time>2019-05-02T17:19:02Z</time>
        <name>WPT.1011</name>
      </trkpt>
      <trkpt lat="35.238684660" lon="-106.477235130">
        <ele>2309.000</ele>
        <time>2019-05-02T17:19:07Z</time>
        <name>WPT.1012</name>
      </trkpt>
      <trkpt lat="35.238642770" lon="-106.477228770">
        <ele>2307.000</ele>
        <time>2019-05-02T17:19:12Z</time>
        <name>WPT.1013</name>
      </trkpt>
      <trkpt lat="35.238600150" lon="-106.477268720">
        <ele>2306.000</ele>
        <time>2019-05-02T17:19:36Z</time>
        <name>WPT.1014</name>
      </trkpt>
      <trkpt lat="35.238564900" lon="-106.477282060">
        <ele>2306.000</ele>
        <time>2019-05-02T17:19:40Z</time>
        <name>WPT.1015</name>
      </trkpt>
      <trkpt lat="35.238525980" lon="-106.477314870">
        <ele>2309.000</ele>
        <time>2019-05-02T17:19:45Z</time>
        <name>WPT.1016</name>
      </trkpt>
      <trkpt lat="35.238506280" lon="-106.477354030">
        <ele>2308.000</ele>
        <time>2019-05-02T17:19:50Z</time>
        <name>WPT.1017</name>
      </trkpt>
      <trkpt lat="35.238477850" lon="-106.477387880">
        <ele>2308.000</ele>
        <time>2019-05-02T17:19:56Z</time>
        <name>WPT.1018</name>
      </trkpt>
      <trkpt lat="35.238456780" lon="-106.477428220">
        <ele>2309.000</ele>
        <time>2019-05-02T17:20:05Z</time>
        <name>WPT.1019</name>
      </trkpt>
      <trkpt lat="35.238429420" lon="-106.477464040">
        <ele>2309.000</ele>
        <time>2019-05-02T17:20:09Z</time>
        <name>WPT.1020</name>
      </trkpt>
      <trkpt lat="35.238410360" lon="-106.477510700">
        <ele>2308.000</ele>
        <time>2019-05-02T17:20:15Z</time>
        <name>WPT.1021</name>
      </trkpt>
      <trkpt lat="35.238382440" lon="-106.477549020">
        <ele>2307.000</ele>
        <time>2019-05-02T17:20:20Z</time>
        <name>WPT.1022</name>
      </trkpt>
      <trkpt lat="35.238360340" lon="-106.477599280">
        <ele>2306.000</ele>
        <time>2019-05-02T17:20:25Z</time>
        <name>WPT.1023</name>
      </trkpt>
      <trkpt lat="35.238333490" lon="-106.477639640">
        <ele>2308.000</ele>
        <time>2019-05-02T17:20:30Z</time>
        <name>WPT.1024</name>
      </trkpt>
      <trkpt lat="35.238308260" lon="-106.477673370">
        <ele>2307.000</ele>
        <time>2019-05-02T17:20:35Z</time>
        <name>WPT.1025</name>
      </trkpt>
      <trkpt lat="35.238299850" lon="-106.477720730">
        <ele>2305.000</ele>
        <time>2019-05-02T17:20:41Z</time>
        <name>WPT.1026</name>
      </trkpt>
      <trkpt lat="35.238264070" lon="-106.477741280">
        <ele>2305.000</ele>
        <time>2019-05-02T17:21:02Z</time>
        <name>WPT.1027</name>
      </trkpt>
      <trkpt lat="35.238250430" lon="-106.477783010">
        <ele>2304.000</ele>
        <time>2019-05-02T17:21:08Z</time>
        <name>WPT.1028</name>
      </trkpt>
      <trkpt lat="35.238240560" lon="-106.477829670">
        <ele>2304.000</ele>
        <time>2019-05-02T17:21:13Z</time>
        <name>WPT.1029</name>
      </trkpt>
      <trkpt lat="35.238221460" lon="-106.477876430">
        <ele>2303.000</ele>
        <time>2019-05-02T17:21:18Z</time>
        <name>WPT.1030</name>
      </trkpt>
      <trkpt lat="35.238183290" lon="-106.477898870">
        <ele>2303.000</ele>
        <time>2019-05-02T17:21:23Z</time>
        <name>WPT.1031</name>
      </trkpt>
      <trkpt lat="35.238151840" lon="-106.477935830">
        <ele>2304.000</ele>
        <time>2019-05-02T17:21:28Z</time>
        <name>WPT.1032</name>
      </trkpt>
      <trkpt lat="35.238133050" lon="-106.477974460">
        <ele>2303.000</ele>
        <time>2019-05-02T17:21:33Z</time>
        <name>WPT.1033</name>
      </trkpt>
      <trkpt lat="35.238101490" lon="-106.478013460">
        <ele>2304.000</ele>
        <time>2019-05-02T17:21:37Z</time>
        <name>WPT.1034</name>
      </trkpt>
      <trkpt lat="35.238062840" lon="-106.478047930">
        <ele>2304.000</ele>
        <time>2019-05-02T17:21:43Z</time>
        <name>WPT.1035</name>
      </trkpt>
      <trkpt lat="35.238029550" lon="-106.478082420">
        <ele>2304.000</ele>
        <time>2019-05-02T17:21:48Z</time>
        <name>WPT.1036</name>
      </trkpt>
      <trkpt lat="35.237989960" lon="-106.478096850">
        <ele>2304.000</ele>
        <time>2019-05-02T17:21:52Z</time>
        <name>WPT.1037</name>
      </trkpt>
      <trkpt lat="35.237956180" lon="-106.478117980">
        <ele>2301.000</ele>
        <time>2019-05-02T17:21:56Z</time>
        <name>WPT.1038</name>
      </trkpt>
      <trkpt lat="35.237928690" lon="-106.478146530">
        <ele>2296.000</ele>
        <time>2019-05-02T17:22:01Z</time>
        <name>WPT.1039</name>
      </trkpt>
      <trkpt lat="35.237888010" lon="-106.478154770">
        <ele>2295.000</ele>
        <time>2019-05-02T17:22:06Z</time>
        <name>WPT.1040</name>
      </trkpt>
      <trkpt lat="35.237851700" lon="-106.478163530">
        <ele>2292.000</ele>
        <time>2019-05-02T17:22:14Z</time>
        <name>WPT.1041</name>
      </trkpt>
      <trkpt lat="35.237816030" lon="-106.478185070">
        <ele>2294.000</ele>
        <time>2019-05-02T17:22:27Z</time>
        <name>WPT.1042</name>
      </trkpt>
      <trkpt lat="35.237776810" lon="-106.478210490">
        <ele>2295.000</ele>
        <time>2019-05-02T17:22:32Z</time>
        <name>WPT.1043</name>
      </trkpt>
      <trkpt lat="35.237736610" lon="-106.478241620">
        <ele>2295.000</ele>
        <time>2019-05-02T17:22:37Z</time>
        <name>WPT.1044</name>
      </trkpt>
      <trkpt lat="35.237695480" lon="-106.478258050">
        <ele>2294.000</ele>
        <time>2019-05-02T17:22:42Z</time>
        <name>WPT.1045</name>
      </trkpt>
      <trkpt lat="35.237669210" lon="-106.478290850">
        <ele>2295.000</ele>
        <time>2019-05-02T17:22:46Z</time>
        <name>WPT.1046</name>
      </trkpt>
      <trkpt lat="35.237634750" lon="-106.478327310">
        <ele>2294.000</ele>
        <time>2019-05-02T17:23:10Z</time>
        <name>WPT.1047</name>
      </trkpt>
      <trkpt lat="35.237602560" lon="-106.478351790">
        <ele>2295.000</ele>
        <time>2019-05-02T17:23:13Z</time>
        <name>WPT.1048</name>
      </trkpt>
      <trkpt lat="35.237582400" lon="-106.478393330">
        <ele>2293.000</ele>
        <time>2019-05-02T17:23:18Z</time>
        <name>WPT.1049</name>
      </trkpt>
      <trkpt lat="35.237562810" lon="-106.478432980">
        <ele>2291.000</ele>
        <time>2019-05-02T17:23:23Z</time>
        <name>WPT.1050</name>
      </trkpt>
      <trkpt lat="35.237543270" lon="-106.478480630">
        <ele>2291.000</ele>
        <time>2019-05-02T17:23:27Z</time>
        <name>WPT.1051</name>
      </trkpt>
      <trkpt lat="35.237507780" lon="-106.478493780">
        <ele>2290.000</ele>
        <time>2019-05-02T17:23:32Z</time>
        <name>WPT.1052</name>
      </trkpt>
      <trkpt lat="35.237473210" lon="-106.478528020">
        <ele>2289.000</ele>
        <time>2019-05-02T17:23:37Z</time>
        <name>WPT.1053</name>
      </trkpt>
      <trkpt lat="35.237447380" lon="-106.478575630">
        <ele>2288.000</ele>
        <time>2019-05-02T17:23:45Z</time>
        <name>WPT.1054</name>
      </trkpt>
      <trkpt lat="35.237407510" lon="-106.478580010">
        <ele>2289.000</ele>
        <time>2019-05-02T17:23:51Z</time>
        <name>WPT.1055</name>
      </trkpt>
      <trkpt lat="35.237366720" lon="-106.478593980">
        <ele>2289.000</ele>
        <time>2019-05-02T17:23:56Z</time>
        <name>WPT.1056</name>
      </trkpt>
      <trkpt lat="35.237319180" lon="-106.478595360">
        <ele>2289.000</ele>
        <time>2019-05-02T17:24:00Z</time>
        <name>WPT.1057</name>
      </trkpt>
      <trkpt lat="35.237289400" lon="-106.478621330">
        <ele>2289.000</ele>
        <time>2019-05-02T17:24:05Z</time>
        <name>WPT.1058</name>
      </trkpt>
      <trkpt lat="35.237259200" lon="-106.478656450">
        <ele>2288.000</ele>
        <time>2019-05-02T17:24:10Z</time>
        <name>WPT.1059</name>
      </trkpt>
      <trkpt lat="35.237240090" lon="-106.478697320">
        <ele>2284.000</ele>
        <time>2019-05-02T17:24:15Z</time>
        <name>WPT.1060</name>
      </trkpt>
      <trkpt lat="35.237214490" lon="-106.478734790">
        <ele>2284.000</ele>
        <time>2019-05-02T17:24:20Z</time>
        <name>WPT.1061</name>
      </trkpt>
      <trkpt lat="35.237202240" lon="-106.478782690">
        <ele>2282.000</ele>
        <time>2019-05-02T17:24:25Z</time>
        <name>WPT.1062</name>
      </trkpt>
      <trkpt lat="35.237178340" lon="-106.478817610">
        <ele>2283.000</ele>
        <time>2019-05-02T17:24:31Z</time>
        <name>WPT.1063</name>
      </trkpt>
      <trkpt lat="35.237145570" lon="-106.478846760">
        <ele>2283.000</ele>
        <time>2019-05-02T17:24:35Z</time>
        <name>WPT.1064</name>
      </trkpt>
      <trkpt lat="35.237120080" lon="-106.478890010">
        <ele>2282.000</ele>
        <time>2019-05-02T17:24:40Z</time>
        <name>WPT.1065</name>
      </trkpt>
      <trkpt lat="35.237103640" lon="-106.478931750">
        <ele>2280.000</ele>
        <time>2019-05-02T17:25:18Z</time>
        <name>WPT.1066</name>
      </trkpt>
      <trkpt lat="35.237119880" lon="-106.478971350">
        <ele>2281.000</ele>
        <time>2019-05-02T17:25:42Z</time>
        <name>WPT.1067</name>
      </trkpt>
      <trkpt lat="35.237106030" lon="-106.479017960">
        <ele>2281.000</ele>
        <time>2019-05-02T17:25:49Z</time>
        <name>WPT.1068</name>
      </trkpt>
      <trkpt lat="35.237073200" lon="-106.479045240">
        <ele>2280.000</ele>
        <time>2019-05-02T17:25:54Z</time>
        <name>WPT.1069</name>
      </trkpt>
      <trkpt lat="35.237036860" lon="-106.479074130">
        <ele>2281.000</ele>
        <time>2019-05-02T17:25:59Z</time>
        <name>WPT.1070</name>
      </trkpt>
      <trkpt lat="35.237012480" lon="-106.479113370">
        <ele>2280.000</ele>
        <time>2019-05-02T17:26:04Z</time>
        <name>WPT.1071</name>
      </trkpt>
      <trkpt lat="35.236990320" lon="-106.479153170">
        <ele>2277.000</ele>
        <time>2019-05-02T17:26:09Z</time>
        <name>WPT.1072</name>
      </trkpt>
      <trkpt lat="35.236955340" lon="-106.479185580">
        <ele>2279.000</ele>
        <time>2019-05-02T17:26:14Z</time>
        <name>WPT.1073</name>
      </trkpt>
      <trkpt lat="35.236924120" lon="-106.479218610">
        <ele>2279.000</ele>
        <time>2019-05-02T17:26:19Z</time>
        <name>WPT.1074</name>
      </trkpt>
      <trkpt lat="35.236891600" lon="-106.479249900">
        <ele>2280.000</ele>
        <time>2019-05-02T17:26:23Z</time>
        <name>WPT.1075</name>
      </trkpt>
      <trkpt lat="35.236858700" lon="-106.479278620">
        <ele>2278.000</ele>
        <time>2019-05-02T17:26:27Z</time>
        <name>WPT.1076</name>
      </trkpt>
      <trkpt lat="35.236827170" lon="-106.479320380">
        <ele>2278.000</ele>
        <time>2019-05-02T17:26:51Z</time>
        <name>WPT.1077</name>
      </trkpt>
      <trkpt lat="35.236797240" lon="-106.479352560">
        <ele>2277.000</ele>
        <time>2019-05-02T17:26:55Z</time>
        <name>WPT.1078</name>
      </trkpt>
      <trkpt lat="35.236765760" lon="-106.479378970">
        <ele>2277.000</ele>
        <time>2019-05-02T17:26:59Z</time>
        <name>WPT.1079</name>
      </trkpt>
      <trkpt lat="35.236738300" lon="-106.479414310">
        <ele>2278.000</ele>
        <time>2019-05-02T17:27:02Z</time>
        <name>WPT.1080</name>
      </trkpt>
      <trkpt lat="35.236731690" lon="-106.479457640">
        <ele>2274.000</ele>
        <time>2019-05-02T17:27:27Z</time>
        <name>WPT.1081</name>
      </trkpt>
      <trkpt lat="35.236699350" lon="-106.479487990">
        <ele>2274.000</ele>
        <time>2019-05-02T17:27:58Z</time>
        <name>WPT.1082</name>
      </trkpt>
      <trkpt lat="35.236663140" lon="-106.479499620">
        <ele>2273.000</ele>
        <time>2019-05-02T17:28:04Z</time>
        <name>WPT.1083</name>
      </trkpt>
      <trkpt lat="35.236628280" lon="-106.479514420">
        <ele>2269.000</ele>
        <time>2019-05-02T17:28:09Z</time>
        <name>WPT.1084</name>
      </trkpt>
      <trkpt lat="35.236603120" lon="-106.479550270">
        <ele>2267.000</ele>
        <time>2019-05-02T17:28:17Z</time>
        <name>WPT.1085</name>
      </trkpt>
      <trkpt lat="35.236565860" lon="-106.479560610">
        <ele>2267.000</ele>
        <time>2019-05-02T17:28:22Z</time>
        <name>WPT.1086</name>
      </trkpt>
      <trkpt lat="35.236524410" lon="-106.479567040">
        <ele>2268.000</ele>
        <time>2019-05-02T17:28:30Z</time>
        <name>WPT.1087</name>
      </trkpt>
      <trkpt lat="35.236488300" lon="-106.479583570">
        <ele>2267.000</ele>
        <time>2019-05-02T17:28:34Z</time>
        <name>WPT.1088</name>
      </trkpt>
      <trkpt lat="35.236453720" lon="-106.479599150">
        <ele>2264.000</ele>
        <time>2019-05-02T17:28:38Z</time>
        <name>WPT.1089</name>
      </trkpt>
      <trkpt lat="35.236419620" lon="-106.479615710">
        <ele>2264.000</ele>
        <time>2019-05-02T17:28:42Z</time>
        <name>WPT.1090</name>
      </trkpt>
      <trkpt lat="35.236386420" lon="-106.479639700">
        <ele>2264.000</ele>
        <time>2019-05-02T17:28:46Z</time>
        <name>WPT.1091</name>
      </trkpt>
      <trkpt lat="35.236359020" lon="-106.479671720">
        <ele>2268.000</ele>
        <time>2019-05-02T17:28:50Z</time>
        <name>WPT.1092</name>
      </trkpt>
      <trkpt lat="35.236342720" lon="-106.479721190">
        <ele>2265.000</ele>
        <time>2019-05-02T17:28:56Z</time>
        <name>WPT.1093</name>
      </trkpt>
      <trkpt lat="35.236334860" lon="-106.479768710">
        <ele>2263.000</ele>
        <time>2019-05-02T17:29:02Z</time>
        <name>WPT.1094</name>
      </trkpt>
      <trkpt lat="35.236327050" lon="-106.479820280">
        <ele>2261.000</ele>
        <time>2019-05-02T17:29:06Z</time>
        <name>WPT.1095</name>
      </trkpt>
      <trkpt lat="35.236303050" lon="-106.479861290">
        <ele>2259.000</ele>
        <time>2019-05-02T17:29:10Z</time>
        <name>WPT.1096</name>
      </trkpt>
      <trkpt lat="35.236269520" lon="-106.479884600">
        <ele>2258.000</ele>
        <time>2019-05-02T17:29:14Z</time>
        <name>WPT.1097</name>
      </trkpt>
      <trkpt lat="35.236235370" lon="-106.479898780">
        <ele>2258.000</ele>
        <time>2019-05-02T17:29:19Z</time>
        <name>WPT.1098</name>
      </trkpt>
      <trkpt lat="35.236206170" lon="-106.479932240">
        <ele>2254.000</ele>
        <time>2019-05-02T17:29:25Z</time>
        <name>WPT.1099</name>
      </trkpt>
      <trkpt lat="35.236170800" lon="-106.479955310">
        <ele>2252.000</ele>
        <time>2019-05-02T17:29:31Z</time>
        <name>WPT.1100</name>
      </trkpt>
      <trkpt lat="35.236133270" lon="-106.479980700">
        <ele>2249.000</ele>
        <time>2019-05-02T17:29:35Z</time>
        <name>WPT.1101</name>
      </trkpt>
      <trkpt lat="35.236089740" lon="-106.480005890">
        <ele>2249.000</ele>
        <time>2019-05-02T17:29:42Z</time>
        <name>WPT.1102</name>
      </trkpt>
      <trkpt lat="35.236052020" lon="-106.480006880">
        <ele>2251.000</ele>
        <time>2019-05-02T17:29:46Z</time>
        <name>WPT.1103</name>
      </trkpt>
      <trkpt lat="35.236019240" lon="-106.480039110">
        <ele>2249.000</ele>
        <time>2019-05-02T17:29:52Z</time>
        <name>WPT.1104</name>
      </trkpt>
      <trkpt lat="35.235978120" lon="-106.480054390">
        <ele>2252.000</ele>
        <time>2019-05-02T17:30:01Z</time>
        <name>WPT.1105</name>
      </trkpt>
      <trkpt lat="35.235943320" lon="-106.480098420">
        <ele>2251.000</ele>
        <time>2019-05-02T17:30:10Z</time>
        <name>WPT.1106</name>
      </trkpt>
      <trkpt lat="35.235904850" lon="-106.480117610">
        <ele>2250.000</ele>
        <time>2019-05-02T17:30:18Z</time>
        <name>WPT.1107</name>
      </trkpt>
      <trkpt lat="35.235866320" lon="-106.480118050">
        <ele>2252.000</ele>
        <time>2019-05-02T17:30:24Z</time>
        <name>WPT.1108</name>
      </trkpt>
      <trkpt lat="35.235843000" lon="-106.480154000">
        <ele>2249.000</ele>
        <time>2019-05-02T17:30:30Z</time>
        <name>WPT.1109</name>
      </trkpt>
      <trkpt lat="35.235815780" lon="-106.480183380">
        <ele>2250.000</ele>
        <time>2019-05-02T17:30:35Z</time>
        <name>WPT.1110</name>
      </trkpt>
      <trkpt lat="35.235775810" lon="-106.480207910">
        <ele>2248.000</ele>
        <time>2019-05-02T17:30:39Z</time>
        <name>WPT.1111</name>
      </trkpt>
      <trkpt lat="35.235743180" lon="-106.480238820">
        <ele>2248.000</ele>
        <time>2019-05-02T17:30:45Z</time>
        <name>WPT.1112</name>
      </trkpt>
      <trkpt lat="35.235704990" lon="-106.480251800">
        <ele>2247.000</ele>
        <time>2019-05-02T17:30:52Z</time>
        <name>WPT.1113</name>
      </trkpt>
      <trkpt lat="35.235672510" lon="-106.480299000">
        <ele>2250.000</ele>
        <time>2019-05-02T17:30:57Z</time>
        <name>WPT.1114</name>
      </trkpt>
      <trkpt lat="35.235641890" lon="-106.480331140">
        <ele>2247.000</ele>
        <time>2019-05-02T17:31:25Z</time>
        <name>WPT.1115</name>
      </trkpt>
      <trkpt lat="35.235602740" lon="-106.480349420">
        <ele>2246.000</ele>
        <time>2019-05-02T17:31:29Z</time>
        <name>WPT.1116</name>
      </trkpt>
      <trkpt lat="35.235565720" lon="-106.480368360">
        <ele>2245.000</ele>
        <time>2019-05-02T17:31:35Z</time>
        <name>WPT.1117</name>
      </trkpt>
      <trkpt lat="35.235536690" lon="-106.480395100">
        <ele>2244.000</ele>
        <time>2019-05-02T17:31:40Z</time>
        <name>WPT.1118</name>
      </trkpt>
      <trkpt lat="35.235506520" lon="-106.480422620">
        <ele>2243.000</ele>
        <time>2019-05-02T17:31:47Z</time>
        <name>WPT.1119</name>
      </trkpt>
      <trkpt lat="35.235491300" lon="-106.480464150">
        <ele>2242.000</ele>
        <time>2019-05-02T17:31:52Z</time>
        <name>WPT.1120</name>
      </trkpt>
      <trkpt lat="35.235482910" lon="-106.480507060">
        <ele>2238.000</ele>
        <time>2019-05-02T17:31:59Z</time>
        <name>WPT.1121</name>
      </trkpt>
      <trkpt lat="35.235457560" lon="-106.480538650">
        <ele>2240.000</ele>
        <time>2019-05-02T17:35:17Z</time>
        <name>WPT.1122</name>
      </trkpt>
      <trkpt lat="35.235409910" lon="-106.480521790">
        <ele>2244.000</ele>
        <time>2019-05-02T17:35:22Z</time>
        <name>WPT.1123</name>
      </trkpt>
      <trkpt lat="35.235362700" lon="-106.480511270">
        <ele>2247.000</ele>
        <time>2019-05-02T17:35:27Z</time>
        <name>WPT.1124</name>
      </trkpt>
      <trkpt lat="35.235318470" lon="-106.480507880">
        <ele>2243.000</ele>
        <time>2019-05-02T17:35:33Z</time>
        <name>WPT.1125</name>
      </trkpt>
      <trkpt lat="35.235276020" lon="-106.480495800">
        <ele>2244.000</ele>
        <time>2019-05-02T17:35:39Z</time>
        <name>WPT.1126</name>
      </trkpt>
      <trkpt lat="35.235235400" lon="-106.480502820">
        <ele>2240.000</ele>
        <time>2019-05-02T17:35:45Z</time>
        <name>WPT.1127</name>
      </trkpt>
      <trkpt lat="35.235198950" lon="-106.480518250">
        <ele>2238.000</ele>
        <time>2019-05-02T17:35:51Z</time>
        <name>WPT.1128</name>
      </trkpt>
      <trkpt lat="35.235159320" lon="-106.480514900">
        <ele>2238.000</ele>
        <time>2019-05-02T17:35:54Z</time>
        <name>WPT.1129</name>
      </trkpt>
      <trkpt lat="35.235122550" lon="-106.480504750">
        <ele>2237.000</ele>
        <time>2019-05-02T17:35:59Z</time>
        <name>WPT.1130</name>
      </trkpt>
      <trkpt lat="35.235084240" lon="-106.480528380">
        <ele>2235.000</ele>
        <time>2019-05-02T17:36:04Z</time>
        <name>WPT.1131</name>
      </trkpt>
      <trkpt lat="35.235042060" lon="-106.480538320">
        <ele>2235.000</ele>
        <time>2019-05-02T17:36:08Z</time>
        <name>WPT.1132</name>
      </trkpt>
      <trkpt lat="35.235000930" lon="-106.480542500">
        <ele>2234.000</ele>
        <time>2019-05-02T17:36:13Z</time>
        <name>WPT.1133</name>
      </trkpt>
      <trkpt lat="35.234965090" lon="-106.480537070">
        <ele>2232.000</ele>
        <time>2019-05-02T17:36:18Z</time>
        <name>WPT.1134</name>
      </trkpt>
      <trkpt lat="35.234923050" lon="-106.480526710">
        <ele>2235.000</ele>
        <time>2019-05-02T17:36:23Z</time>
        <name>WPT.1135</name>
      </trkpt>
      <trkpt lat="35.234878140" lon="-106.480522610">
        <ele>2234.000</ele>
        <time>2019-05-02T17:36:27Z</time>
        <name>WPT.1136</name>
      </trkpt>
      <trkpt lat="35.234849030" lon="-106.480550990">
        <ele>2229.000</ele>
        <time>2019-05-02T17:36:44Z</time>
        <name>WPT.1137</name>
      </trkpt>
      <trkpt lat="35.234808140" lon="-106.480560820">
        <ele>2227.000</ele>
        <time>2019-05-02T17:36:49Z</time>
        <name>WPT.1138</name>
      </trkpt>
      <trkpt lat="35.234772140" lon="-106.480563530">
        <ele>2224.000</ele>
        <time>2019-05-02T17:36:54Z</time>
        <name>WPT.1139</name>
      </trkpt>
      <trkpt lat="35.234735180" lon="-106.480566990">
        <ele>2228.000</ele>
        <time>2019-05-02T17:36:58Z</time>
        <name>WPT.1140</name>
      </trkpt>
      <trkpt lat="35.234692560" lon="-106.480568000">
        <ele>2230.000</ele>
        <time>2019-05-02T17:37:01Z</time>
        <name>WPT.1141</name>
      </trkpt>
      <trkpt lat="35.234655880" lon="-106.480580680">
        <ele>2228.000</ele>
        <time>2019-05-02T17:37:09Z</time>
        <name>WPT.1142</name>
      </trkpt>
      <trkpt lat="35.234611070" lon="-106.480596460">
        <ele>2227.000</ele>
        <time>2019-05-02T17:37:13Z</time>
        <name>WPT.1143</name>
      </trkpt>
      <trkpt lat="35.234577660" lon="-106.480621680">
        <ele>2226.000</ele>
        <time>2019-05-02T17:37:18Z</time>
        <name>WPT.1144</name>
      </trkpt>
      <trkpt lat="35.234544910" lon="-106.480659440">
        <ele>2225.000</ele>
        <time>2019-05-02T17:37:23Z</time>
        <name>WPT.1145</name>
      </trkpt>
      <trkpt lat="35.234512150" lon="-106.480686350">
        <ele>2225.000</ele>
        <time>2019-05-02T17:37:27Z</time>
        <name>WPT.1146</name>
      </trkpt>
      <trkpt lat="35.234475460" lon="-106.480696960">
        <ele>2227.000</ele>
        <time>2019-05-02T17:37:31Z</time>
        <name>WPT.1147</name>
      </trkpt>
      <trkpt lat="35.234428770" lon="-106.480708330">
        <ele>2231.000</ele>
        <time>2019-05-02T17:37:35Z</time>
        <name>WPT.1148</name>
      </trkpt>
      <trkpt lat="35.234391680" lon="-106.480716970">
        <ele>2229.000</ele>
        <time>2019-05-02T17:37:40Z</time>
        <name>WPT.1149</name>
      </trkpt>
      <trkpt lat="35.234351790" lon="-106.480709710">
        <ele>2229.000</ele>
        <time>2019-05-02T17:37:45Z</time>
        <name>WPT.1150</name>
      </trkpt>
      <trkpt lat="35.234312780" lon="-106.480696590">
        <ele>2231.000</ele>
        <time>2019-05-02T17:37:49Z</time>
        <name>WPT.1151</name>
      </trkpt>
      <trkpt lat="35.234270120" lon="-106.480689330">
        <ele>2230.000</ele>
        <time>2019-05-02T17:37:55Z</time>
        <name>WPT.1152</name>
      </trkpt>
      <trkpt lat="35.234234490" lon="-106.480660810">
        <ele>2232.000</ele>
        <time>2019-05-02T17:38:00Z</time>
        <name>WPT.1153</name>
      </trkpt>
      <trkpt lat="35.234196790" lon="-106.480645100">
        <ele>2224.000</ele>
        <time>2019-05-02T17:38:21Z</time>
        <name>WPT.1154</name>
      </trkpt>
      <trkpt lat="35.234154700" lon="-106.480633920">
        <ele>2224.000</ele>
        <time>2019-05-02T17:38:26Z</time>
        <name>WPT.1155</name>
      </trkpt>
      <trkpt lat="35.234114470" lon="-106.480635940">
        <ele>2224.000</ele>
        <time>2019-05-02T17:38:30Z</time>
        <name>WPT.1156</name>
      </trkpt>
      <trkpt lat="35.234067110" lon="-106.480635200">
        <ele>2221.000</ele>
        <time>2019-05-02T17:38:36Z</time>
        <name>WPT.1157</name>
      </trkpt>
      <trkpt lat="35.234022370" lon="-106.480624790">
        <ele>2221.000</ele>
        <time>2019-05-02T17:38:41Z</time>
        <name>WPT.1158</name>
      </trkpt>
      <trkpt lat="35.233984820" lon="-106.480624430">
        <ele>2222.000</ele>
        <time>2019-05-02T17:38:46Z</time>
        <name>WPT.1159</name>
      </trkpt>
      <trkpt lat="35.233945550" lon="-106.480602260">
        <ele>2222.000</ele>
        <time>2019-05-02T17:38:52Z</time>
        <name>WPT.1160</name>
      </trkpt>
      <trkpt lat="35.233908360" lon="-106.480600360">
        <ele>2221.000</ele>
        <time>2019-05-02T17:38:57Z</time>
        <name>WPT.1161</name>
      </trkpt>
      <trkpt lat="35.233869350" lon="-106.480612720">
        <ele>2218.000</ele>
        <time>2019-05-02T17:39:03Z</time>
        <name>WPT.1162</name>
      </trkpt>
      <trkpt lat="35.233837120" lon="-106.480586740">
        <ele>2216.000</ele>
        <time>2019-05-02T17:39:08Z</time>
        <name>WPT.1163</name>
      </trkpt>
      <trkpt lat="35.233804200" lon="-106.480564040">
        <ele>2218.000</ele>
        <time>2019-05-02T17:39:13Z</time>
        <name>WPT.1164</name>
      </trkpt>
      <trkpt lat="35.233762460" lon="-106.480539100">
        <ele>2216.000</ele>
        <time>2019-05-02T17:39:18Z</time>
        <name>WPT.1165</name>
      </trkpt>
      <trkpt lat="35.233719100" lon="-106.480524060">
        <ele>2217.000</ele>
        <time>2019-05-02T17:39:22Z</time>
        <name>WPT.1166</name>
      </trkpt>
      <trkpt lat="35.233683390" lon="-106.480510280">
        <ele>2215.000</ele>
        <time>2019-05-02T17:39:27Z</time>
        <name>WPT.1167</name>
      </trkpt>
      <trkpt lat="35.233654000" lon="-106.480479710">
        <ele>2216.000</ele>
        <time>2019-05-02T17:39:31Z</time>
        <name>WPT.1168</name>
      </trkpt>
      <trkpt lat="35.233624990" lon="-106.480439820">
        <ele>2215.000</ele>
        <time>2019-05-02T17:39:38Z</time>
        <name>WPT.1169</name>
      </trkpt>
      <trkpt lat="35.233592610" lon="-106.480396840">
        <ele>2212.000</ele>
        <time>2019-05-02T17:39:49Z</time>
        <name>WPT.1170</name>
      </trkpt>
      <trkpt lat="35.233563970" lon="-106.480365830">
        <ele>2209.000</ele>
        <time>2019-05-02T17:40:04Z</time>
        <name>WPT.1171</name>
      </trkpt>
      <trkpt lat="35.233523660" lon="-106.480365400">
        <ele>2210.000</ele>
        <time>2019-05-02T17:40:08Z</time>
        <name>WPT.1172</name>
      </trkpt>
      <trkpt lat="35.233506320" lon="-106.480404160">
        <ele>2211.000</ele>
        <time>2019-05-02T17:41:14Z</time>
        <name>WPT.1173</name>
      </trkpt>
      <trkpt lat="35.233481390" lon="-106.480368190">
        <ele>2211.000</ele>
        <time>2019-05-02T17:41:31Z</time>
        <name>WPT.1174</name>
      </trkpt>
      <trkpt lat="35.233453650" lon="-106.480325620">
        <ele>2210.000</ele>
        <time>2019-05-02T17:41:37Z</time>
        <name>WPT.1175</name>
      </trkpt>
      <trkpt lat="35.233435040" lon="-106.480284230">
        <ele>2208.000</ele>
        <time>2019-05-02T17:41:42Z</time>
        <name>WPT.1176</name>
      </trkpt>
      <trkpt lat="35.233418540" lon="-106.480239620">
        <ele>2207.000</ele>
        <time>2019-05-02T17:41:47Z</time>
        <name>WPT.1177</name>
      </trkpt>
      <trkpt lat="35.233385120" lon="-106.480213760">
        <ele>2207.000</ele>
        <time>2019-05-02T17:41:50Z</time>
        <name>WPT.1178</name>
      </trkpt>
      <trkpt lat="35.233354300" lon="-106.480179890">
        <ele>2206.000</ele>
        <time>2019-05-02T17:41:56Z</time>
        <name>WPT.1179</name>
      </trkpt>
      <trkpt lat="35.233327260" lon="-106.480149130">
        <ele>2205.000</ele>
        <time>2019-05-02T17:42:00Z</time>
        <name>WPT.1180</name>
      </trkpt>
      <trkpt lat="35.233293390" lon="-106.480117650">
        <ele>2205.000</ele>
        <time>2019-05-02T17:42:04Z</time>
        <name>WPT.1181</name>
      </trkpt>
      <trkpt lat="35.233246380" lon="-106.480084850">
        <ele>2206.000</ele>
        <time>2019-05-02T17:42:08Z</time>
        <name>WPT.1182</name>
      </trkpt>
      <trkpt lat="35.233211180" lon="-106.480063620">
        <ele>2206.000</ele>
        <time>2019-05-02T17:42:11Z</time>
        <name>WPT.1183</name>
      </trkpt>
      <trkpt lat="35.233173460" lon="-106.480037880">
        <ele>2205.000</ele>
        <time>2019-05-02T17:42:14Z</time>
        <name>WPT.1184</name>
      </trkpt>
      <trkpt lat="35.233140960" lon="-106.480005100">
        <ele>2205.000</ele>
        <time>2019-05-02T17:42:19Z</time>
        <name>WPT.1185</name>
      </trkpt>
      <trkpt lat="35.233127410" lon="-106.479962180">
        <ele>2201.000</ele>
        <time>2019-05-02T17:42:37Z</time>
        <name>WPT.1186</name>
      </trkpt>
      <trkpt lat="35.233104420" lon="-106.479922880">
        <ele>2202.000</ele>
        <time>2019-05-02T17:42:45Z</time>
        <name>WPT.1187</name>
      </trkpt>
      <trkpt lat="35.233073980" lon="-106.479897940">
        <ele>2201.000</ele>
        <time>2019-05-02T17:42:49Z</time>
        <name>WPT.1188</name>
      </trkpt>
      <trkpt lat="35.233051220" lon="-106.479856150">
        <ele>2197.000</ele>
        <time>2019-05-02T17:42:55Z</time>
        <name>WPT.1189</name>
      </trkpt>
      <trkpt lat="35.233052840" lon="-106.479811440">
        <ele>2196.000</ele>
        <time>2019-05-02T17:42:59Z</time>
        <name>WPT.1190</name>
      </trkpt>
      <trkpt lat="35.233038140" lon="-106.479760660">
        <ele>2197.000</ele>
        <time>2019-05-02T17:43:04Z</time>
        <name>WPT.1191</name>
      </trkpt>
      <trkpt lat="35.233024950" lon="-106.479713610">
        <ele>2198.000</ele>
        <time>2019-05-02T17:43:10Z</time>
        <name>WPT.1192</name>
      </trkpt>
      <trkpt lat="35.233001200" lon="-106.479674860">
        <ele>2197.000</ele>
        <time>2019-05-02T17:43:15Z</time>
        <name>WPT.1193</name>
      </trkpt>
      <trkpt lat="35.232967040" lon="-106.479634390">
        <ele>2197.000</ele>
        <time>2019-05-02T17:43:21Z</time>
        <name>WPT.1194</name>
      </trkpt>
      <trkpt lat="35.232947440" lon="-106.479587700">
        <ele>2196.000</ele>
        <time>2019-05-02T17:43:25Z</time>
        <name>WPT.1195</name>
      </trkpt>
      <trkpt lat="35.232934400" lon="-106.479543650">
        <ele>2195.000</ele>
        <time>2019-05-02T17:43:36Z</time>
        <name>WPT.1196</name>
      </trkpt>
      <trkpt lat="35.232913510" lon="-106.479506200">
        <ele>2194.000</ele>
        <time>2019-05-02T17:43:42Z</time>
        <name>WPT.1197</name>
      </trkpt>
      <trkpt lat="35.232904380" lon="-106.479462740">
        <ele>2193.000</ele>
        <time>2019-05-02T17:43:47Z</time>
        <name>WPT.1198</name>
      </trkpt>
      <trkpt lat="35.232895480" lon="-106.479416950">
        <ele>2191.000</ele>
        <time>2019-05-02T17:43:53Z</time>
        <name>WPT.1199</name>
      </trkpt>
      <trkpt lat="35.232873950" lon="-106.479373180">
        <ele>2188.000</ele>
        <time>2019-05-02T17:44:10Z</time>
        <name>WPT.1200</name>
      </trkpt>
      <trkpt lat="35.232881810" lon="-106.479326410">
        <ele>2187.000</ele>
        <time>2019-05-02T17:44:15Z</time>
        <name>WPT.1201</name>
      </trkpt>
      <trkpt lat="35.232881150" lon="-106.479271300">
        <ele>2187.000</ele>
        <time>2019-05-02T17:44:21Z</time>
        <name>WPT.1202</name>
      </trkpt>
      <trkpt lat="35.232883330" lon="-106.479223870">
        <ele>2186.000</ele>
        <time>2019-05-02T17:44:26Z</time>
        <name>WPT.1203</name>
      </trkpt>
      <trkpt lat="35.232881260" lon="-106.479175180">
        <ele>2185.000</ele>
        <time>2019-05-02T17:44:32Z</time>
        <name>WPT.1204</name>
      </trkpt>
      <trkpt lat="35.232883820" lon="-106.479128340">
        <ele>2185.000</ele>
        <time>2019-05-02T17:44:36Z</time>
        <name>WPT.1205</name>
      </trkpt>
      <trkpt lat="35.232875070" lon="-106.479077850">
        <ele>2187.000</ele>
        <time>2019-05-02T17:44:41Z</time>
        <name>WPT.1206</name>
      </trkpt>
      <trkpt lat="35.232877990" lon="-106.479027820">
        <ele>2185.000</ele>
        <time>2019-05-02T17:44:45Z</time>
        <name>WPT.1207</name>
      </trkpt>
      <trkpt lat="35.232861120" lon="-106.478988210">
        <ele>2189.000</ele>
        <time>2019-05-02T17:44:48Z</time>
        <name>WPT.1208</name>
      </trkpt>
      <trkpt lat="35.232843450" lon="-106.478946460">
        <ele>2187.000</ele>
        <time>2019-05-02T17:44:54Z</time>
        <name>WPT.1209</name>
      </trkpt>
      <trkpt lat="35.232824240" lon="-106.478889600">
        <ele>2188.000</ele>
        <time>2019-05-02T17:45:02Z</time>
        <name>WPT.1210</name>
      </trkpt>
      <trkpt lat="35.232802080" lon="-106.478847700">
        <ele>2189.000</ele>
        <time>2019-05-02T17:45:18Z</time>
        <name>WPT.1211</name>
      </trkpt>
      <trkpt lat="35.232765150" lon="-106.478837590">
        <ele>2187.000</ele>
        <time>2019-05-02T17:45:24Z</time>
        <name>WPT.1212</name>
      </trkpt>
      <trkpt lat="35.232741890" lon="-106.478797480">
        <ele>2185.000</ele>
        <time>2019-05-02T17:45:29Z</time>
        <name>WPT.1213</name>
      </trkpt>
      <trkpt lat="35.232731290" lon="-106.478749440">
        <ele>2185.000</ele>
        <time>2019-05-02T17:45:33Z</time>
        <name>WPT.1214</name>
      </trkpt>
      <trkpt lat="35.232708410" lon="-106.478714210">
        <ele>2185.000</ele>
        <time>2019-05-02T17:45:36Z</time>
        <name>WPT.1215</name>
      </trkpt>
      <trkpt lat="35.232714120" lon="-106.478663400">
        <ele>2184.000</ele>
        <time>2019-05-02T17:45:42Z</time>
        <name>WPT.1216</name>
      </trkpt>
      <trkpt lat="35.232693920" lon="-106.478622150">
        <ele>2184.000</ele>
        <time>2019-05-02T17:45:47Z</time>
        <name>WPT.1217</name>
      </trkpt>
      <trkpt lat="35.232671200" lon="-106.478584530">
        <ele>2185.000</ele>
        <time>2019-05-02T17:45:52Z</time>
        <name>WPT.1218</name>
      </trkpt>
      <trkpt lat="35.232646520" lon="-106.478542840">
        <ele>2183.000</ele>
        <time>2019-05-02T17:45:59Z</time>
        <name>WPT.1219</name>
      </trkpt>
      <trkpt lat="35.232611070" lon="-106.478510660">
        <ele>2181.000</ele>
        <time>2019-05-02T17:46:16Z</time>
        <name>WPT.1220</name>
      </trkpt>
      <trkpt lat="35.232598560" lon="-106.478467410">
        <ele>2182.000</ele>
        <time>2019-05-02T17:46:20Z</time>
        <name>WPT.1221</name>
      </trkpt>
      <trkpt lat="35.232559450" lon="-106.478457900">
        <ele>2182.000</ele>
        <time>2019-05-02T17:46:23Z</time>
        <name>WPT.1222</name>
      </trkpt>
      <trkpt lat="35.232523390" lon="-106.478460340">
        <ele>2181.000</ele>
        <time>2019-05-02T17:46:26Z</time>
        <name>WPT.1223</name>
      </trkpt>
      <trkpt lat="35.232484840" lon="-106.478466850">
        <ele>2178.000</ele>
        <time>2019-05-02T17:46:30Z</time>
        <name>WPT.1224</name>
      </trkpt>
      <trkpt lat="35.232459730" lon="-106.478514150">
        <ele>2179.000</ele>
        <time>2019-05-02T17:46:34Z</time>
        <name>WPT.1225</name>
      </trkpt>
      <trkpt lat="35.232413930" lon="-106.478516480">
        <ele>2168.000</ele>
        <time>2019-05-02T17:47:47Z</time>
        <name>WPT.1226</name>
      </trkpt>
      <trkpt lat="35.232380800" lon="-106.478547130">
        <ele>2168.000</ele>
        <time>2019-05-02T17:47:51Z</time>
        <name>WPT.1227</name>
      </trkpt>
      <trkpt lat="35.232342690" lon="-106.478554730">
        <ele>2168.000</ele>
        <time>2019-05-02T17:47:55Z</time>
        <name>WPT.1228</name>
      </trkpt>
      <trkpt lat="35.232300480" lon="-106.478564510">
        <ele>2171.000</ele>
        <time>2019-05-02T17:47:59Z</time>
        <name>WPT.1229</name>
      </trkpt>
      <trkpt lat="35.232256840" lon="-106.478581340">
        <ele>2171.000</ele>
        <time>2019-05-02T17:48:04Z</time>
        <name>WPT.1230</name>
      </trkpt>
      <trkpt lat="35.232225900" lon="-106.478613200">
        <ele>2169.000</ele>
        <time>2019-05-02T17:48:09Z</time>
        <name>WPT.1231</name>
      </trkpt>
      <trkpt lat="35.232191290" lon="-106.478635790">
        <ele>2172.000</ele>
        <time>2019-05-02T17:48:14Z</time>
        <name>WPT.1232</name>
      </trkpt>
      <trkpt lat="35.232167450" lon="-106.478671810">
        <ele>2172.000</ele>
        <time>2019-05-02T17:48:20Z</time>
        <name>WPT.1233</name>
      </trkpt>
      <trkpt lat="35.232143910" lon="-106.478708290">
        <ele>2169.000</ele>
        <time>2019-05-02T17:48:43Z</time>
        <name>WPT.1234</name>
      </trkpt>
      <trkpt lat="35.232106760" lon="-106.478718680">
        <ele>2170.000</ele>
        <time>2019-05-02T17:48:47Z</time>
        <name>WPT.1235</name>
      </trkpt>
      <trkpt lat="35.232068630" lon="-106.478731540">
        <ele>2171.000</ele>
        <time>2019-05-02T17:48:51Z</time>
        <name>WPT.1236</name>
      </trkpt>
      <trkpt lat="35.232029030" lon="-106.478754720">
        <ele>2169.000</ele>
        <time>2019-05-02T17:48:56Z</time>
        <name>WPT.1237</name>
      </trkpt>
      <trkpt lat="35.231987530" lon="-106.478767750">
        <ele>2170.000</ele>
        <time>2019-05-02T17:49:02Z</time>
        <name>WPT.1238</name>
      </trkpt>
      <trkpt lat="35.231951870" lon="-106.478790990">
        <ele>2170.000</ele>
        <time>2019-05-02T17:49:07Z</time>
        <name>WPT.1239</name>
      </trkpt>
      <trkpt lat="35.231924070" lon="-106.478819310">
        <ele>2171.000</ele>
        <time>2019-05-02T17:49:12Z</time>
        <name>WPT.1240</name>
      </trkpt>
      <trkpt lat="35.231891920" lon="-106.478844730">
        <ele>2170.000</ele>
        <time>2019-05-02T17:49:18Z</time>
        <name>WPT.1241</name>
      </trkpt>
      <trkpt lat="35.231857760" lon="-106.478872480">
        <ele>2170.000</ele>
        <time>2019-05-02T17:49:23Z</time>
        <name>WPT.1242</name>
      </trkpt>
      <trkpt lat="35.231835120" lon="-106.478915300">
        <ele>2170.000</ele>
        <time>2019-05-02T17:49:29Z</time>
        <name>WPT.1243</name>
      </trkpt>
      <trkpt lat="35.231814750" lon="-106.478953340">
        <ele>2169.000</ele>
        <time>2019-05-02T17:49:35Z</time>
        <name>WPT.1244</name>
      </trkpt>
      <trkpt lat="35.231773120" lon="-106.478957050">
        <ele>2167.000</ele>
        <time>2019-05-02T17:49:41Z</time>
        <name>WPT.1245</name>
      </trkpt>
      <trkpt lat="35.231737320" lon="-106.478970390">
        <ele>2165.000</ele>
        <time>2019-05-02T17:49:46Z</time>
        <name>WPT.1246</name>
      </trkpt>
      <trkpt lat="35.231710840" lon="-106.479002960">
        <ele>2163.000</ele>
        <time>2019-05-02T17:49:51Z</time>
        <name>WPT.1247</name>
      </trkpt>
      <trkpt lat="35.231689620" lon="-106.479055640">
        <ele>2160.000</ele>
        <time>2019-05-02T17:49:57Z</time>
        <name>WPT.1248</name>
      </trkpt>
      <trkpt lat="35.231655710" lon="-106.479087780">
        <ele>2159.000</ele>
        <time>2019-05-02T17:50:03Z</time>
        <name>WPT.1249</name>
      </trkpt>
      <trkpt lat="35.231633620" lon="-106.479122850">
        <ele>2158.000</ele>
        <time>2019-05-02T17:50:10Z</time>
        <name>WPT.1250</name>
      </trkpt>
      <trkpt lat="35.231613270" lon="-106.479163360">
        <ele>2155.000</ele>
        <time>2019-05-02T17:50:16Z</time>
        <name>WPT.1251</name>
      </trkpt>
      <trkpt lat="35.231607140" lon="-106.479209840">
        <ele>2156.000</ele>
        <time>2019-05-02T17:50:20Z</time>
        <name>WPT.1252</name>
      </trkpt>
      <trkpt lat="35.231572700" lon="-106.479234770">
        <ele>2156.000</ele>
        <time>2019-05-02T17:50:27Z</time>
        <name>WPT.1253</name>
      </trkpt>
      <trkpt lat="35.231537310" lon="-106.479264510">
        <ele>2154.000</ele>
        <time>2019-05-02T17:50:34Z</time>
        <name>WPT.1254</name>
      </trkpt>
      <trkpt lat="35.231498600" lon="-106.479293240">
        <ele>2154.000</ele>
        <time>2019-05-02T17:50:40Z</time>
        <name>WPT.1255</name>
      </trkpt>
      <trkpt lat="35.231482630" lon="-106.479334740">
        <ele>2153.000</ele>
        <time>2019-05-02T17:50:44Z</time>
        <name>WPT.1256</name>
      </trkpt>
      <trkpt lat="35.231454990" lon="-106.479365500">
        <ele>2153.000</ele>
        <time>2019-05-02T17:50:58Z</time>
        <name>WPT.1257</name>
      </trkpt>
      <trkpt lat="35.231418820" lon="-106.479346690">
        <ele>2155.000</ele>
        <time>2019-05-02T17:51:05Z</time>
        <name>WPT.1258</name>
      </trkpt>
      <trkpt lat="35.231383800" lon="-106.479365380">
        <ele>2154.000</ele>
        <time>2019-05-02T17:51:10Z</time>
        <name>WPT.1259</name>
      </trkpt>
      <trkpt lat="35.231349170" lon="-106.479390450">
        <ele>2155.000</ele>
        <time>2019-05-02T17:51:15Z</time>
        <name>WPT.1260</name>
      </trkpt>
      <trkpt lat="35.231307150" lon="-106.479391520">
        <ele>2155.000</ele>
        <time>2019-05-02T17:51:21Z</time>
        <name>WPT.1261</name>
      </trkpt>
      <trkpt lat="35.231268320" lon="-106.479388940">
        <ele>2157.000</ele>
        <time>2019-05-02T17:51:26Z</time>
        <name>WPT.1262</name>
      </trkpt>
      <trkpt lat="35.231231530" lon="-106.479389730">
        <ele>2156.000</ele>
        <time>2019-05-02T17:51:30Z</time>
        <name>WPT.1263</name>
      </trkpt>
      <trkpt lat="35.231191980" lon="-106.479363850">
        <ele>2157.000</ele>
        <time>2019-05-02T17:51:36Z</time>
        <name>WPT.1264</name>
      </trkpt>
      <trkpt lat="35.231150880" lon="-106.479376410">
        <ele>2151.000</ele>
        <time>2019-05-02T17:51:43Z</time>
        <name>WPT.1265</name>
      </trkpt>
      <trkpt lat="35.231111230" lon="-106.479395680">
        <ele>2152.000</ele>
        <time>2019-05-02T17:51:49Z</time>
        <name>WPT.1266</name>
      </trkpt>
      <trkpt lat="35.231079230" lon="-106.479419530">
        <ele>2150.000</ele>
        <time>2019-05-02T17:51:53Z</time>
        <name>WPT.1267</name>
      </trkpt>
      <trkpt lat="35.231108280" lon="-106.479445750">
        <ele>2145.000</ele>
        <time>2019-05-02T17:52:02Z</time>
        <name>WPT.1268</name>
      </trkpt>
      <trkpt lat="35.231066390" lon="-106.479464640">
        <ele>2143.000</ele>
        <time>2019-05-02T17:52:10Z</time>
        <name>WPT.1269</name>
      </trkpt>
      <trkpt lat="35.231028570" lon="-106.479461360">
        <ele>2141.000</ele>
        <time>2019-05-02T17:52:14Z</time>
        <name>WPT.1270</name>
      </trkpt>
      <trkpt lat="35.230989500" lon="-106.479462250">
        <ele>2143.000</ele>
        <time>2019-05-02T17:52:20Z</time>
        <name>WPT.1271</name>
      </trkpt>
      <trkpt lat="35.230951550" lon="-106.479474800">
        <ele>2143.000</ele>
        <time>2019-05-02T17:52:27Z</time>
        <name>WPT.1272</name>
      </trkpt>
      <trkpt lat="35.230924800" lon="-106.479504770">
        <ele>2143.000</ele>
        <time>2019-05-02T17:52:33Z</time>
        <name>WPT.1273</name>
      </trkpt>
      <trkpt lat="35.230887660" lon="-106.479518590">
        <ele>2142.000</ele>
        <time>2019-05-02T17:52:38Z</time>
        <name>WPT.1274</name>
      </trkpt>
      <trkpt lat="35.230849570" lon="-106.479525950">
        <ele>2146.000</ele>
        <time>2019-05-02T17:52:42Z</time>
        <name>WPT.1275</name>
      </trkpt>
      <trkpt lat="35.230811230" lon="-106.479527090">
        <ele>2147.000</ele>
        <time>2019-05-02T17:52:45Z</time>
        <name>WPT.1276</name>
      </trkpt>
      <trkpt lat="35.230767530" lon="-106.479550130">
        <ele>2147.000</ele>
        <time>2019-05-02T17:52:50Z</time>
        <name>WPT.1277</name>
      </trkpt>
      <trkpt lat="35.230744670" lon="-106.479585930">
        <ele>2142.000</ele>
        <time>2019-05-02T17:53:02Z</time>
        <name>WPT.1278</name>
      </trkpt>
      <trkpt lat="35.230713590" lon="-106.479608330">
        <ele>2143.000</ele>
        <time>2019-05-02T17:53:07Z</time>
        <name>WPT.1279</name>
      </trkpt>
      <trkpt lat="35.230677050" lon="-106.479623680">
        <ele>2143.000</ele>
        <time>2019-05-02T17:53:11Z</time>
        <name>WPT.1280</name>
      </trkpt>
      <trkpt lat="35.230652040" lon="-106.479659870">
        <ele>2142.000</ele>
        <time>2019-05-02T17:53:15Z</time>
        <name>WPT.1281</name>
      </trkpt>
      <trkpt lat="35.230630400" lon="-106.479700750">
        <ele>2142.000</ele>
        <time>2019-05-02T17:53:19Z</time>
        <name>WPT.1282</name>
      </trkpt>
      <trkpt lat="35.230636000" lon="-106.479748560">
        <ele>2141.000</ele>
        <time>2019-05-02T17:53:24Z</time>
        <name>WPT.1283</name>
      </trkpt>
      <trkpt lat="35.230593680" lon="-106.479760150">
        <ele>2149.000</ele>
        <time>2019-05-02T17:53:28Z</time>
        <name>WPT.1284</name>
      </trkpt>
      <trkpt lat="35.230587930" lon="-106.479812900">
        <ele>2148.000</ele>
        <time>2019-05-02T17:53:31Z</time>
        <name>WPT.1285</name>
      </trkpt>
      <trkpt lat="35.230560480" lon="-106.479851310">
        <ele>2150.000</ele>
        <time>2019-05-02T17:53:36Z</time>
        <name>WPT.1286</name>
      </trkpt>
      <trkpt lat="35.230530970" lon="-106.479890160">
        <ele>2150.000</ele>
        <time>2019-05-02T17:53:39Z</time>
        <name>WPT.1287</name>
      </trkpt>
      <trkpt lat="35.230513760" lon="-106.479937770">
        <ele>2148.000</ele>
        <time>2019-05-02T17:53:42Z</time>
        <name>WPT.1288</name>
      </trkpt>
      <trkpt lat="35.230512160" lon="-106.479989780">
        <ele>2145.000</ele>
        <time>2019-05-02T17:53:45Z</time>
        <name>WPT.1289</name>
      </trkpt>
      <trkpt lat="35.230500220" lon="-106.480035050">
        <ele>2147.000</ele>
        <time>2019-05-02T17:53:49Z</time>
        <name>WPT.1290</name>
      </trkpt>
      <trkpt lat="35.230483450" lon="-106.480083540">
        <ele>2147.000</ele>
        <time>2019-05-02T17:53:53Z</time>
        <name>WPT.1291</name>
      </trkpt>
      <trkpt lat="35.230448990" lon="-106.480117280">
        <ele>2147.000</ele>
        <time>2019-05-02T17:53:57Z</time>
        <name>WPT.1292</name>
      </trkpt>
      <trkpt lat="35.230433710" lon="-106.480159260">
        <ele>2150.000</ele>
        <time>2019-05-02T17:54:01Z</time>
        <name>WPT.1293</name>
      </trkpt>
      <trkpt lat="35.230423580" lon="-106.480208070">
        <ele>2152.000</ele>
        <time>2019-05-02T17:54:04Z</time>
        <name>WPT.1294</name>
      </trkpt>
      <trkpt lat="35.230425130" lon="-106.480259860">
        <ele>2150.000</ele>
        <time>2019-05-02T17:54:09Z</time>
        <name>WPT.1295</name>
      </trkpt>
      <trkpt lat="35.230402000" lon="-106.480296940">
        <ele>2151.000</ele>
        <time>2019-05-02T17:54:13Z</time>
        <name>WPT.1296</name>
      </trkpt>
      <trkpt lat="35.230379910" lon="-106.480335560">
        <ele>2149.000</ele>
        <time>2019-05-02T17:54:18Z</time>
        <name>WPT.1297</name>
      </trkpt>
      <trkpt lat="35.230362790" lon="-106.480374390">
        <ele>2150.000</ele>
        <time>2019-05-02T17:54:22Z</time>
        <name>WPT.1298</name>
      </trkpt>
      <trkpt lat="35.230335570" lon="-106.480404970">
        <ele>2150.000</ele>
        <time>2019-05-02T17:54:27Z</time>
        <name>WPT.1299</name>
      </trkpt>
      <trkpt lat="35.230304860" lon="-106.480433040">
        <ele>2149.000</ele>
        <time>2019-05-02T17:54:31Z</time>
        <name>WPT.1300</name>
      </trkpt>
      <trkpt lat="35.230270390" lon="-106.480462970">
        <ele>2152.000</ele>
        <time>2019-05-02T17:54:37Z</time>
        <name>WPT.1301</name>
      </trkpt>
      <trkpt lat="35.230235230" lon="-106.480491640">
        <ele>2149.000</ele>
        <time>2019-05-02T17:54:42Z</time>
        <name>WPT.1302</name>
      </trkpt>
      <trkpt lat="35.230197260" lon="-106.480506140">
        <ele>2149.000</ele>
        <time>2019-05-02T17:54:46Z</time>
        <name>WPT.1303</name>
      </trkpt>
      <trkpt lat="35.230186570" lon="-106.480551650">
        <ele>2149.000</ele>
        <time>2019-05-02T17:55:01Z</time>
        <name>WPT.1304</name>
      </trkpt>
      <trkpt lat="35.230147230" lon="-106.480576480">
        <ele>2149.000</ele>
        <time>2019-05-02T17:55:50Z</time>
        <name>WPT.1305</name>
      </trkpt>
      <trkpt lat="35.230107030" lon="-106.480585410">
        <ele>2146.000</ele>
        <time>2019-05-02T17:55:56Z</time>
        <name>WPT.1306</name>
      </trkpt>
      <trkpt lat="35.230065750" lon="-106.480600860">
        <ele>2149.000</ele>
        <time>2019-05-02T17:56:00Z</time>
        <name>WPT.1307</name>
      </trkpt>
      <trkpt lat="35.230031100" lon="-106.480619740">
        <ele>2150.000</ele>
        <time>2019-05-02T17:56:06Z</time>
        <name>WPT.1308</name>
      </trkpt>
      <trkpt lat="35.229995520" lon="-106.480644110">
        <ele>2148.000</ele>
        <time>2019-05-02T17:56:11Z</time>
        <name>WPT.1309</name>
      </trkpt>
      <trkpt lat="35.229953030" lon="-106.480668250">
        <ele>2146.000</ele>
        <time>2019-05-02T17:56:16Z</time>
        <name>WPT.1310</name>
      </trkpt>
      <trkpt lat="35.229930090" lon="-106.480719840">
        <ele>2150.000</ele>
        <time>2019-05-02T17:56:21Z</time>
        <name>WPT.1311</name>
      </trkpt>
      <trkpt lat="35.229904470" lon="-106.480755950">
        <ele>2151.000</ele>
        <time>2019-05-02T17:56:25Z</time>
        <name>WPT.1312</name>
      </trkpt>
      <trkpt lat="35.229881570" lon="-106.480798060">
        <ele>2151.000</ele>
        <time>2019-05-02T17:56:29Z</time>
        <name>WPT.1313</name>
      </trkpt>
      <trkpt lat="35.229851210" lon="-106.480846600">
        <ele>2151.000</ele>
        <time>2019-05-02T17:56:34Z</time>
        <name>WPT.1314</name>
      </trkpt>
      <trkpt lat="35.229830260" lon="-106.480884910">
        <ele>2152.000</ele>
        <time>2019-05-02T17:56:38Z</time>
        <name>WPT.1315</name>
      </trkpt>
      <trkpt lat="35.229804670" lon="-106.480922970">
        <ele>2151.000</ele>
        <time>2019-05-02T17:56:43Z</time>
        <name>WPT.1316</name>
      </trkpt>
      <trkpt lat="35.229778040" lon="-106.480958750">
        <ele>2152.000</ele>
        <time>2019-05-02T17:56:47Z</time>
        <name>WPT.1317</name>
      </trkpt>
      <trkpt lat="35.229751190" lon="-106.480991610">
        <ele>2151.000</ele>
        <time>2019-05-02T17:56:51Z</time>
        <name>WPT.1318</name>
      </trkpt>
      <trkpt lat="35.229713640" lon="-106.480954420">
        <ele>2151.000</ele>
        <time>2019-05-02T17:57:18Z</time>
        <name>WPT.1319</name>
      </trkpt>
      <trkpt lat="35.229683240" lon="-106.480930790">
        <ele>2152.000</ele>
        <time>2019-05-02T17:57:25Z</time>
        <name>WPT.1320</name>
      </trkpt>
      <trkpt lat="35.229649180" lon="-106.480914140">
        <ele>2153.000</ele>
        <time>2019-05-02T17:57:32Z</time>
        <name>WPT.1321</name>
      </trkpt>
      <trkpt lat="35.229611310" lon="-106.480888140">
        <ele>2154.000</ele>
        <time>2019-05-02T17:57:36Z</time>
        <name>WPT.1322</name>
      </trkpt>
      <trkpt lat="35.229566260" lon="-106.480886130">
        <ele>2153.000</ele>
        <time>2019-05-02T17:57:41Z</time>
        <name>WPT.1323</name>
      </trkpt>
      <trkpt lat="35.229524920" lon="-106.480897410">
        <ele>2154.000</ele>
        <time>2019-05-02T17:57:45Z</time>
        <name>WPT.1324</name>
      </trkpt>
      <trkpt lat="35.229485810" lon="-106.480910060">
        <ele>2153.000</ele>
        <time>2019-05-02T17:57:49Z</time>
        <name>WPT.1325</name>
      </trkpt>
      <trkpt lat="35.229451490" lon="-106.480926720">
        <ele>2152.000</ele>
        <time>2019-05-02T17:57:53Z</time>
        <name>WPT.1326</name>
      </trkpt>
      <trkpt lat="35.229410020" lon="-106.480927370">
        <ele>2153.000</ele>
        <time>2019-05-02T17:58:00Z</time>
        <name>WPT.1327</name>
      </trkpt>
      <trkpt lat="35.229373740" lon="-106.480934560">
        <ele>2153.000</ele>
        <time>2019-05-02T17:58:04Z</time>
        <name>WPT.1328</name>
      </trkpt>
      <trkpt lat="35.229336090" lon="-106.480958190">
        <ele>2152.000</ele>
        <time>2019-05-02T17:58:07Z</time>
        <name>WPT.1329</name>
      </trkpt>
      <trkpt lat="35.229301090" lon="-106.480973400">
        <ele>2150.000</ele>
        <time>2019-05-02T17:58:13Z</time>
        <name>WPT.1330</name>
      </trkpt>
      <trkpt lat="35.229266610" lon="-106.480988980">
        <ele>2147.000</ele>
        <time>2019-05-02T17:58:18Z</time>
        <name>WPT.1331</name>
      </trkpt>
      <trkpt lat="35.229226950" lon="-106.481007790">
        <ele>2148.000</ele>
        <time>2019-05-02T17:58:22Z</time>
        <name>WPT.1332</name>
      </trkpt>
      <trkpt lat="35.229192030" lon="-106.481024240">
        <ele>2148.000</ele>
        <time>2019-05-02T17:58:25Z</time>
        <name>WPT.1333</name>
      </trkpt>
      <trkpt lat="35.229158890" lon="-106.481047940">
        <ele>2149.000</ele>
        <time>2019-05-02T17:58:29Z</time>
        <name>WPT.1334</name>
      </trkpt>
      <trkpt lat="35.229127020" lon="-106.481074590">
        <ele>2147.000</ele>
        <time>2019-05-02T17:58:32Z</time>
        <name>WPT.1335</name>
      </trkpt>
      <trkpt lat="35.229092360" lon="-106.481109630">
        <ele>2148.000</ele>
        <time>2019-05-02T17:58:40Z</time>
        <name>WPT.1336</name>
      </trkpt>
      <trkpt lat="35.229058930" lon="-106.481129720">
        <ele>2148.000</ele>
        <time>2019-05-02T17:58:47Z</time>
        <name>WPT.1337</name>
      </trkpt>
      <trkpt lat="35.229002420" lon="-106.481117960">
        <ele>2149.000</ele>
        <time>2019-05-02T17:58:49Z</time>
        <name>WPT.1338</name>
      </trkpt>
      <trkpt lat="35.228979010" lon="-106.481155960">
        <ele>2148.000</ele>
        <time>2019-05-02T17:58:56Z</time>
        <name>WPT.1339</name>
      </trkpt>
      <trkpt lat="35.228935250" lon="-106.481154520">
        <ele>2150.000</ele>
        <time>2019-05-02T17:59:02Z</time>
        <name>WPT.1340</name>
      </trkpt>
      <trkpt lat="35.228895630" lon="-106.481152740">
        <ele>2152.000</ele>
        <time>2019-05-02T17:59:05Z</time>
        <name>WPT.1341</name>
      </trkpt>
      <trkpt lat="35.228854860" lon="-106.481168730">
        <ele>2152.000</ele>
        <time>2019-05-02T17:59:10Z</time>
        <name>WPT.1342</name>
      </trkpt>
      <trkpt lat="35.228818980" lon="-106.481180110">
        <ele>2150.000</ele>
        <time>2019-05-02T17:59:14Z</time>
        <name>WPT.1343</name>
      </trkpt>
      <trkpt lat="35.228781520" lon="-106.481164850">
        <ele>2148.000</ele>
        <time>2019-05-02T17:59:19Z</time>
        <name>WPT.1344</name>
      </trkpt>
      <trkpt lat="35.228743930" lon="-106.481161110">
        <ele>2147.000</ele>
        <time>2019-05-02T17:59:24Z</time>
        <name>WPT.1345</name>
      </trkpt>
      <trkpt lat="35.228706530" lon="-106.481162320">
        <ele>2148.000</ele>
        <time>2019-05-02T17:59:28Z</time>
        <name>WPT.1346</name>
      </trkpt>
      <trkpt lat="35.228664780" lon="-106.481150390">
        <ele>2148.000</ele>
        <time>2019-05-02T17:59:33Z</time>
        <name>WPT.1347</name>
      </trkpt>
      <trkpt lat="35.228630290" lon="-106.481129430">
        <ele>2148.000</ele>
        <time>2019-05-02T17:59:38Z</time>
        <name>WPT.1348</name>
      </trkpt>
      <trkpt lat="35.228580230" lon="-106.481129280">
        <ele>2146.000</ele>
        <time>2019-05-02T17:59:42Z</time>
        <name>WPT.1349</name>
      </trkpt>
      <trkpt lat="35.228539750" lon="-106.481141970">
        <ele>2145.000</ele>
        <time>2019-05-02T17:59:47Z</time>
        <name>WPT.1350</name>
      </trkpt>
      <trkpt lat="35.228499890" lon="-106.481133620">
        <ele>2145.000</ele>
        <time>2019-05-02T17:59:50Z</time>
        <name>WPT.1351</name>
      </trkpt>
      <trkpt lat="35.228460880" lon="-106.481138900">
        <ele>2148.000</ele>
        <time>2019-05-02T17:59:54Z</time>
        <name>WPT.1352</name>
      </trkpt>
      <trkpt lat="35.228426920" lon="-106.481166210">
        <ele>2149.000</ele>
        <time>2019-05-02T17:59:58Z</time>
        <name>WPT.1353</name>
      </trkpt>
      <trkpt lat="35.228389210" lon="-106.481190590">
        <ele>2149.000</ele>
        <time>2019-05-02T18:00:03Z</time>
        <name>WPT.1354</name>
      </trkpt>
      <trkpt lat="35.228365780" lon="-106.481229040">
        <ele>2147.000</ele>
        <time>2019-05-02T18:00:08Z</time>
        <name>WPT.1355</name>
      </trkpt>
      <trkpt lat="35.228329150" lon="-106.481246870">
        <ele>2147.000</ele>
        <time>2019-05-02T18:00:13Z</time>
        <name>WPT.1356</name>
      </trkpt>
      <trkpt lat="35.228293450" lon="-106.481258340">
        <ele>2147.000</ele>
        <time>2019-05-02T18:00:19Z</time>
        <name>WPT.1357</name>
      </trkpt>
      <trkpt lat="35.228257090" lon="-106.481250580">
        <ele>2144.000</ele>
        <time>2019-05-02T18:01:07Z</time>
        <name>WPT.1358</name>
      </trkpt>
      <trkpt lat="35.228218160" lon="-106.481267140">
        <ele>2141.000</ele>
        <time>2019-05-02T18:01:46Z</time>
        <name>WPT.1359</name>
      </trkpt>
      <trkpt lat="35.228178910" lon="-106.481293650">
        <ele>2142.000</ele>
        <time>2019-05-02T18:01:50Z</time>
        <name>WPT.1360</name>
      </trkpt>
      <trkpt lat="35.228143070" lon="-106.481309210">
        <ele>2140.000</ele>
        <time>2019-05-02T18:01:55Z</time>
        <name>WPT.1361</name>
      </trkpt>
      <trkpt lat="35.228108190" lon="-106.481333210">
        <ele>2140.000</ele>
        <time>2019-05-02T18:01:59Z</time>
        <name>WPT.1362</name>
      </trkpt>
      <trkpt lat="35.228065150" lon="-106.481350770">
        <ele>2137.000</ele>
        <time>2019-05-02T18:02:14Z</time>
        <name>WPT.1363</name>
      </trkpt>
      <trkpt lat="35.228025810" lon="-106.481361730">
        <ele>2137.000</ele>
        <time>2019-05-02T18:02:18Z</time>
        <name>WPT.1364</name>
      </trkpt>
      <trkpt lat="35.227990370" lon="-106.481350180">
        <ele>2137.000</ele>
        <time>2019-05-02T18:02:23Z</time>
        <name>WPT.1365</name>
      </trkpt>
      <trkpt lat="35.227947990" lon="-106.481348190">
        <ele>2138.000</ele>
        <time>2019-05-02T18:02:28Z</time>
        <name>WPT.1366</name>
      </trkpt>
      <trkpt lat="35.227908690" lon="-106.481357100">
        <ele>2137.000</ele>
        <time>2019-05-02T18:02:32Z</time>
        <name>WPT.1367</name>
      </trkpt>
      <trkpt lat="35.227872260" lon="-106.481363700">
        <ele>2137.000</ele>
        <time>2019-05-02T18:02:36Z</time>
        <name>WPT.1368</name>
      </trkpt>
      <trkpt lat="35.227840200" lon="-106.481340720">
        <ele>2137.000</ele>
        <time>2019-05-02T18:02:40Z</time>
        <name>WPT.1369</name>
      </trkpt>
      <trkpt lat="35.227802710" lon="-106.481311340">
        <ele>2137.000</ele>
        <time>2019-05-02T18:02:44Z</time>
        <name>WPT.1370</name>
      </trkpt>
      <trkpt lat="35.227760590" lon="-106.481297850">
        <ele>2136.000</ele>
        <time>2019-05-02T18:02:48Z</time>
        <name>WPT.1371</name>
      </trkpt>
      <trkpt lat="35.227720720" lon="-106.481289290">
        <ele>2136.000</ele>
        <time>2019-05-02T18:02:52Z</time>
        <name>WPT.1372</name>
      </trkpt>
      <trkpt lat="35.227686410" lon="-106.481265160">
        <ele>2134.000</ele>
        <time>2019-05-02T18:03:04Z</time>
        <name>WPT.1373</name>
      </trkpt>
      <trkpt lat="35.227649570" lon="-106.481251520">
        <ele>2133.000</ele>
        <time>2019-05-02T18:03:08Z</time>
        <name>WPT.1374</name>
      </trkpt>
      <trkpt lat="35.227606830" lon="-106.481237450">
        <ele>2135.000</ele>
        <time>2019-05-02T18:03:13Z</time>
        <name>WPT.1375</name>
      </trkpt>
      <trkpt lat="35.227570050" lon="-106.481223320">
        <ele>2133.000</ele>
        <time>2019-05-02T18:03:17Z</time>
        <name>WPT.1376</name>
      </trkpt>
      <trkpt lat="35.227525430" lon="-106.481218050">
        <ele>2134.000</ele>
        <time>2019-05-02T18:03:21Z</time>
        <name>WPT.1377</name>
      </trkpt>
      <trkpt lat="35.227488190" lon="-106.481215750">
        <ele>2135.000</ele>
        <time>2019-05-02T18:03:25Z</time>
        <name>WPT.1378</name>
      </trkpt>
      <trkpt lat="35.227447980" lon="-106.481196050">
        <ele>2136.000</ele>
        <time>2019-05-02T18:03:30Z</time>
        <name>WPT.1379</name>
      </trkpt>
      <trkpt lat="35.227407860" lon="-106.481171700">
        <ele>2135.000</ele>
        <time>2019-05-02T18:03:36Z</time>
        <name>WPT.1380</name>
      </trkpt>
      <trkpt lat="35.227367900" lon="-106.481169480">
        <ele>2134.000</ele>
        <time>2019-05-02T18:03:39Z</time>
        <name>WPT.1381</name>
      </trkpt>
      <trkpt lat="35.227326520" lon="-106.481158910">
        <ele>2132.000</ele>
        <time>2019-05-02T18:03:43Z</time>
        <name>WPT.1382</name>
      </trkpt>
      <trkpt lat="35.227293330" lon="-106.481130020">
        <ele>2133.000</ele>
        <time>2019-05-02T18:03:47Z</time>
        <name>WPT.1383</name>
      </trkpt>
      <trkpt lat="35.227251480" lon="-106.481103060">
        <ele>2132.000</ele>
        <time>2019-05-02T18:03:52Z</time>
        <name>WPT.1384</name>
      </trkpt>
      <trkpt lat="35.227221950" lon="-106.481071400">
        <ele>2131.000</ele>
        <time>2019-05-02T18:03:57Z</time>
        <name>WPT.1385</name>
      </trkpt>
      <trkpt lat="35.227196640" lon="-106.481034680">
        <ele>2132.000</ele>
        <time>2019-05-02T18:04:02Z</time>
        <name>WPT.1386</name>
      </trkpt>
      <trkpt lat="35.227165950" lon="-106.481005020">
        <ele>2133.000</ele>
        <time>2019-05-02T18:04:06Z</time>
        <name>WPT.1387</name>
      </trkpt>
      <trkpt lat="35.227144350" lon="-106.480965720">
        <ele>2134.000</ele>
        <time>2019-05-02T18:04:10Z</time>
        <name>WPT.1388</name>
      </trkpt>
      <trkpt lat="35.227119880" lon="-106.480922760">
        <ele>2134.000</ele>
        <time>2019-05-02T18:04:14Z</time>
        <name>WPT.1389</name>
      </trkpt>
      <trkpt lat="35.227110290" lon="-106.480874680">
        <ele>2135.000</ele>
        <time>2019-05-02T18:04:19Z</time>
        <name>WPT.1390</name>
      </trkpt>
      <trkpt lat="35.227078340" lon="-106.480832170">
        <ele>2133.000</ele>
        <time>2019-05-02T18:04:25Z</time>
        <name>WPT.1391</name>
      </trkpt>
      <trkpt lat="35.227050530" lon="-106.480791880">
        <ele>2131.000</ele>
        <time>2019-05-02T18:04:30Z</time>
        <name>WPT.1392</name>
      </trkpt>
      <trkpt lat="35.227069750" lon="-106.480751070">
        <ele>2131.000</ele>
        <time>2019-05-02T18:04:35Z</time>
        <name>WPT.1393</name>
      </trkpt>
      <trkpt lat="35.227055030" lon="-106.480708470">
        <ele>2131.000</ele>
        <time>2019-05-02T18:04:39Z</time>
        <name>WPT.1394</name>
      </trkpt>
      <trkpt lat="35.227042580" lon="-106.480656180">
        <ele>2130.000</ele>
        <time>2019-05-02T18:04:43Z</time>
        <name>WPT.1395</name>
      </trkpt>
      <trkpt lat="35.226997610" lon="-106.480661670">
        <ele>2127.000</ele>
        <time>2019-05-02T18:04:49Z</time>
        <name>WPT.1396</name>
      </trkpt>
      <trkpt lat="35.226959990" lon="-106.480670080">
        <ele>2128.000</ele>
        <time>2019-05-02T18:04:54Z</time>
        <name>WPT.1397</name>
      </trkpt>
      <trkpt lat="35.226926210" lon="-106.480700150">
        <ele>2126.000</ele>
        <time>2019-05-02T18:05:00Z</time>
        <name>WPT.1398</name>
      </trkpt>
      <trkpt lat="35.226884120" lon="-106.480710440">
        <ele>2126.000</ele>
        <time>2019-05-02T18:05:07Z</time>
        <name>WPT.1399</name>
      </trkpt>
      <trkpt lat="35.226852010" lon="-106.480739110">
        <ele>2125.000</ele>
        <time>2019-05-02T18:05:13Z</time>
        <name>WPT.1400</name>
      </trkpt>
      <trkpt lat="35.226804970" lon="-106.480735930">
        <ele>2127.000</ele>
        <time>2019-05-02T18:05:17Z</time>
        <name>WPT.1401</name>
      </trkpt>
      <trkpt lat="35.226771640" lon="-106.480761780">
        <ele>2126.000</ele>
        <time>2019-05-02T18:05:20Z</time>
        <name>WPT.1402</name>
      </trkpt>
      <trkpt lat="35.226733210" lon="-106.480788430">
        <ele>2127.000</ele>
        <time>2019-05-02T18:05:24Z</time>
        <name>WPT.1403</name>
      </trkpt>
      <trkpt lat="35.226709520" lon="-106.480824180">
        <ele>2128.000</ele>
        <time>2019-05-02T18:05:29Z</time>
        <name>WPT.1404</name>
      </trkpt>
      <trkpt lat="35.226683840" lon="-106.480859630">
        <ele>2127.000</ele>
        <time>2019-05-02T18:05:33Z</time>
        <name>WPT.1405</name>
      </trkpt>
      <trkpt lat="35.226645370" lon="-106.480873970">
        <ele>2128.000</ele>
        <time>2019-05-02T18:05:38Z</time>
        <name>WPT.1406</name>
      </trkpt>
      <trkpt lat="35.226607080" lon="-106.480886410">
        <ele>2130.000</ele>
        <time>2019-05-02T18:05:42Z</time>
        <name>WPT.1407</name>
      </trkpt>
      <trkpt lat="35.226603980" lon="-106.480940590">
        <ele>2130.000</ele>
        <time>2019-05-02T18:05:47Z</time>
        <name>WPT.1408</name>
      </trkpt>
      <trkpt lat="35.226569600" lon="-106.480957030">
        <ele>2130.000</ele>
        <time>2019-05-02T18:05:50Z</time>
        <name>WPT.1409</name>
      </trkpt>
      <trkpt lat="35.226547200" lon="-106.481005590">
        <ele>2132.000</ele>
        <time>2019-05-02T18:05:58Z</time>
        <name>WPT.1410</name>
      </trkpt>
      <trkpt lat="35.226513810" lon="-106.481037180">
        <ele>2131.000</ele>
        <time>2019-05-02T18:06:05Z</time>
        <name>WPT.1411</name>
      </trkpt>
      <trkpt lat="35.226473300" lon="-106.481063800">
        <ele>2129.000</ele>
        <time>2019-05-02T18:06:18Z</time>
        <name>WPT.1412</name>
      </trkpt>
      <trkpt lat="35.226463520" lon="-106.481106180">
        <ele>2128.000</ele>
        <time>2019-05-02T18:06:43Z</time>
        <name>WPT.1413</name>
      </trkpt>
      <trkpt lat="35.226423880" lon="-106.481131500">
        <ele>2131.000</ele>
        <time>2019-05-02T18:06:49Z</time>
        <name>WPT.1414</name>
      </trkpt>
      <trkpt lat="35.226394290" lon="-106.481168480">
        <ele>2132.000</ele>
        <time>2019-05-02T18:06:54Z</time>
        <name>WPT.1415</name>
      </trkpt>
      <trkpt lat="35.226364810" lon="-106.481200310">
        <ele>2132.000</ele>
        <time>2019-05-02T18:06:58Z</time>
        <name>WPT.1416</name>
      </trkpt>
      <trkpt lat="35.226333430" lon="-106.481232390">
        <ele>2131.000</ele>
        <time>2019-05-02T18:07:03Z</time>
        <name>WPT.1417</name>
      </trkpt>
      <trkpt lat="35.226298580" lon="-106.481247500">
        <ele>2131.000</ele>
        <time>2019-05-02T18:07:08Z</time>
        <name>WPT.1418</name>
      </trkpt>
      <trkpt lat="35.226261200" lon="-106.481269680">
        <ele>2131.000</ele>
        <time>2019-05-02T18:07:13Z</time>
        <name>WPT.1419</name>
      </trkpt>
      <trkpt lat="35.226232370" lon="-106.481304930">
        <ele>2129.000</ele>
        <time>2019-05-02T18:07:18Z</time>
        <name>WPT.1420</name>
      </trkpt>
      <trkpt lat="35.226209350" lon="-106.481338760">
        <ele>2127.000</ele>
        <time>2019-05-02T18:07:23Z</time>
        <name>WPT.1421</name>
      </trkpt>
      <trkpt lat="35.226190290" lon="-106.481378700">
        <ele>2126.000</ele>
        <time>2019-05-02T18:07:27Z</time>
        <name>WPT.1422</name>
      </trkpt>
      <trkpt lat="35.226168830" lon="-106.481419160">
        <ele>2128.000</ele>
        <time>2019-05-02T18:07:34Z</time>
        <name>WPT.1423</name>
      </trkpt>
      <trkpt lat="35.226133790" lon="-106.481449220">
        <ele>2129.000</ele>
        <time>2019-05-02T18:07:38Z</time>
        <name>WPT.1424</name>
      </trkpt>
      <trkpt lat="35.226105010" lon="-106.481477760">
        <ele>2128.000</ele>
        <time>2019-05-02T18:07:43Z</time>
        <name>WPT.1425</name>
      </trkpt>
      <trkpt lat="35.226063520" lon="-106.481507910">
        <ele>2127.000</ele>
        <time>2019-05-02T18:07:47Z</time>
        <name>WPT.1426</name>
      </trkpt>
      <trkpt lat="35.226029530" lon="-106.481527230">
        <ele>2127.000</ele>
        <time>2019-05-02T18:07:51Z</time>
        <name>WPT.1427</name>
      </trkpt>
      <trkpt lat="35.225984800" lon="-106.481549890">
        <ele>2127.000</ele>
        <time>2019-05-02T18:07:56Z</time>
        <name>WPT.1428</name>
      </trkpt>
      <trkpt lat="35.225943580" lon="-106.481557760">
        <ele>2127.000</ele>
        <time>2019-05-02T18:08:01Z</time>
        <name>WPT.1429</name>
      </trkpt>
      <trkpt lat="35.225907060" lon="-106.481574890">
        <ele>2129.000</ele>
        <time>2019-05-02T18:08:07Z</time>
        <name>WPT.1430</name>
      </trkpt>
      <trkpt lat="35.225882490" lon="-106.481607120">
        <ele>2127.000</ele>
        <time>2019-05-02T18:08:12Z</time>
        <name>WPT.1431</name>
      </trkpt>
      <trkpt lat="35.225854790" lon="-106.481640630">
        <ele>2125.000</ele>
        <time>2019-05-02T18:08:18Z</time>
        <name>WPT.1432</name>
      </trkpt>
      <trkpt lat="35.225820830" lon="-106.481675480">
        <ele>2126.000</ele>
        <time>2019-05-02T18:08:24Z</time>
        <name>WPT.1433</name>
      </trkpt>
      <trkpt lat="35.225791470" lon="-106.481701510">
        <ele>2127.000</ele>
        <time>2019-05-02T18:08:28Z</time>
        <name>WPT.1434</name>
      </trkpt>
      <trkpt lat="35.225758960" lon="-106.481722680">
        <ele>2127.000</ele>
        <time>2019-05-02T18:08:32Z</time>
        <name>WPT.1435</name>
      </trkpt>
      <trkpt lat="35.225722550" lon="-106.481727040">
        <ele>2126.000</ele>
        <time>2019-05-02T18:08:36Z</time>
        <name>WPT.1436</name>
      </trkpt>
      <trkpt lat="35.225689930" lon="-106.481749790">
        <ele>2125.000</ele>
        <time>2019-05-02T18:08:41Z</time>
        <name>WPT.1437</name>
      </trkpt>
      <trkpt lat="35.225653710" lon="-106.481770440">
        <ele>2128.000</ele>
        <time>2019-05-02T18:08:46Z</time>
        <name>WPT.1438</name>
      </trkpt>
      <trkpt lat="35.225626220" lon="-106.481818360">
        <ele>2127.000</ele>
        <time>2019-05-02T18:08:52Z</time>
        <name>WPT.1439</name>
      </trkpt>
      <trkpt lat="35.225580680" lon="-106.481833430">
        <ele>2127.000</ele>
        <time>2019-05-02T18:08:58Z</time>
        <name>WPT.1440</name>
      </trkpt>
      <trkpt lat="35.225545270" lon="-106.481842620">
        <ele>2127.000</ele>
        <time>2019-05-02T18:09:04Z</time>
        <name>WPT.1441</name>
      </trkpt>
      <trkpt lat="35.225514670" lon="-106.481869150">
        <ele>2125.000</ele>
        <time>2019-05-02T18:09:10Z</time>
        <name>WPT.1442</name>
      </trkpt>
      <trkpt lat="35.225483680" lon="-106.481895810">
        <ele>2123.000</ele>
        <time>2019-05-02T18:09:16Z</time>
        <name>WPT.1443</name>
      </trkpt>
      <trkpt lat="35.225443430" lon="-106.481884660">
        <ele>2123.000</ele>
        <time>2019-05-02T18:09:26Z</time>
        <name>WPT.1444</name>
      </trkpt>
      <trkpt lat="35.225399240" lon="-106.481886320">
        <ele>2124.000</ele>
        <time>2019-05-02T18:09:32Z</time>
        <name>WPT.1445</name>
      </trkpt>
      <trkpt lat="35.225355580" lon="-106.481870500">
        <ele>2123.000</ele>
        <time>2019-05-02T18:09:39Z</time>
        <name>WPT.1446</name>
      </trkpt>
      <trkpt lat="35.225319880" lon="-106.481854080">
        <ele>2122.000</ele>
        <time>2019-05-02T18:09:44Z</time>
        <name>WPT.1447</name>
      </trkpt>
      <trkpt lat="35.225282560" lon="-106.481862350">
        <ele>2121.000</ele>
        <time>2019-05-02T18:09:55Z</time>
        <name>WPT.1448</name>
      </trkpt>
      <trkpt lat="35.225240110" lon="-106.481866920">
        <ele>2120.000</ele>
        <time>2019-05-02T18:10:00Z</time>
        <name>WPT.1449</name>
      </trkpt>
      <trkpt lat="35.225195500" lon="-106.481860590">
        <ele>2120.000</ele>
        <time>2019-05-02T18:10:04Z</time>
        <name>WPT.1450</name>
      </trkpt>
      <trkpt lat="35.225158920" lon="-106.481855740">
        <ele>2120.000</ele>
        <time>2019-05-02T18:10:56Z</time>
        <name>WPT.1451</name>
      </trkpt>
      <trkpt lat="35.225112920" lon="-106.481865980">
        <ele>2119.000</ele>
        <time>2019-05-02T18:11:17Z</time>
        <name>WPT.1452</name>
      </trkpt>
      <trkpt lat="35.225078360" lon="-106.481844640">
        <ele>2117.000</ele>
        <time>2019-05-02T18:11:22Z</time>
        <name>WPT.1453</name>
      </trkpt>
      <trkpt lat="35.225039810" lon="-106.481833490">
        <ele>2114.000</ele>
        <time>2019-05-02T18:11:29Z</time>
        <name>WPT.1454</name>
      </trkpt>
      <trkpt lat="35.225002800" lon="-106.481809370">
        <ele>2115.000</ele>
        <time>2019-05-02T18:11:35Z</time>
        <name>WPT.1455</name>
      </trkpt>
      <trkpt lat="35.224968960" lon="-106.481792390">
        <ele>2116.000</ele>
        <time>2019-05-02T18:11:39Z</time>
        <name>WPT.1456</name>
      </trkpt>
      <trkpt lat="35.224928160" lon="-106.481772540">
        <ele>2117.000</ele>
        <time>2019-05-02T18:11:43Z</time>
        <name>WPT.1457</name>
      </trkpt>
      <trkpt lat="35.224884730" lon="-106.481771060">
        <ele>2117.000</ele>
        <time>2019-05-02T18:11:48Z</time>
        <name>WPT.1458</name>
      </trkpt>
      <trkpt lat="35.224845510" lon="-106.481782570">
        <ele>2114.000</ele>
        <time>2019-05-02T18:11:53Z</time>
        <name>WPT.1459</name>
      </trkpt>
      <trkpt lat="35.224808670" lon="-106.481797720">
        <ele>2114.000</ele>
        <time>2019-05-02T18:11:58Z</time>
        <name>WPT.1460</name>
      </trkpt>
      <trkpt lat="35.224768050" lon="-106.481775260">
        <ele>2116.000</ele>
        <time>2019-05-02T18:12:04Z</time>
        <name>WPT.1461</name>
      </trkpt>
      <trkpt lat="35.224725280" lon="-106.481756150">
        <ele>2118.000</ele>
        <time>2019-05-02T18:12:08Z</time>
        <name>WPT.1462</name>
      </trkpt>
      <trkpt lat="35.224685980" lon="-106.481766610">
        <ele>2118.000</ele>
        <time>2019-05-02T18:12:12Z</time>
        <name>WPT.1463</name>
      </trkpt>
      <trkpt lat="35.224642920" lon="-106.481760110">
        <ele>2119.000</ele>
        <time>2019-05-02T18:12:17Z</time>
        <name>WPT.1464</name>
      </trkpt>
      <trkpt lat="35.224599460" lon="-106.481734350">
        <ele>2120.000</ele>
        <time>2019-05-02T18:12:21Z</time>
        <name>WPT.1465</name>
      </trkpt>
      <trkpt lat="35.224567110" lon="-106.481702140">
        <ele>2118.000</ele>
        <time>2019-05-02T18:12:25Z</time>
        <name>WPT.1466</name>
      </trkpt>
      <trkpt lat="35.224524640" lon="-106.481669060">
        <ele>2116.000</ele>
        <time>2019-05-02T18:12:32Z</time>
        <name>WPT.1467</name>
      </trkpt>
      <trkpt lat="35.224491460" lon="-106.481650000">
        <ele>2116.000</ele>
        <time>2019-05-02T18:12:37Z</time>
        <name>WPT.1468</name>
      </trkpt>
      <trkpt lat="35.224453350" lon="-106.481627500">
        <ele>2115.000</ele>
        <time>2019-05-02T18:12:41Z</time>
        <name>WPT.1469</name>
      </trkpt>
      <trkpt lat="35.224409120" lon="-106.481606540">
        <ele>2116.000</ele>
        <time>2019-05-02T18:12:46Z</time>
        <name>WPT.1470</name>
      </trkpt>
      <trkpt lat="35.224370390" lon="-106.481588270">
        <ele>2116.000</ele>
        <time>2019-05-02T18:12:51Z</time>
        <name>WPT.1471</name>
      </trkpt>
      <trkpt lat="35.224331210" lon="-106.481571650">
        <ele>2114.000</ele>
        <time>2019-05-02T18:12:58Z</time>
        <name>WPT.1472</name>
      </trkpt>
      <trkpt lat="35.224303580" lon="-106.481543100">
        <ele>2114.000</ele>
        <time>2019-05-02T18:13:04Z</time>
        <name>WPT.1473</name>
      </trkpt>
      <trkpt lat="35.224259990" lon="-106.481526950">
        <ele>2115.000</ele>
        <time>2019-05-02T18:13:08Z</time>
        <name>WPT.1474</name>
      </trkpt>
      <trkpt lat="35.224221680" lon="-106.481539610">
        <ele>2116.000</ele>
        <time>2019-05-02T18:13:13Z</time>
        <name>WPT.1475</name>
      </trkpt>
      <trkpt lat="35.224199780" lon="-106.481587720">
        <ele>2118.000</ele>
        <time>2019-05-02T18:13:16Z</time>
        <name>WPT.1476</name>
      </trkpt>
      <trkpt lat="35.224162520" lon="-106.481600490">
        <ele>2115.000</ele>
        <time>2019-05-02T18:13:19Z</time>
        <name>WPT.1477</name>
      </trkpt>
      <trkpt lat="35.224123440" lon="-106.481598030">
        <ele>2117.000</ele>
        <time>2019-05-02T18:13:21Z</time>
        <name>WPT.1478</name>
      </trkpt>
      <trkpt lat="35.224082560" lon="-106.481606510">
        <ele>2116.000</ele>
        <time>2019-05-02T18:13:27Z</time>
        <name>WPT.1479</name>
      </trkpt>
      <trkpt lat="35.224039970" lon="-106.481624350">
        <ele>2116.000</ele>
        <time>2019-05-02T18:13:31Z</time>
        <name>WPT.1480</name>
      </trkpt>
      <trkpt lat="35.223993830" lon="-106.481613700">
        <ele>2115.000</ele>
        <time>2019-05-02T18:13:37Z</time>
        <name>WPT.1481</name>
      </trkpt>
      <trkpt lat="35.223955250" lon="-106.481610240">
        <ele>2115.000</ele>
        <time>2019-05-02T18:13:42Z</time>
        <name>WPT.1482</name>
      </trkpt>
      <trkpt lat="35.223923360" lon="-106.481568670">
        <ele>2114.000</ele>
        <time>2019-05-02T18:13:45Z</time>
        <name>WPT.1483</name>
      </trkpt>
      <trkpt lat="35.223888240" lon="-106.481555730">
        <ele>2114.000</ele>
        <time>2019-05-02T18:14:30Z</time>
        <name>WPT.1484</name>
      </trkpt>
      <trkpt lat="35.223894230" lon="-106.481599120">
        <ele>2112.000</ele>
        <time>2019-05-02T18:14:40Z</time>
        <name>WPT.1485</name>
      </trkpt>
      <trkpt lat="35.223905960" lon="-106.481555020">
        <ele>2112.000</ele>
        <time>2019-05-02T18:14:57Z</time>
        <name>WPT.1486</name>
      </trkpt>
      <trkpt lat="35.223877100" lon="-106.481504920">
        <ele>2110.000</ele>
        <time>2019-05-02T18:15:04Z</time>
        <name>WPT.1487</name>
      </trkpt>
      <trkpt lat="35.223840640" lon="-106.481486300">
        <ele>2110.000</ele>
        <time>2019-05-02T18:15:07Z</time>
        <name>WPT.1488</name>
      </trkpt>
      <trkpt lat="35.223803560" lon="-106.481507630">
        <ele>2109.000</ele>
        <time>2019-05-02T18:15:10Z</time>
        <name>WPT.1489</name>
      </trkpt>
      <trkpt lat="35.223782650" lon="-106.481546320">
        <ele>2110.000</ele>
        <time>2019-05-02T18:15:14Z</time>
        <name>WPT.1490</name>
      </trkpt>
      <trkpt lat="35.223757530" lon="-106.481580820">
        <ele>2112.000</ele>
        <time>2019-05-02T18:15:18Z</time>
        <name>WPT.1491</name>
      </trkpt>
      <trkpt lat="35.223718820" lon="-106.481599450">
        <ele>2111.000</ele>
        <time>2019-05-02T18:15:23Z</time>
        <name>WPT.1492</name>
      </trkpt>
      <trkpt lat="35.223678300" lon="-106.481618720">
        <ele>2112.000</ele>
        <time>2019-05-02T18:15:27Z</time>
        <name>WPT.1493</name>
      </trkpt>
      <trkpt lat="35.223640210" lon="-106.481617860">
        <ele>2111.000</ele>
        <time>2019-05-02T18:15:31Z</time>
        <name>WPT.1494</name>
      </trkpt>
      <trkpt lat="35.223602960" lon="-106.481634870">
        <ele>2111.000</ele>
        <time>2019-05-02T18:15:35Z</time>
        <name>WPT.1495</name>
      </trkpt>
      <trkpt lat="35.223562570" lon="-106.481622730">
        <ele>2111.000</ele>
        <time>2019-05-02T18:15:39Z</time>
        <name>WPT.1496</name>
      </trkpt>
      <trkpt lat="35.223522010" lon="-106.481630790">
        <ele>2110.000</ele>
        <time>2019-05-02T18:15:43Z</time>
        <name>WPT.1497</name>
      </trkpt>
      <trkpt lat="35.223478600" lon="-106.481647490">
        <ele>2111.000</ele>
        <time>2019-05-02T18:15:47Z</time>
        <name>WPT.1498</name>
      </trkpt>
      <trkpt lat="35.223442700" lon="-106.481635660">
        <ele>2111.000</ele>
        <time>2019-05-02T18:15:50Z</time>
        <name>WPT.1499</name>
      </trkpt>
      <trkpt lat="35.223398310" lon="-106.481634460">
        <ele>2111.000</ele>
        <time>2019-05-02T18:15:54Z</time>
        <name>WPT.1500</name>
      </trkpt>
      <trkpt lat="35.223362730" lon="-106.481623770">
        <ele>2111.000</ele>
        <time>2019-05-02T18:15:58Z</time>
        <name>WPT.1501</name>
      </trkpt>
      <trkpt lat="35.223324570" lon="-106.481611760">
        <ele>2111.000</ele>
        <time>2019-05-02T18:16:01Z</time>
        <name>WPT.1502</name>
      </trkpt>
      <trkpt lat="35.223276190" lon="-106.481615350">
        <ele>2112.000</ele>
        <time>2019-05-02T18:16:05Z</time>
        <name>WPT.1503</name>
      </trkpt>
      <trkpt lat="35.223244980" lon="-106.481638870">
        <ele>2111.000</ele>
        <time>2019-05-02T18:16:08Z</time>
        <name>WPT.1504</name>
      </trkpt>
      <trkpt lat="35.223206020" lon="-106.481642000">
        <ele>2112.000</ele>
        <time>2019-05-02T18:16:12Z</time>
        <name>WPT.1505</name>
      </trkpt>
      <trkpt lat="35.223163980" lon="-106.481627590">
        <ele>2111.000</ele>
        <time>2019-05-02T18:16:16Z</time>
        <name>WPT.1506</name>
      </trkpt>
      <trkpt lat="35.223126770" lon="-106.481648930">
        <ele>2112.000</ele>
        <time>2019-05-02T18:16:19Z</time>
        <name>WPT.1507</name>
      </trkpt>
      <trkpt lat="35.223110650" lon="-106.481698670">
        <ele>2111.000</ele>
        <time>2019-05-02T18:16:23Z</time>
        <name>WPT.1508</name>
      </trkpt>
      <trkpt lat="35.223089640" lon="-106.481754310">
        <ele>2112.000</ele>
        <time>2019-05-02T18:16:27Z</time>
        <name>WPT.1509</name>
      </trkpt>
      <trkpt lat="35.223071840" lon="-106.481808210">
        <ele>2115.000</ele>
        <time>2019-05-02T18:16:32Z</time>
        <name>WPT.1510</name>
      </trkpt>
      <trkpt lat="35.223059340" lon="-106.481852100">
        <ele>2114.000</ele>
        <time>2019-05-02T18:16:35Z</time>
        <name>WPT.1511</name>
      </trkpt>
      <trkpt lat="35.223083110" lon="-106.481899610">
        <ele>2113.000</ele>
        <time>2019-05-02T18:16:38Z</time>
        <name>WPT.1512</name>
      </trkpt>
      <trkpt lat="35.223101310" lon="-106.481942970">
        <ele>2111.000</ele>
        <time>2019-05-02T18:16:41Z</time>
        <name>WPT.1513</name>
      </trkpt>
      <trkpt lat="35.223104320" lon="-106.481991940">
        <ele>2109.000</ele>
        <time>2019-05-02T18:16:45Z</time>
        <name>WPT.1514</name>
      </trkpt>
      <trkpt lat="35.223117140" lon="-106.482036300">
        <ele>2110.000</ele>
        <time>2019-05-02T18:16:50Z</time>
        <name>WPT.1515</name>
      </trkpt>
      <trkpt lat="35.223121360" lon="-106.482080240">
        <ele>2111.000</ele>
        <time>2019-05-02T18:16:54Z</time>
        <name>WPT.1516</name>
      </trkpt>
      <trkpt lat="35.223086030" lon="-106.482107020">
        <ele>2107.000</ele>
        <time>2019-05-02T18:16:59Z</time>
        <name>WPT.1517</name>
      </trkpt>
      <trkpt lat="35.223068170" lon="-106.482155800">
        <ele>2109.000</ele>
        <time>2019-05-02T18:17:05Z</time>
        <name>WPT.1518</name>
      </trkpt>
      <trkpt lat="35.223052450" lon="-106.482199890">
        <ele>2108.000</ele>
        <time>2019-05-02T18:17:09Z</time>
        <name>WPT.1519</name>
      </trkpt>
      <trkpt lat="35.223028060" lon="-106.482240990">
        <ele>2107.000</ele>
        <time>2019-05-02T18:17:12Z</time>
        <name>WPT.1520</name>
      </trkpt>
      <trkpt lat="35.223012220" lon="-106.482282380">
        <ele>2107.000</ele>
        <time>2019-05-02T18:17:16Z</time>
        <name>WPT.1521</name>
      </trkpt>
      <trkpt lat="35.223002000" lon="-106.482329750">
        <ele>2106.000</ele>
        <time>2019-05-02T18:17:20Z</time>
        <name>WPT.1522</name>
      </trkpt>
      <trkpt lat="35.222985460" lon="-106.482372810">
        <ele>2106.000</ele>
        <time>2019-05-02T18:17:24Z</time>
        <name>WPT.1523</name>
      </trkpt>
      <trkpt lat="35.222978880" lon="-106.482426360">
        <ele>2105.000</ele>
        <time>2019-05-02T18:17:28Z</time>
        <name>WPT.1524</name>
      </trkpt>
      <trkpt lat="35.222959550" lon="-106.482469800">
        <ele>2106.000</ele>
        <time>2019-05-02T18:17:32Z</time>
        <name>WPT.1525</name>
      </trkpt>
      <trkpt lat="35.222961190" lon="-106.482521240">
        <ele>2106.000</ele>
        <time>2019-05-02T18:17:35Z</time>
        <name>WPT.1526</name>
      </trkpt>
      <trkpt lat="35.222958940" lon="-106.482572720">
        <ele>2105.000</ele>
        <time>2019-05-02T18:17:41Z</time>
        <name>WPT.1527</name>
      </trkpt>
      <trkpt lat="35.222973950" lon="-106.482616750">
        <ele>2106.000</ele>
        <time>2019-05-02T18:17:46Z</time>
        <name>WPT.1528</name>
      </trkpt>
      <trkpt lat="35.223005110" lon="-106.482652150">
        <ele>2108.000</ele>
        <time>2019-05-02T18:17:50Z</time>
        <name>WPT.1529</name>
      </trkpt>
      <trkpt lat="35.223012410" lon="-106.482697360">
        <ele>2105.000</ele>
        <time>2019-05-02T18:17:55Z</time>
        <name>WPT.1530</name>
      </trkpt>
      <trkpt lat="35.223049590" lon="-106.482733590">
        <ele>2103.000</ele>
        <time>2019-05-02T18:18:00Z</time>
        <name>WPT.1531</name>
      </trkpt>
      <trkpt lat="35.223067720" lon="-106.482777190">
        <ele>2105.000</ele>
        <time>2019-05-02T18:18:04Z</time>
        <name>WPT.1532</name>
      </trkpt>
      <trkpt lat="35.223086300" lon="-106.482828980">
        <ele>2104.000</ele>
        <time>2019-05-02T18:18:09Z</time>
        <name>WPT.1533</name>
      </trkpt>
      <trkpt lat="35.223122220" lon="-106.482859360">
        <ele>2104.000</ele>
        <time>2019-05-02T18:18:14Z</time>
        <name>WPT.1534</name>
      </trkpt>
      <trkpt lat="35.223141470" lon="-106.482903220">
        <ele>2103.000</ele>
        <time>2019-05-02T18:18:20Z</time>
        <name>WPT.1535</name>
      </trkpt>
      <trkpt lat="35.223143650" lon="-106.482959330">
        <ele>2104.000</ele>
        <time>2019-05-02T18:18:25Z</time>
        <name>WPT.1536</name>
      </trkpt>
      <trkpt lat="35.223175480" lon="-106.482992530">
        <ele>2103.000</ele>
        <time>2019-05-02T18:18:29Z</time>
        <name>WPT.1537</name>
      </trkpt>
      <trkpt lat="35.223194370" lon="-106.483047220">
        <ele>2104.000</ele>
        <time>2019-05-02T18:18:33Z</time>
        <name>WPT.1538</name>
      </trkpt>
      <trkpt lat="35.223210270" lon="-106.483092790">
        <ele>2104.000</ele>
        <time>2019-05-02T18:18:36Z</time>
        <name>WPT.1539</name>
      </trkpt>
      <trkpt lat="35.223191600" lon="-106.483136560">
        <ele>2105.000</ele>
        <time>2019-05-02T18:18:40Z</time>
        <name>WPT.1540</name>
      </trkpt>
      <trkpt lat="35.223158580" lon="-106.483161220">
        <ele>2106.000</ele>
        <time>2019-05-02T18:18:45Z</time>
        <name>WPT.1541</name>
      </trkpt>
      <trkpt lat="35.223142190" lon="-106.483203700">
        <ele>2101.000</ele>
        <time>2019-05-02T18:18:56Z</time>
        <name>WPT.1542</name>
      </trkpt>
      <trkpt lat="35.223121190" lon="-106.483247340">
        <ele>2101.000</ele>
        <time>2019-05-02T18:19:15Z</time>
        <name>WPT.1543</name>
      </trkpt>
      <trkpt lat="35.223103890" lon="-106.483289400">
        <ele>2099.000</ele>
        <time>2019-05-02T18:19:20Z</time>
        <name>WPT.1544</name>
      </trkpt>
      <trkpt lat="35.223076350" lon="-106.483324820">
        <ele>2100.000</ele>
        <time>2019-05-02T18:19:25Z</time>
        <name>WPT.1545</name>
      </trkpt>
      <trkpt lat="35.223053770" lon="-106.483364180">
        <ele>2098.000</ele>
        <time>2019-05-02T18:19:30Z</time>
        <name>WPT.1546</name>
      </trkpt>
      <trkpt lat="35.223015580" lon="-106.483385970">
        <ele>2095.000</ele>
        <time>2019-05-02T18:19:38Z</time>
        <name>WPT.1547</name>
      </trkpt>
      <trkpt lat="35.222979020" lon="-106.483410150">
        <ele>2094.000</ele>
        <time>2019-05-02T18:19:45Z</time>
        <name>WPT.1548</name>
      </trkpt>
      <trkpt lat="35.222951540" lon="-106.483438980">
        <ele>2095.000</ele>
        <time>2019-05-02T18:19:54Z</time>
        <name>WPT.1549</name>
      </trkpt>
      <trkpt lat="35.222913980" lon="-106.483451290">
        <ele>2093.000</ele>
        <time>2019-05-02T18:19:59Z</time>
        <name>WPT.1550</name>
      </trkpt>
      <trkpt lat="35.222877840" lon="-106.483430130">
        <ele>2093.000</ele>
        <time>2019-05-02T18:20:06Z</time>
        <name>WPT.1551</name>
      </trkpt>
      <trkpt lat="35.222876750" lon="-106.483478000">
        <ele>2094.000</ele>
        <time>2019-05-02T18:21:50Z</time>
        <name>WPT.1552</name>
      </trkpt>
    </trkseg>
  </trk>
</gpx>
